Logo
 


Wetterdaten - Dienstag, 26.01.2021 - Rheinberg-Annaberg     25 m ber NN private Wetterstation Rheinberg/Angaben ohne Gewhr!
Wetterdaten: aktuell Dienstag, 26.01.2021 08:50
Datum Zeit Temp. A. Feuchte A. Luftdruck Regen Wind Richtung Richtung Sonnenschein ET UV Solar Taupunkt Windchill Windben Empfang
26.01.2021 08:50 3,8 C 94 % 1014,1 hPa 0,0 l/m 9,1 km/h SW 221 0 min 0,000 mm 0,0 UV-I 9 W/m 2,9 C 1,4 C 13,4 km/h 96,15 %
26.01.2021 08:49 3,8 C 94 % 1014,1 hPa 0,0 l/m 11,8 km/h W-SW 237 0 min 0,000 mm 0,0 UV-I 10 W/m 2,9 C -0,5 C 19,1 km/h 96,67 %
26.01.2021 08:48 3,8 C 94 % 1014,1 hPa 0,0 l/m 12,8 km/h W-SW 239 0 min 0,000 mm 0,0 UV-I 11 W/m 2,9 C -1,1 C 17,2 km/h 100,00 %
26.01.2021 08:47 3,8 C 93 % 1014,0 hPa 0,0 l/m 11,5 km/h SW 217 0 min 0,000 mm 0,0 UV-I 11 W/m 2,8 C -0,3 C 21,0 km/h 91,67 %
26.01.2021 08:46 3,8 C 93 % 1014,0 hPa 0,0 l/m 9,9 km/h W-SW 254 0 min 0,000 mm 0,0 UV-I 11 W/m 2,8 C 0,8 C 17,2 km/h 100,00 %
26.01.2021 08:45 3,8 C 93 % 1014,0 hPa 0,0 l/m 12,9 km/h W-SW 254 0 min 0,000 mm 0,0 UV-I 10 W/m 2,8 C -1,2 C 19,1 km/h 96,30 %
26.01.2021 08:44 3,8 C 93 % 1014,0 hPa 0,0 l/m 18,3 km/h SW 219 0 min 0,000 mm 0,0 UV-I 9 W/m 2,8 C -4,0 C 30,6 km/h 96,15 %
26.01.2021 08:43 3,8 C 93 % 1014,0 hPa 0,0 l/m 11,0 km/h S-SW 209 0 min 0,000 mm 0,0 UV-I 7 W/m 2,8 C 0,0 C 19,1 km/h 100,00 %
26.01.2021 08:42 3,8 C 93 % 1013,9 hPa 0,0 l/m 10,6 km/h SW 229 0 min 0,000 mm 0,0 UV-I 7 W/m 2,8 C 0,3 C 15,3 km/h 100,00 %
26.01.2021 08:41 3,8 C 93 % 1013,9 hPa 0,0 l/m 15,9 km/h SW 232 0 min 0,000 mm 0,0 UV-I 7 W/m 2,8 C -2,8 C 34,4 km/h 95,83 %
26.01.2021 08:40 3,8 C 93 % 1013,9 hPa 0,0 l/m 14,8 km/h SW 227 0 min 0,000 mm 0,0 UV-I 7 W/m 2,8 C -2,3 C 26,8 km/h 96,15 %
26.01.2021 08:39 3,7 C 93 % 1013,8 hPa 0,0 l/m 10,7 km/h SW 230 0 min 0,000 mm 0,0 UV-I 6 W/m 2,7 C 0,1 C 24,9 km/h 100,00 %
26.01.2021 08:38 3,7 C 93 % 1013,8 hPa 0,0 l/m 10,9 km/h SW 219 0 min 0,000 mm 0,0 UV-I 5 W/m 2,7 C -0,0 C 15,3 km/h 95,65 %
26.01.2021 08:37 3,7 C 93 % 1013,7 hPa 0,0 l/m 10,9 km/h W-SW 238 0 min 0,000 mm 0,0 UV-I 5 W/m 2,7 C -0,0 C 19,1 km/h 100,00 %
26.01.2021 08:36 3,7 C 93 % 1013,7 hPa 0,0 l/m 6,1 km/h SW 224 0 min 0,000 mm 0,0 UV-I 5 W/m 2,7 C 3,7 C 11,5 km/h 100,00 %
26.01.2021 08:35 3,7 C 93 % 1013,7 hPa 0,0 l/m 12,2 km/h W-SW 244 0 min 0,000 mm 0,0 UV-I 5 W/m 2,7 C -0,9 C 21,0 km/h 100,00 %
26.01.2021 08:34 3,7 C 93 % 1013,7 hPa 0,0 l/m 12,8 km/h W 275 0 min 0,000 mm 0,0 UV-I 7 W/m 2,7 C -1,2 C 23,0 km/h 100,00 %
26.01.2021 08:33 3,7 C 93 % 1013,6 hPa 0,0 l/m 16,8 km/h SW 233 0 min 0,000 mm 0,0 UV-I 7 W/m 2,7 C -3,4 C 23,0 km/h 100,00 %
26.01.2021 08:32 3,7 C 93 % 1013,6 hPa 0,0 l/m 7,3 km/h SW 226 0 min 0,000 mm 0,0 UV-I 7 W/m 2,7 C 2,9 C 9,6 km/h 100,00 %
26.01.2021 08:31 3,7 C 93 % 1013,6 hPa 0,0 l/m 11,1 km/h SW 217 0 min 0,000 mm 0,0 UV-I 7 W/m 2,7 C -0,1 C 17,2 km/h 88,46 %
26.01.2021 08:30 3,7 C 93 % 1013,6 hPa 0,0 l/m 10,7 km/h S 172 0 min 0,000 mm 0,0 UV-I 5 W/m 2,7 C 0,1 C 15,3 km/h 95,83 %
26.01.2021 08:29 3,7 C 93 % 1013,6 hPa 0,0 l/m 7,1 km/h W-SW 246 0 min 0,000 mm 0,0 UV-I 5 W/m 2,7 C 3,1 C 13,4 km/h 100,00 %
26.01.2021 08:28 3,7 C 93 % 1013,6 hPa 0,0 l/m 13,0 km/h SW 223 0 min 0,000 mm 0,0 UV-I 5 W/m 2,7 C -1,4 C 23,0 km/h 96,30 %
26.01.2021 08:27 3,7 C 93 % 1013,5 hPa 0,0 l/m 12,6 km/h SW 234 0 min 0,000 mm 0,0 UV-I 3 W/m 2,7 C -1,1 C 19,1 km/h 100,00 %
26.01.2021 08:26 3,7 C 93 % 1013,5 hPa 0,0 l/m 14,0 km/h W-SW 237 0 min 0,000 mm 0,0 UV-I 0 W/m 2,7 C -1,9 C 23,0 km/h 100,00 %
26.01.2021 08:25 3,7 C 93 % 1013,5 hPa 0,0 l/m 11,7 km/h SW 228 0 min 0,000 mm 0,0 UV-I 0 W/m 2,7 C -0,5 C 19,1 km/h 95,83 %
26.01.2021 08:24 3,7 C 93 % 1013,5 hPa 0,0 l/m 12,3 km/h S-SW 210 0 min 0,000 mm 0,0 UV-I 0 W/m 2,7 C -0,9 C 26,8 km/h 100,00 %
26.01.2021 08:23 3,7 C 93 % 1013,4 hPa 0,0 l/m 8,9 km/h S-SW 209 0 min 0,000 mm 0,0 UV-I 0 W/m 2,7 C 1,5 C 13,4 km/h 100,00 %
26.01.2021 08:22 3,7 C 93 % 1013,5 hPa 0,0 l/m 11,7 km/h SW 215 0 min 0,000 mm 0,0 UV-I 0 W/m 2,7 C -0,5 C 19,1 km/h 96,30 %
26.01.2021 08:21 3,7 C 93 % 1013,5 hPa 0,0 l/m 6,2 km/h S-SW 211 0 min 0,000 mm 0,0 UV-I 0 W/m 2,7 C 3,7 C 11,5 km/h 100,00 %
26.01.2021 08:20 3,7 C 93 % 1013,4 hPa 0,0 l/m 5,9 km/h SW 227 0 min 0,000 mm 0,0 UV-I 0 W/m 2,7 C 3,7 C 11,5 km/h 100,00 %
26.01.2021 08:19 3,7 C 93 % 1013,4 hPa 0,0 l/m 9,8 km/h SW 217 0 min 0,000 mm 0,0 UV-I 0 W/m 2,7 C 0,8 C 17,2 km/h 100,00 %
26.01.2021 08:18 3,7 C 93 % 1013,4 hPa 0,0 l/m 6,9 km/h SW 233 0 min 0,000 mm 0,0 UV-I 0 W/m 2,7 C 3,2 C 11,5 km/h 96,43 %
26.01.2021 08:17 3,7 C 93 % 1013,5 hPa 0,0 l/m 8,8 km/h W-SW 257 0 min 0,000 mm 0,0 UV-I 0 W/m 2,7 C 1,6 C 15,3 km/h 100,00 %
26.01.2021 08:16 3,7 C 93 % 1013,5 hPa 0,0 l/m 12,2 km/h W-SW 239 0 min 0,000 mm 0,0 UV-I 0 W/m 2,7 C -0,9 C 19,1 km/h 95,65 %
26.01.2021 08:15 3,7 C 93 % 1013,4 hPa 0,0 l/m 13,0 km/h S-SW 197 0 min 0,000 mm 0,0 UV-I 0 W/m 2,7 C -1,4 C 21,0 km/h 100,00 %
26.01.2021 08:14 3,7 C 93 % 1013,4 hPa 0,0 l/m 7,4 km/h SW 215 0 min 0,000 mm 0,0 UV-I 0 W/m 2,7 C 2,8 C 11,5 km/h 100,00 %
26.01.2021 08:13 3,7 C 93 % 1013,4 hPa 0,0 l/m 7,5 km/h SW 236 0 min 0,000 mm 0,0 UV-I 0 W/m 2,7 C 2,7 C 17,2 km/h 92,59 %
26.01.2021 08:12 3,7 C 93 % 1013,4 hPa 0,0 l/m 14,2 km/h SW 223 0 min 0,000 mm 0,0 UV-I 0 W/m 2,7 C -2,1 C 21,0 km/h 100,00 %
26.01.2021 08:11 3,7 C 93 % 1013,3 hPa 0,0 l/m 10,8 km/h W-SW 238 0 min 0,000 mm 0,0 UV-I 0 W/m 2,7 C 0,1 C 15,3 km/h 100,00 %
26.01.2021 08:10 3,7 C 92 % 1013,4 hPa 0,0 l/m 11,0 km/h SW 231 0 min 0,000 mm 0,0 UV-I 0 W/m 2,5 C -0,1 C 19,1 km/h 100,00 %
26.01.2021 08:09 3,7 C 92 % 1013,4 hPa 0,0 l/m 6,7 km/h SW 233 0 min 0,000 mm 0,0 UV-I 0 W/m 2,5 C 3,4 C 13,4 km/h 100,00 %
26.01.2021 08:08 3,6 C 92 % 1013,4 hPa 0,0 l/m 12,8 km/h SW 234 0 min 0,000 mm 0,0 UV-I 0 W/m 2,4 C -1,4 C 19,1 km/h 100,00 %
26.01.2021 08:07 3,6 C 92 % 1013,3 hPa 0,0 l/m 10,1 km/h SW 218 0 min 0,000 mm 0,0 UV-I 0 W/m 2,4 C 0,5 C 15,3 km/h 93,33 %
26.01.2021 08:06 3,6 C 92 % 1013,3 hPa 0,0 l/m 12,0 km/h SW 221 0 min 0,000 mm 0,0 UV-I 0 W/m 2,4 C -0,9 C 23,0 km/h 100,00 %
26.01.2021 08:05 3,6 C 92 % 1013,3 hPa 0,0 l/m 15,6 km/h S-SW 194 0 min 0,000 mm 0,0 UV-I 0 W/m 2,4 C -2,9 C 24,9 km/h 100,00 %
26.01.2021 08:04 3,6 C 92 % 1013,3 hPa 0,0 l/m 5,9 km/h S-SW 202 0 min 0,000 mm 0,0 UV-I 0 W/m 2,4 C 3,6 C 9,6 km/h 92,86 %
26.01.2021 08:03 3,6 C 92 % 1013,2 hPa 0,0 l/m 7,2 km/h SW 215 0 min 0,000 mm 0,0 UV-I 0 W/m 2,4 C 2,9 C 19,1 km/h 100,00 %
26.01.2021 08:02 3,7 C 92 % 1013,3 hPa 0,0 l/m 8,8 km/h SW 217 0 min 0,000 mm 0,0 UV-I 0 W/m 2,5 C 1,6 C 11,5 km/h 100,00 %
26.01.2021 08:01 3,7 C 92 % 1013,2 hPa 0,0 l/m 13,1 km/h S-SW 207 0 min 0,000 mm 0,0 UV-I 0 W/m 2,5 C -1,4 C 21,0 km/h 100,00 %
26.01.2021 08:00 3,7 C 92 % 1013,1 hPa 0,0 l/m 7,1 km/h W-SW 251 0 min 0,000 mm 0,0 UV-I 0 W/m 2,5 C 3,1 C 11,5 km/h 100,00 %
26.01.2021 07:59 3,7 C 92 % 1013,1 hPa 0,0 l/m 9,9 km/h SW 228 0 min 0,000 mm 0,0 UV-I 0 W/m 2,5 C 0,7 C 19,1 km/h 100,00 %
26.01.2021 07:58 3,7 C 92 % 1013,1 hPa 0,0 l/m 11,3 km/h W-SW 242 0 min 0,000 mm 0,0 UV-I 0 W/m 2,5 C -0,3 C 19,1 km/h 100,00 %
26.01.2021 07:57 3,7 C 92 % 1013,1 hPa 0,0 l/m 14,2 km/h W-SW 243 0 min 0,000 mm 0,0 UV-I 0 W/m 2,5 C -2,1 C 23,0 km/h 100,00 %
26.01.2021 07:56 3,7 C 92 % 1013,1 hPa 0,0 l/m 8,6 km/h W-SW 246 0 min 0,000 mm 0,0 UV-I 0 W/m 2,5 C 1,7 C 15,3 km/h 100,00 %
26.01.2021 07:55 3,8 C 92 % 1013,1 hPa 0,0 l/m 7,2 km/h SW 225 0 min 0,000 mm 0,0 UV-I 0 W/m 2,6 C 3,1 C 13,4 km/h 96,30 %
26.01.2021 07:54 3,8 C 92 % 1013,1 hPa 0,0 l/m 14,6 km/h W-SW 258 0 min 0,000 mm 0,0 UV-I 0 W/m 2,6 C -2,2 C 23,0 km/h 100,00 %
26.01.2021 07:53 3,8 C 92 % 1013,1 hPa 0,0 l/m 13,3 km/h W-SW 252 0 min 0,000 mm 0,0 UV-I 0 W/m 2,6 C -1,4 C 19,1 km/h 100,00 %
26.01.2021 07:52 3,8 C 92 % 1013,1 hPa 0,0 l/m 9,5 km/h SW 221 0 min 0,000 mm 0,0 UV-I 0 W/m 2,6 C 1,1 C 13,4 km/h 100,00 %
26.01.2021 07:51 3,8 C 92 % 1013,1 hPa 0,0 l/m 6,3 km/h W-SW 246 0 min 0,000 mm 0,0 UV-I 0 W/m 2,6 C 3,8 C 13,4 km/h 100,00 %
26.01.2021 07:50 3,8 C 92 % 1013,1 hPa 0,0 l/m 5,9 km/h SW 225 0 min 0,000 mm 0,0 UV-I 0 W/m 2,6 C 3,8 C 9,6 km/h 96,67 %
26.01.2021 07:49 3,8 C 92 % 1013,1 hPa 0,0 l/m 7,3 km/h S-SW 211 0 min 0,000 mm 0,0 UV-I 0 W/m 2,6 C 3,0 C 15,3 km/h 100,00 %
26.01.2021 07:48 3,8 C 92 % 1013,0 hPa 0,0 l/m 6,6 km/h SW 214 0 min 0,000 mm 0,0 UV-I 0 W/m 2,6 C 3,6 C 9,6 km/h 100,00 %
26.01.2021 07:47 3,9 C 92 % 1013,0 hPa 0,0 l/m 7,9 km/h SW 229 0 min 0,000 mm 0,0 UV-I 0 W/m 2,7 C 2,5 C 9,6 km/h 100,00 %
26.01.2021 07:46 3,9 C 92 % 1013,1 hPa 0,0 l/m 6,7 km/h SW 221 0 min 0,000 mm 0,0 UV-I 0 W/m 2,7 C 3,6 C 15,3 km/h 93,33 %
26.01.2021 07:45 3,9 C 92 % 1013,0 hPa 0,0 l/m 5,1 km/h W-SW 254 0 min 0,000 mm 0,0 UV-I 0 W/m 2,7 C 3,9 C 9,6 km/h 100,00 %
26.01.2021 07:44 3,9 C 92 % 1013,0 hPa 0,0 l/m 6,7 km/h SW 230 0 min 0,000 mm 0,0 UV-I 0 W/m 2,7 C 3,6 C 15,3 km/h 91,67 %
26.01.2021 07:43 3,9 C 92 % 1013,0 hPa 0,0 l/m 9,2 km/h S-SW 200 0 min 0,000 mm 0,0 UV-I 0 W/m 2,7 C 1,5 C 24,9 km/h 100,00 %
26.01.2021 07:42 3,9 C 92 % 1012,9 hPa 0,0 l/m 10,6 km/h W-SW 243 0 min 0,000 mm 0,0 UV-I 0 W/m 2,7 C 0,4 C 17,2 km/h 100,00 %
26.01.2021 07:41 3,9 C 92 % 1012,9 hPa 0,0 l/m 8,9 km/h SW 221 0 min 0,000 mm 0,0 UV-I 0 W/m 2,7 C 1,7 C 15,3 km/h 100,00 %
26.01.2021 07:40 3,9 C 92 % 1012,9 hPa 0,0 l/m 4,3 km/h SW 222 0 min 0,000 mm 0,0 UV-I 0 W/m 2,7 C 3,9 C 11,5 km/h 100,00 %
26.01.2021 07:39 3,9 C 92 % 1012,9 hPa 0,0 l/m 8,1 km/h SW 229 0 min 0,000 mm 0,0 UV-I 0 W/m 2,7 C 2,4 C 13,4 km/h 100,00 %
26.01.2021 07:38 3,9 C 92 % 1012,9 hPa 0,0 l/m 13,2 km/h S-SW 194 0 min 0,000 mm 0,0 UV-I 0 W/m 2,7 C -1,2 C 19,1 km/h 100,00 %
26.01.2021 07:37 3,9 C 92 % 1012,8 hPa 0,0 l/m 12,3 km/h S-SW 203 0 min 0,000 mm 0,0 UV-I 0 W/m 2,7 C -0,7 C 19,1 km/h 96,15 %
26.01.2021 07:36 3,9 C 92 % 1012,8 hPa 0,0 l/m 6,9 km/h W-SW 239 0 min 0,000 mm 0,0 UV-I 0 W/m 2,7 C 3,4 C 15,3 km/h 100,00 %
26.01.2021 07:35 3,9 C 92 % 1012,8 hPa 0,0 l/m 4,6 km/h SW 217 0 min 0,000 mm 0,0 UV-I 0 W/m 2,7 C 3,9 C 9,6 km/h 100,00 %
26.01.2021 07:34 3,9 C 92 % 1012,7 hPa 0,0 l/m 10,2 km/h SW 217 0 min 0,000 mm 0,0 UV-I 0 W/m 2,7 C 0,7 C 17,2 km/h 100,00 %
26.01.2021 07:33 4,0 C 92 % 1012,7 hPa 0,0 l/m 8,4 km/h SW 223 0 min 0,000 mm 0,0 UV-I 0 W/m 2,8 C 2,2 C 17,2 km/h 100,00 %
26.01.2021 07:32 4,0 C 92 % 1012,7 hPa 0,0 l/m 6,8 km/h W-SW 242 0 min 0,000 mm 0,0 UV-I 0 W/m 2,8 C 3,6 C 15,3 km/h 100,00 %
26.01.2021 07:31 4,0 C 92 % 1012,7 hPa 0,0 l/m 9,0 km/h W-NW 288 0 min 0,000 mm 0,0 UV-I 0 W/m 2,8 C 1,7 C 17,2 km/h 100,00 %
26.01.2021 07:30 4,0 C 92 % 1012,7 hPa 0,0 l/m 11,0 km/h SW 215 0 min 0,000 mm 0,0 UV-I 0 W/m 2,8 C 0,3 C 26,8 km/h 100,00 %
26.01.2021 07:29 4,0 C 92 % 1012,6 hPa 0,0 l/m 16,7 km/h SW 235 0 min 0,000 mm 0,0 UV-I 0 W/m 2,8 C -3,0 C 26,8 km/h 100,00 %
26.01.2021 07:28 4,0 C 92 % 1012,6 hPa 0,0 l/m 7,8 km/h SW 231 0 min 0,000 mm 0,0 UV-I 0 W/m 2,8 C 2,7 C 15,3 km/h 100,00 %
26.01.2021 07:27 4,0 C 92 % 1012,6 hPa 0,0 l/m 6,8 km/h SW 221 0 min 0,000 mm 0,0 UV-I 0 W/m 2,8 C 3,6 C 17,2 km/h 100,00 %
26.01.2021 07:26 4,0 C 92 % 1012,6 hPa 0,0 l/m 9,5 km/h W-SW 238 0 min 0,000 mm 0,0 UV-I 0 W/m 2,8 C 1,3 C 19,1 km/h 100,00 %
26.01.2021 07:25 4,0 C 93 % 1012,6 hPa 0,0 l/m 11,0 km/h W-SW 241 0 min 0,000 mm 0,0 UV-I 0 W/m 3,0 C 0,3 C 21,0 km/h 100,00 %
26.01.2021 07:24 4,0 C 93 % 1012,6 hPa 0,0 l/m 14,0 km/h SW 217 0 min 0,000 mm 0,0 UV-I 0 W/m 3,0 C -1,6 C 23,0 km/h 100,00 %
26.01.2021 07:23 3,9 C 93 % 1012,6 hPa 0,0 l/m 12,0 km/h SW 231 0 min 0,000 mm 0,0 UV-I 0 W/m 2,9 C -0,5 C 23,0 km/h 100,00 %
26.01.2021 07:22 3,9 C 92 % 1012,6 hPa 0,0 l/m 12,0 km/h W-SW 252 0 min 0,000 mm 0,0 UV-I 0 W/m 2,7 C -0,5 C 23,0 km/h 100,00 %
26.01.2021 07:21 3,9 C 93 % 1012,6 hPa 0,0 l/m 10,1 km/h W-SW 244 0 min 0,000 mm 0,0 UV-I 0 W/m 2,9 C 0,8 C 17,2 km/h 99,38 %
26.01.2021 07:20 3,9 C 93 % 1012,6 hPa 0,0 l/m 17,3 km/h SW 216 0 min 0,000 mm 0,0 UV-I 0 W/m 2,9 C -3,4 C 28,7 km/h 100,00 %
26.01.2021 07:19 3,9 C 93 % 1012,5 hPa 0,0 l/m 20,1 km/h W-SW 247 0 min 0,000 mm 0,0 UV-I 0 W/m 2,9 C -4,6 C 32,5 km/h 100,00 %
26.01.2021 07:18 3,9 C 93 % 1012,5 hPa 0,0 l/m 21,2 km/h SW 236 0 min 0,000 mm 0,0 UV-I 0 W/m 2,9 C -5,1 C 32,5 km/h 96,88 %
26.01.2021 07:17 3,9 C 93 % 1012,5 hPa 0,0 l/m 14,6 km/h SW 214 0 min 0,000 mm 0,0 UV-I 0 W/m 2,9 C -2,0 C 32,5 km/h 100,00 %
26.01.2021 07:16 3,8 C 93 % 1012,5 hPa 0,0 l/m 15,1 km/h W-SW 252 0 min 0,000 mm 0,0 UV-I 0 W/m 2,8 C -2,4 C 23,0 km/h 100,00 %
26.01.2021 07:15 3,8 C 93 % 1012,5 hPa 0,0 l/m 13,1 km/h W 277 0 min 0,000 mm 0,0 UV-I 0 W/m 2,8 C -1,3 C 24,9 km/h 91,67 %
26.01.2021 07:14 3,8 C 93 % 1012,4 hPa 0,0 l/m 12,6 km/h SW 217 0 min 0,000 mm 0,0 UV-I 0 W/m 2,8 C -1,0 C 23,0 km/h 100,00 %
26.01.2021 07:13 3,8 C 93 % 1012,5 hPa 0,0 l/m 12,1 km/h SW 215 0 min 0,000 mm 0,0 UV-I 0 W/m 2,8 C -0,7 C 24,9 km/h 100,00 %
26.01.2021 07:12 3,8 C 93 % 1012,4 hPa 0,0 l/m 8,9 km/h SW 236 0 min 0,000 mm 0,0 UV-I 0 W/m 2,8 C 1,6 C 11,5 km/h 100,00 %
26.01.2021 07:11 3,8 C 93 % 1012,4 hPa 0,0 l/m 11,1 km/h S-SW 210 0 min 0,000 mm 0,0 UV-I 0 W/m 2,8 C -0,0 C 17,2 km/h 100,00 %
26.01.2021 07:10 3,8 C 93 % 1012,4 hPa 0,0 l/m 10,7 km/h W-SW 252 0 min 0,000 mm 0,0 UV-I 0 W/m 2,8 C 0,2 C 17,2 km/h 100,00 %
26.01.2021 07:09 3,8 C 93 % 1012,5 hPa 0,0 l/m 8,6 km/h S-SW 207 0 min 0,000 mm 0,0 UV-I 0 W/m 2,8 C 1,8 C 11,5 km/h 100,00 %
26.01.2021 07:08 3,8 C 93 % 1012,4 hPa 0,0 l/m 11,9 km/h SW 218 0 min 0,000 mm 0,0 UV-I 0 W/m 2,8 C -0,6 C 21,0 km/h 100,00 %
26.01.2021 07:07 3,8 C 93 % 1012,4 hPa 0,0 l/m 11,5 km/h SW 220 0 min 0,000 mm 0,0 UV-I 0 W/m 2,8 C -0,3 C 15,3 km/h 100,00 %
26.01.2021 07:06 3,8 C 93 % 1012,3 hPa 0,0 l/m 12,9 km/h SW 217 0 min 0,000 mm 0,0 UV-I 0 W/m 2,8 C -1,2 C 17,2 km/h 100,00 %
26.01.2021 07:05 3,8 C 93 % 1012,3 hPa 0,0 l/m 15,7 km/h S-SW 211 0 min 0,000 mm 0,0 UV-I 0 W/m 2,8 C -2,7 C 26,8 km/h 96,55 %
26.01.2021 07:04 3,8 C 93 % 1012,3 hPa 0,0 l/m 11,7 km/h SW 234 0 min 0,000 mm 0,0 UV-I 0 W/m 2,8 C -0,4 C 24,9 km/h 100,00 %
26.01.2021 07:03 3,8 C 93 % 1012,4 hPa 0,0 l/m 11,0 km/h SW 229 0 min 0,000 mm 0,0 UV-I 0 W/m 2,8 C 0,0 C 19,1 km/h 92,86 %
26.01.2021 07:02 3,8 C 93 % 1012,3 hPa 0,0 l/m 15,2 km/h S-SW 211 0 min 0,000 mm 0,0 UV-I 0 W/m 2,8 C -2,5 C 30,6 km/h 100,00 %
26.01.2021 07:01 3,8 C 93 % 1012,3 hPa 0,0 l/m 12,0 km/h SW 232 0 min 0,000 mm 0,0 UV-I 0 W/m 2,8 C -0,6 C 24,9 km/h 100,00 %
26.01.2021 07:00 3,8 C 93 % 1012,4 hPa 0,0 l/m 12,2 km/h SW 223 0 min 0,000 mm 0,0 UV-I 0 W/m 2,8 C -0,8 C 17,2 km/h 100,00 %
26.01.2021 06:59 3,8 C 93 % 1012,3 hPa 0,0 l/m 7,7 km/h SW 223 0 min 0,000 mm 0,0 UV-I 0 W/m 2,8 C 2,6 C 11,5 km/h 100,00 %
26.01.2021 06:58 3,8 C 93 % 1012,3 hPa 0,0 l/m 10,2 km/h SW 220 0 min 0,000 mm 0,0 UV-I 0 W/m 2,8 C 0,6 C 24,9 km/h 100,00 %
26.01.2021 06:57 3,8 C 93 % 1012,3 hPa 0,0 l/m 8,3 km/h SW 220 0 min 0,000 mm 0,0 UV-I 0 W/m 2,8 C 2,1 C 13,4 km/h 100,00 %
26.01.2021 06:56 3,8 C 93 % 1012,3 hPa 0,0 l/m 10,5 km/h W-SW 238 0 min 0,000 mm 0,0 UV-I 0 W/m 2,8 C 0,4 C 19,1 km/h 100,00 %
26.01.2021 06:55 3,8 C 93 % 1012,3 hPa 0,0 l/m 10,6 km/h W 259 0 min 0,000 mm 0,0 UV-I 0 W/m 2,8 C 0,3 C 15,3 km/h 96,00 %
26.01.2021 06:54 3,8 C 93 % 1012,3 hPa 0,0 l/m 12,0 km/h W-SW 248 0 min 0,000 mm 0,0 UV-I 0 W/m 2,8 C -0,6 C 23,0 km/h 100,00 %
26.01.2021 06:53 3,8 C 93 % 1012,3 hPa 0,0 l/m 13,1 km/h W 266 0 min 0,000 mm 0,0 UV-I 0 W/m 2,8 C -1,3 C 17,2 km/h 100,00 %
26.01.2021 06:52 3,8 C 93 % 1012,3 hPa 0,0 l/m 10,5 km/h W-SW 256 0 min 0,000 mm 0,0 UV-I 0 W/m 2,8 C 0,4 C 19,1 km/h 100,00 %
26.01.2021 06:51 3,8 C 93 % 1012,1 hPa 0,0 l/m 12,2 km/h SW 217 0 min 0,000 mm 0,0 UV-I 0 W/m 2,8 C -0,8 C 21,0 km/h 100,00 %
26.01.2021 06:50 3,8 C 93 % 1012,2 hPa 0,0 l/m 10,0 km/h W 278 0 min 0,000 mm 0,0 UV-I 0 W/m 2,8 C 0,7 C 24,9 km/h 100,00 %
26.01.2021 06:49 3,8 C 93 % 1012,2 hPa 0,0 l/m 10,8 km/h SW 224 0 min 0,000 mm 0,0 UV-I 0 W/m 2,8 C 0,2 C 17,2 km/h 99,39 %
26.01.2021 06:48 3,8 C 93 % 1012,2 hPa 0,0 l/m 14,2 km/h SW 219 0 min 0,000 mm 0,0 UV-I 0 W/m 2,8 C -1,9 C 19,1 km/h 100,00 %
26.01.2021 06:47 3,8 C 93 % 1012,0 hPa 0,0 l/m 18,7 km/h W-SW 238 0 min 0,000 mm 0,0 UV-I 0 W/m 2,8 C -4,2 C 32,5 km/h 97,37 %
26.01.2021 06:46 3,8 C 93 % 1012,1 hPa 0,0 l/m 17,9 km/h W-SW 240 0 min 0,000 mm 0,0 UV-I 0 W/m 2,8 C -3,8 C 30,6 km/h 100,00 %
26.01.2021 06:45 3,8 C 93 % 1012,1 hPa 0,0 l/m 11,5 km/h SW 228 0 min 0,000 mm 0,0 UV-I 0 W/m 2,8 C -0,3 C 23,0 km/h 100,00 %
26.01.2021 06:44 3,8 C 93 % 1012,1 hPa 0,0 l/m 13,2 km/h S-SW 202 0 min 0,000 mm 0,0 UV-I 0 W/m 2,8 C -1,4 C 19,1 km/h 100,00 %
26.01.2021 06:43 3,8 C 93 % 1012,1 hPa 0,0 l/m 12,5 km/h SW 219 0 min 0,000 mm 0,0 UV-I 0 W/m 2,8 C -0,9 C 23,0 km/h 100,00 %
26.01.2021 06:42 3,8 C 93 % 1012,1 hPa 0,0 l/m 14,7 km/h SW 222 0 min 0,000 mm 0,0 UV-I 0 W/m 2,8 C -2,2 C 23,0 km/h 100,00 %
26.01.2021 06:41 3,8 C 93 % 1012,1 hPa 0,0 l/m 17,5 km/h W-SW 250 0 min 0,000 mm 0,0 UV-I 0 W/m 2,8 C -3,6 C 34,4 km/h 100,00 %
26.01.2021 06:40 3,8 C 93 % 1012,1 hPa 0,0 l/m 13,1 km/h W-SW 251 0 min 0,000 mm 0,0 UV-I 0 W/m 2,8 C -1,3 C 24,9 km/h 100,00 %
26.01.2021 06:39 3,8 C 93 % 1012,1 hPa 0,0 l/m 9,3 km/h SW 220 0 min 0,000 mm 0,0 UV-I 0 W/m 2,8 C 1,3 C 15,3 km/h 100,00 %
26.01.2021 06:38 3,8 C 93 % 1012,0 hPa 0,0 l/m 15,4 km/h SW 229 0 min 0,000 mm 0,0 UV-I 0 W/m 2,8 C -2,6 C 26,8 km/h 100,00 %
26.01.2021 06:37 3,8 C 93 % 1012,0 hPa 0,0 l/m 15,0 km/h SW 221 0 min 0,000 mm 0,0 UV-I 0 W/m 2,8 C -2,4 C 28,7 km/h 100,00 %
26.01.2021 06:36 3,8 C 93 % 1012,0 hPa 0,0 l/m 12,2 km/h W-SW 246 0 min 0,000 mm 0,0 UV-I 0 W/m 2,8 C -0,8 C 21,0 km/h 100,00 %
26.01.2021 06:35 3,8 C 93 % 1012,0 hPa 0,0 l/m 8,2 km/h SW 219 0 min 0,000 mm 0,0 UV-I 0 W/m 2,8 C 2,2 C 11,5 km/h 100,00 %
26.01.2021 06:34 3,8 C 93 % 1012,0 hPa 0,0 l/m 13,7 km/h S-SW 202 0 min 0,000 mm 0,0 UV-I 0 W/m 2,8 C -1,7 C 19,1 km/h 100,00 %
26.01.2021 06:33 3,8 C 93 % 1012,0 hPa 0,0 l/m 12,0 km/h SW 236 0 min 0,000 mm 0,0 UV-I 0 W/m 2,8 C -0,6 C 21,0 km/h 96,55 %
26.01.2021 06:32 3,7 C 93 % 1011,9 hPa 0,0 l/m 15,5 km/h W-SW 245 0 min 0,000 mm 0,0 UV-I 0 W/m 2,7 C -2,8 C 19,1 km/h 91,67 %
26.01.2021 06:31 3,7 C 93 % 1011,9 hPa 0,0 l/m 12,8 km/h W-SW 245 0 min 0,000 mm 0,0 UV-I 0 W/m 2,7 C -1,2 C 19,1 km/h 100,00 %
26.01.2021 06:30 3,7 C 93 % 1011,8 hPa 0,0 l/m 15,8 km/h S-SW 212 0 min 0,000 mm 0,0 UV-I 0 W/m 2,7 C -2,9 C 26,8 km/h 100,00 %
26.01.2021 06:29 3,7 C 93 % 1011,9 hPa 0,0 l/m 16,9 km/h W-SW 240 0 min 0,000 mm 0,0 UV-I 0 W/m 2,7 C -3,5 C 32,5 km/h 100,00 %
26.01.2021 06:28 3,7 C 93 % 1011,9 hPa 0,0 l/m 17,5 km/h S-SW 207 0 min 0,000 mm 0,0 UV-I 0 W/m 2,7 C -3,8 C 28,7 km/h 100,00 %
26.01.2021 06:27 3,7 C 93 % 1011,8 hPa 0,0 l/m 12,5 km/h S-SW 206 0 min 0,000 mm 0,0 UV-I 0 W/m 2,7 C -1,1 C 21,0 km/h 100,00 %
26.01.2021 06:26 3,7 C 93 % 1011,8 hPa 0,0 l/m 14,4 km/h W-SW 248 0 min 0,000 mm 0,0 UV-I 0 W/m 2,7 C -2,2 C 21,0 km/h 100,00 %
26.01.2021 06:25 3,7 C 93 % 1011,7 hPa 0,0 l/m 16,2 km/h W-SW 245 0 min 0,000 mm 0,0 UV-I 0 W/m 2,7 C -3,1 C 32,5 km/h 95,65 %
26.01.2021 06:24 3,7 C 93 % 1011,7 hPa 0,0 l/m 17,1 km/h SW 235 0 min 0,000 mm 0,0 UV-I 0 W/m 2,7 C -3,6 C 24,9 km/h 100,00 %
26.01.2021 06:23 3,7 C 93 % 1011,8 hPa 0,0 l/m 11,3 km/h W-SW 238 0 min 0,000 mm 0,0 UV-I 0 W/m 2,7 C -0,3 C 24,9 km/h 100,00 %
26.01.2021 06:22 3,7 C 93 % 1011,9 hPa 0,0 l/m 10,7 km/h SW 227 0 min 0,000 mm 0,0 UV-I 0 W/m 2,7 C 0,1 C 17,2 km/h 96,00 %
26.01.2021 06:21 3,7 C 93 % 1011,8 hPa 0,0 l/m 16,3 km/h SW 214 0 min 0,000 mm 0,0 UV-I 0 W/m 2,7 C -3,2 C 24,9 km/h 95,65 %
26.01.2021 06:20 3,7 C 93 % 1011,8 hPa 0,0 l/m 17,6 km/h W-SW 247 0 min 0,000 mm 0,0 UV-I 0 W/m 2,7 C -3,8 C 28,7 km/h 100,00 %
26.01.2021 06:19 3,6 C 94 % 1011,8 hPa 0,0 l/m 14,9 km/h SW 221 0 min 0,000 mm 0,0 UV-I 0 W/m 2,7 C -2,6 C 21,0 km/h 100,00 %
26.01.2021 06:18 3,6 C 94 % 1011,7 hPa 0,0 l/m 13,8 km/h S-SW 197 0 min 0,000 mm 0,0 UV-I 0 W/m 2,7 C -2,0 C 21,0 km/h 100,00 %
26.01.2021 06:17 3,6 C 94 % 1011,7 hPa 0,0 l/m 12,6 km/h SW 216 0 min 0,000 mm 0,0 UV-I 0 W/m 2,7 C -1,2 C 23,0 km/h 100,00 %
26.01.2021 06:16 3,6 C 94 % 1011,7 hPa 0,0 l/m 15,6 km/h S-SW 211 0 min 0,000 mm 0,0 UV-I 0 W/m 2,7 C -2,9 C 21,0 km/h 100,00 %
26.01.2021 06:15 3,6 C 94 % 1011,9 hPa 0,0 l/m 12,3 km/h SW 220 0 min 0,000 mm 0,0 UV-I 0 W/m 2,7 C -1,0 C 19,1 km/h 100,00 %
26.01.2021 06:14 3,6 C 94 % 1011,9 hPa 0,0 l/m 18,4 km/h SW 226 0 min 0,000 mm 0,0 UV-I 0 W/m 2,7 C -4,3 C 28,7 km/h 100,00 %
26.01.2021 06:13 3,6 C 94 % 1011,8 hPa 0,0 l/m 13,0 km/h W-SW 247 0 min 0,000 mm 0,0 UV-I 0 W/m 2,7 C -1,5 C 24,9 km/h 100,00 %
26.01.2021 06:12 3,6 C 94 % 1011,8 hPa 0,0 l/m 10,4 km/h SW 227 0 min 0,000 mm 0,0 UV-I 0 W/m 2,7 C 0,2 C 17,2 km/h 100,00 %
26.01.2021 06:11 3,6 C 94 % 1011,8 hPa 0,0 l/m 10,9 km/h W-SW 242 0 min 0,000 mm 0,0 UV-I 0 W/m 2,7 C -0,1 C 23,0 km/h 100,00 %
26.01.2021 06:10 3,6 C 94 % 1011,7 hPa 0,0 l/m 14,7 km/h SW 220 0 min 0,000 mm 0,0 UV-I 0 W/m 2,7 C -2,5 C 21,0 km/h 100,00 %
26.01.2021 06:09 3,6 C 94 % 1011,7 hPa 0,0 l/m 13,7 km/h S-SW 213 0 min 0,000 mm 0,0 UV-I 0 W/m 2,7 C -1,9 C 21,0 km/h 100,00 %
26.01.2021 06:08 3,5 C 94 % 1011,7 hPa 0,0 l/m 17,5 km/h S-SW 212 0 min 0,000 mm 0,0 UV-I 0 W/m 2,6 C -4,0 C 26,8 km/h 96,30 %
26.01.2021 06:07 3,5 C 94 % 1011,7 hPa 0,0 l/m 17,7 km/h S 181 0 min 0,000 mm 0,0 UV-I 0 W/m 2,6 C -4,1 C 21,0 km/h 100,00 %
26.01.2021 06:06 3,4 C 94 % 1011,7 hPa 0,0 l/m 18,7 km/h SW 229 0 min 0,000 mm 0,0 UV-I 0 W/m 2,5 C -4,7 C 30,6 km/h 100,00 %
26.01.2021 06:05 3,4 C 94 % 1011,6 hPa 0,0 l/m 16,2 km/h SW 233 0 min 0,000 mm 0,0 UV-I 0 W/m 2,5 C -3,5 C 23,0 km/h 100,00 %
26.01.2021 06:04 3,4 C 94 % 1011,6 hPa 0,0 l/m 16,9 km/h W-SW 246 0 min 0,000 mm 0,0 UV-I 0 W/m 2,5 C -3,8 C 28,7 km/h 100,00 %
26.01.2021 06:03 3,4 C 94 % 1011,6 hPa 0,0 l/m 9,9 km/h S-SW 203 0 min 0,000 mm 0,0 UV-I 0 W/m 2,5 C 0,4 C 24,9 km/h 100,00 %
26.01.2021 06:02 3,4 C 94 % 1011,6 hPa 0,0 l/m 10,9 km/h W-SW 250 0 min 0,000 mm 0,0 UV-I 0 W/m 2,5 C -0,3 C 17,2 km/h 100,00 %
26.01.2021 06:01 3,3 C 94 % 1011,6 hPa 0,0 l/m 11,3 km/h SW 215 0 min 0,000 mm 0,0 UV-I 0 W/m 2,4 C -0,7 C 17,2 km/h 100,00 %
26.01.2021 06:00 3,3 C 94 % 1011,6 hPa 0,0 l/m 14,6 km/h SW 229 0 min 0,000 mm 0,0 UV-I 0 W/m 2,4 C -2,8 C 23,0 km/h 100,00 %
26.01.2021 05:59 3,3 C 94 % 1011,6 hPa 0,0 l/m 12,3 km/h SW 217 0 min 0,000 mm 0,0 UV-I 0 W/m 2,4 C -1,4 C 17,2 km/h 100,00 %
26.01.2021 05:58 3,3 C 94 % 1011,6 hPa 0,0 l/m 16,3 km/h W-SW 254 0 min 0,000 mm 0,0 UV-I 0 W/m 2,4 C -3,7 C 24,9 km/h 100,00 %
26.01.2021 05:57 3,3 C 94 % 1011,6 hPa 0,0 l/m 13,4 km/h S-SW 210 0 min 0,000 mm 0,0 UV-I 0 W/m 2,4 C -2,1 C 19,1 km/h 100,00 %
26.01.2021 05:56 3,3 C 94 % 1011,6 hPa 0,0 l/m 13,8 km/h SW 221 0 min 0,000 mm 0,0 UV-I 0 W/m 2,4 C -2,3 C 21,0 km/h 100,00 %
26.01.2021 05:55 3,3 C 94 % 1011,6 hPa 0,0 l/m 14,2 km/h W-SW 238 0 min 0,000 mm 0,0 UV-I 0 W/m 2,4 C -2,5 C 21,0 km/h 100,00 %
26.01.2021 05:54 3,3 C 94 % 1011,6 hPa 0,0 l/m 11,4 km/h SW 219 0 min 0,000 mm 0,0 UV-I 0 W/m 2,4 C -0,8 C 19,1 km/h 100,00 %
26.01.2021 05:53 3,3 C 94 % 1011,6 hPa 0,0 l/m 9,5 km/h SW 228 0 min 0,000 mm 0,0 UV-I 0 W/m 2,4 C 0,6 C 13,4 km/h 100,00 %
26.01.2021 05:52 3,3 C 94 % 1011,6 hPa 0,0 l/m 12,7 km/h W-SW 243 0 min 0,000 mm 0,0 UV-I 0 W/m 2,4 C -1,6 C 21,0 km/h 100,00 %
26.01.2021 05:51 3,3 C 94 % 1011,6 hPa 0,0 l/m 12,3 km/h SW 235 0 min 0,000 mm 0,0 UV-I 0 W/m 2,4 C -1,4 C 23,0 km/h 95,65 %
26.01.2021 05:50 3,3 C 94 % 1011,5 hPa 0,0 l/m 13,4 km/h SW 231 0 min 0,000 mm 0,0 UV-I 0 W/m 2,4 C -2,1 C 21,0 km/h 100,00 %
26.01.2021 05:49 3,3 C 94 % 1011,5 hPa 0,0 l/m 12,2 km/h W-SW 248 0 min 0,000 mm 0,0 UV-I 0 W/m 2,4 C -1,3 C 17,2 km/h 100,00 %
26.01.2021 05:48 3,2 C 94 % 1011,6 hPa 0,0 l/m 13,6 km/h SW 219 0 min 0,000 mm 0,0 UV-I 0 W/m 2,3 C -2,3 C 24,9 km/h 99,36 %
26.01.2021 05:47 3,2 C 94 % 1011,6 hPa 0,0 l/m 10,8 km/h SW 220 0 min 0,000 mm 0,0 UV-I 0 W/m 2,3 C -0,5 C 23,0 km/h 92,31 %
26.01.2021 05:46 3,3 C 94 % 1011,5 hPa 0,0 l/m 13,5 km/h SW 215 0 min 0,000 mm 0,0 UV-I 0 W/m 2,4 C -2,1 C 24,9 km/h 100,00 %
26.01.2021 05:45 3,3 C 94 % 1011,5 hPa 0,0 l/m 10,5 km/h SW 229 0 min 0,000 mm 0,0 UV-I 0 W/m 2,4 C -0,2 C 17,2 km/h 100,00 %
26.01.2021 05:44 3,3 C 94 % 1011,5 hPa 0,0 l/m 10,1 km/h SW 219 0 min 0,000 mm 0,0 UV-I 0 W/m 2,4 C 0,1 C 17,2 km/h 100,00 %
26.01.2021 05:43 3,3 C 94 % 1011,5 hPa 0,0 l/m 13,0 km/h W-SW 238 0 min 0,000 mm 0,0 UV-I 0 W/m 2,4 C -1,8 C 19,1 km/h 93,33 %
26.01.2021 05:42 3,2 C 94 % 1011,5 hPa 0,0 l/m 14,2 km/h SW 215 0 min 0,000 mm 0,0 UV-I 0 W/m 2,3 C -2,7 C 23,0 km/h 100,00 %
26.01.2021 05:41 3,2 C 94 % 1011,5 hPa 0,0 l/m 10,4 km/h SW 226 0 min 0,000 mm 0,0 UV-I 0 W/m 2,3 C -0,2 C 23,0 km/h 100,00 %
26.01.2021 05:40 3,2 C 94 % 1011,4 hPa 0,0 l/m 10,5 km/h W-SW 242 0 min 0,000 mm 0,0 UV-I 0 W/m 2,3 C -0,3 C 24,9 km/h 100,00 %
26.01.2021 05:39 3,2 C 94 % 1011,4 hPa 0,0 l/m 18,4 km/h S-SW 199 0 min 0,000 mm 0,0 UV-I 0 W/m 2,3 C -4,8 C 24,9 km/h 100,00 %
26.01.2021 05:38 3,2 C 94 % 1011,4 hPa 0,0 l/m 17,1 km/h W-SW 242 0 min 0,000 mm 0,0 UV-I 0 W/m 2,3 C -4,2 C 26,8 km/h 100,00 %
26.01.2021 05:37 3,2 C 94 % 1011,4 hPa 0,0 l/m 9,2 km/h W-SW 258 0 min 0,000 mm 0,0 UV-I 0 W/m 2,3 C 0,7 C 15,3 km/h 95,65 %
26.01.2021 05:36 3,2 C 94 % 1011,3 hPa 0,0 l/m 11,1 km/h SW 222 0 min 0,000 mm 0,0 UV-I 0 W/m 2,3 C -0,7 C 19,1 km/h 100,00 %
26.01.2021 05:35 3,2 C 94 % 1011,3 hPa 0,0 l/m 9,4 km/h SW 217 0 min 0,000 mm 0,0 UV-I 0 W/m 2,3 C 0,5 C 15,3 km/h 100,00 %
26.01.2021 05:34 3,2 C 94 % 1011,4 hPa 0,0 l/m 11,3 km/h W-SW 246 0 min 0,000 mm 0,0 UV-I 0 W/m 2,3 C -0,8 C 17,2 km/h 100,00 %
26.01.2021 05:33 3,2 C 94 % 1011,4 hPa 0,0 l/m 13,1 km/h SW 215 0 min 0,000 mm 0,0 UV-I 0 W/m 2,3 C -2,0 C 21,0 km/h 100,00 %
26.01.2021 05:32 3,2 C 94 % 1011,3 hPa 0,0 l/m 13,3 km/h SW 233 0 min 0,000 mm 0,0 UV-I 0 W/m 2,3 C -2,1 C 24,9 km/h 92,86 %
26.01.2021 05:31 3,2 C 94 % 1011,4 hPa 0,0 l/m 14,5 km/h S-SW 197 0 min 0,000 mm 0,0 UV-I 0 W/m 2,3 C -2,8 C 23,0 km/h 100,00 %
26.01.2021 05:30 3,2 C 94 % 1011,3 hPa 0,0 l/m 12,1 km/h W 262 0 min 0,000 mm 0,0 UV-I 0 W/m 2,3 C -1,4 C 17,2 km/h 100,00 %
26.01.2021 05:29 3,2 C 94 % 1011,3 hPa 0,0 l/m 11,0 km/h SW 217 0 min 0,000 mm 0,0 UV-I 0 W/m 2,3 C -0,6 C 19,1 km/h 100,00 %
26.01.2021 05:28 3,2 C 94 % 1011,4 hPa 0,0 l/m 11,6 km/h SW 223 0 min 0,000 mm 0,0 UV-I 0 W/m 2,3 C -1,1 C 19,1 km/h 100,00 %
26.01.2021 05:27 3,2 C 94 % 1011,3 hPa 0,0 l/m 9,9 km/h SW 217 0 min 0,000 mm 0,0 UV-I 0 W/m 2,3 C 0,2 C 17,2 km/h 96,30 %
26.01.2021 05:26 3,2 C 94 % 1011,3 hPa 0,0 l/m 11,7 km/h SW 216 0 min 0,000 mm 0,0 UV-I 0 W/m 2,3 C -1,1 C 21,0 km/h 100,00 %
26.01.2021 05:25 3,2 C 94 % 1011,2 hPa 0,0 l/m 7,2 km/h S-SW 209 0 min 0,000 mm 0,0 UV-I 0 W/m 2,3 C 2,4 C 15,3 km/h 100,00 %
26.01.2021 05:24 3,2 C 94 % 1011,3 hPa 0,0 l/m 14,4 km/h S-SW 211 0 min 0,000 mm 0,0 UV-I 0 W/m 2,3 C -2,8 C 26,8 km/h 100,00 %
26.01.2021 05:23 3,2 C 94 % 1011,2 hPa 0,0 l/m 15,8 km/h SW 225 0 min 0,000 mm 0,0 UV-I 0 W/m 2,3 C -3,5 C 24,9 km/h 100,00 %
26.01.2021 05:22 3,2 C 94 % 1011,2 hPa 0,0 l/m 11,9 km/h W-SW 243 0 min 0,000 mm 0,0 UV-I 0 W/m 2,3 C -1,3 C 17,2 km/h 100,00 %
26.01.2021 05:21 3,2 C 94 % 1011,2 hPa 0,0 l/m 15,0 km/h S-SW 210 0 min 0,000 mm 0,0 UV-I 0 W/m 2,3 C -3,1 C 24,9 km/h 100,00 %
26.01.2021 05:20 3,2 C 94 % 1011,3 hPa 0,0 l/m 13,0 km/h SW 224 0 min 0,000 mm 0,0 UV-I 0 W/m 2,3 C -1,9 C 24,9 km/h 100,00 %
26.01.2021 05:19 3,2 C 94 % 1011,2 hPa 0,0 l/m 11,2 km/h S-SW 207 0 min 0,000 mm 0,0 UV-I 0 W/m 2,3 C -0,8 C 17,2 km/h 100,00 %
26.01.2021 05:18 3,2 C 94 % 1011,2 hPa 0,0 l/m 14,9 km/h SW 217 0 min 0,000 mm 0,0 UV-I 0 W/m 2,3 C -3,0 C 24,9 km/h 100,00 %
26.01.2021 05:17 3,2 C 94 % 1011,2 hPa 0,0 l/m 6,9 km/h SW 234 0 min 0,000 mm 0,0 UV-I 0 W/m 2,3 C 2,7 C 11,5 km/h 95,83 %
26.01.2021 05:16 3,2 C 94 % 1011,2 hPa 0,0 l/m 10,2 km/h S-SW 202 0 min 0,000 mm 0,0 UV-I 0 W/m 2,3 C -0,1 C 17,2 km/h 100,00 %
26.01.2021 05:15 3,2 C 94 % 1011,2 hPa 0,0 l/m 13,0 km/h W-SW 240 0 min 0,000 mm 0,0 UV-I 0 W/m 2,3 C -1,9 C 23,0 km/h 100,00 %
26.01.2021 05:14 3,2 C 94 % 1011,2 hPa 0,0 l/m 9,8 km/h SW 225 0 min 0,000 mm 0,0 UV-I 0 W/m 2,3 C 0,2 C 17,2 km/h 100,00 %
26.01.2021 05:13 3,2 C 94 % 1011,2 hPa 0,0 l/m 11,2 km/h SW 227 0 min 0,000 mm 0,0 UV-I 0 W/m 2,3 C -0,8 C 23,0 km/h 100,00 %
26.01.2021 05:12 3,2 C 94 % 1011,1 hPa 0,0 l/m 12,9 km/h S-SW 202 0 min 0,000 mm 0,0 UV-I 0 W/m 2,3 C -1,9 C 23,0 km/h 100,00 %
26.01.2021 05:11 3,2 C 94 % 1011,2 hPa 0,0 l/m 14,1 km/h S-SW 209 0 min 0,000 mm 0,0 UV-I 0 W/m 2,3 C -2,6 C 19,1 km/h 100,00 %
26.01.2021 05:10 3,1 C 94 % 1011,1 hPa 0,0 l/m 17,9 km/h S-SW 196 0 min 0,000 mm 0,0 UV-I 0 W/m 2,2 C -4,7 C 26,8 km/h 100,00 %
26.01.2021 05:09 3,1 C 94 % 1011,1 hPa 0,0 l/m 12,4 km/h S-SW 203 0 min 0,000 mm 0,0 UV-I 0 W/m 2,2 C -1,7 C 26,8 km/h 100,00 %
26.01.2021 05:08 3,1 C 94 % 1011,1 hPa 0,0 l/m 8,6 km/h SW 221 0 min 0,000 mm 0,0 UV-I 0 W/m 2,2 C 1,1 C 17,2 km/h 100,00 %
26.01.2021 05:07 3,1 C 94 % 1011,1 hPa 0,0 l/m 12,1 km/h S-SW 202 0 min 0,000 mm 0,0 UV-I 0 W/m 2,2 C -1,5 C 19,1 km/h 100,00 %
26.01.2021 05:06 3,1 C 94 % 1011,1 hPa 0,0 l/m 9,2 km/h S-SW 204 0 min 0,000 mm 0,0 UV-I 0 W/m 2,2 C 0,6 C 17,2 km/h 100,00 %
26.01.2021 05:05 3,1 C 94 % 1011,1 hPa 0,0 l/m 8,3 km/h S-SW 205 0 min 0,000 mm 0,0 UV-I 0 W/m 2,2 C 1,3 C 17,2 km/h 97,14 %
26.01.2021 05:04 3,1 C 94 % 1011,0 hPa 0,0 l/m 8,8 km/h S-SW 197 0 min 0,000 mm 0,0 UV-I 0 W/m 2,2 C 0,9 C 15,3 km/h 100,00 %
26.01.2021 05:03 3,1 C 95 % 1011,1 hPa 0,0 l/m 9,2 km/h SW 217 0 min 0,000 mm 0,0 UV-I 0 W/m 2,4 C 0,6 C 15,3 km/h 100,00 %
26.01.2021 05:02 3,1 C 95 % 1011,0 hPa 0,0 l/m 10,5 km/h SW 223 0 min 0,000 mm 0,0 UV-I 0 W/m 2,4 C -0,4 C 15,3 km/h 96,30 %
26.01.2021 05:01 3,1 C 94 % 1011,0 hPa 0,0 l/m 12,7 km/h SW 217 0 min 0,000 mm 0,0 UV-I 0 W/m 2,2 C -1,9 C 19,1 km/h 100,00 %
26.01.2021 05:00 3,1 C 94 % 1011,0 hPa 0,0 l/m 11,5 km/h W-SW 239 0 min 0,000 mm 0,0 UV-I 0 W/m 2,2 C -1,1 C 17,2 km/h 100,00 %
26.01.2021 04:59 3,1 C 94 % 1011,0 hPa 0,0 l/m 10,5 km/h S-SW 207 0 min 0,000 mm 0,0 UV-I 0 W/m 2,2 C -0,4 C 17,2 km/h 95,65 %
26.01.2021 04:58 3,1 C 94 % 1011,0 hPa 0,0 l/m 11,0 km/h SW 223 0 min 0,000 mm 0,0 UV-I 0 W/m 2,2 C -0,8 C 19,1 km/h 100,00 %
26.01.2021 04:57 3,1 C 94 % 1011,0 hPa 0,0 l/m 13,6 km/h SW 232 0 min 0,000 mm 0,0 UV-I 0 W/m 2,2 C -2,4 C 23,0 km/h 100,00 %
26.01.2021 04:56 3,1 C 94 % 1011,0 hPa 0,0 l/m 10,7 km/h SW 229 0 min 0,000 mm 0,0 UV-I 0 W/m 2,2 C -0,5 C 17,2 km/h 100,00 %
26.01.2021 04:55 3,1 C 94 % 1011,0 hPa 0,0 l/m 7,9 km/h SW 234 0 min 0,000 mm 0,0 UV-I 0 W/m 2,2 C 1,7 C 19,1 km/h 100,00 %
26.01.2021 04:54 3,1 C 94 % 1011,0 hPa 0,0 l/m 11,4 km/h SW 225 0 min 0,000 mm 0,0 UV-I 0 W/m 2,2 C -1,0 C 15,3 km/h 100,00 %
26.01.2021 04:53 3,1 C 94 % 1011,0 hPa 0,0 l/m 8,7 km/h S-SW 208 0 min 0,000 mm 0,0 UV-I 0 W/m 2,2 C 1,0 C 17,2 km/h 100,00 %
26.01.2021 04:52 3,1 C 94 % 1010,9 hPa 0,0 l/m 13,6 km/h W 267 0 min 0,000 mm 0,0 UV-I 0 W/m 2,2 C -2,4 C 21,0 km/h 100,00 %
26.01.2021 04:51 3,1 C 94 % 1010,9 hPa 0,0 l/m 10,2 km/h W-SW 254 0 min 0,000 mm 0,0 UV-I 0 W/m 2,2 C -0,2 C 17,2 km/h 100,00 %
26.01.2021 04:50 3,1 C 94 % 1011,0 hPa 0,0 l/m 11,7 km/h SW 224 0 min 0,000 mm 0,0 UV-I 0 W/m 2,2 C -1,2 C 21,0 km/h 95,65 %
26.01.2021 04:49 3,1 C 94 % 1011,0 hPa 0,0 l/m 12,6 km/h S-SW 209 0 min 0,000 mm 0,0 UV-I 0 W/m 2,2 C -1,8 C 28,7 km/h 100,00 %
26.01.2021 04:48 3,1 C 94 % 1011,0 hPa 0,0 l/m 11,3 km/h SW 229 0 min 0,000 mm 0,0 UV-I 0 W/m 2,2 C -1,0 C 23,0 km/h 100,00 %
26.01.2021 04:47 3,1 C 94 % 1011,0 hPa 0,0 l/m 9,5 km/h SW 220 0 min 0,000 mm 0,0 UV-I 0 W/m 2,2 C 0,4 C 21,0 km/h 100,00 %
26.01.2021 04:46 3,1 C 94 % 1010,9 hPa 0,0 l/m 13,0 km/h S-SW 208 0 min 0,000 mm 0,0 UV-I 0 W/m 2,2 C -2,1 C 19,1 km/h 100,00 %
26.01.2021 04:45 3,1 C 94 % 1011,0 hPa 0,0 l/m 8,5 km/h SW 217 0 min 0,000 mm 0,0 UV-I 0 W/m 2,2 C 1,2 C 15,3 km/h 100,00 %
26.01.2021 04:44 3,1 C 94 % 1010,9 hPa 0,0 l/m 14,9 km/h SW 222 0 min 0,000 mm 0,0 UV-I 0 W/m 2,2 C -3,2 C 26,8 km/h 100,00 %
26.01.2021 04:43 3,1 C 95 % 1010,9 hPa 0,0 l/m 12,0 km/h SW 218 0 min 0,000 mm 0,0 UV-I 0 W/m 2,4 C -1,4 C 17,2 km/h 100,00 %
26.01.2021 04:42 3,1 C 94 % 1010,9 hPa 0,0 l/m 9,9 km/h S-SW 205 0 min 0,000 mm 0,0 UV-I 0 W/m 2,2 C 0,0 C 15,3 km/h 100,00 %
26.01.2021 04:41 3,1 C 94 % 1010,9 hPa 0,0 l/m 14,8 km/h S-SW 212 0 min 0,000 mm 0,0 UV-I 0 W/m 2,2 C -3,1 C 23,0 km/h 100,00 %
26.01.2021 04:40 3,1 C 94 % 1010,9 hPa 0,0 l/m 17,3 km/h W-SW 242 0 min 0,000 mm 0,0 UV-I 0 W/m 2,2 C -4,4 C 26,8 km/h 100,00 %
26.01.2021 04:39 3,1 C 94 % 1010,9 hPa 0,0 l/m 13,8 km/h W-SW 252 0 min 0,000 mm 0,0 UV-I 0 W/m 2,2 C -2,5 C 19,1 km/h 92,31 %
26.01.2021 04:38 3,1 C 94 % 1010,8 hPa 0,0 l/m 19,1 km/h W-SW 248 0 min 0,000 mm 0,0 UV-I 0 W/m 2,2 C -5,2 C 28,7 km/h 100,00 %
26.01.2021 04:37 3,1 C 94 % 1010,8 hPa 0,0 l/m 9,3 km/h S-SW 205 0 min 0,000 mm 0,0 UV-I 0 W/m 2,2 C 0,5 C 19,1 km/h 100,00 %
26.01.2021 04:36 3,1 C 94 % 1010,9 hPa 0,0 l/m 10,6 km/h S 184 0 min 0,000 mm 0,0 UV-I 0 W/m 2,2 C -0,5 C 19,1 km/h 100,00 %
26.01.2021 04:35 3,1 C 94 % 1010,8 hPa 0,0 l/m 11,6 km/h S-SW 213 0 min 0,000 mm 0,0 UV-I 0 W/m 2,2 C -1,2 C 17,2 km/h 100,00 %
26.01.2021 04:34 3,1 C 94 % 1010,8 hPa 0,0 l/m 11,1 km/h SW 224 0 min 0,000 mm 0,0 UV-I 0 W/m 2,2 C -0,8 C 19,1 km/h 100,00 %
26.01.2021 04:33 3,1 C 94 % 1010,8 hPa 0,0 l/m 11,3 km/h S-SW 209 0 min 0,000 mm 0,0 UV-I 0 W/m 2,2 C -1,0 C 17,2 km/h 95,65 %
26.01.2021 04:32 3,1 C 95 % 1010,8 hPa 0,0 l/m 9,9 km/h SW 215 0 min 0,000 mm 0,0 UV-I 0 W/m 2,4 C 0,0 C 13,4 km/h 100,00 %
26.01.2021 04:31 3,2 C 94 % 1010,8 hPa 0,0 l/m 6,9 km/h SW 214 0 min 0,000 mm 0,0 UV-I 0 W/m 2,3 C 2,7 C 15,3 km/h 100,00 %
26.01.2021 04:30 3,2 C 95 % 1010,7 hPa 0,0 l/m 9,5 km/h SW 227 0 min 0,000 mm 0,0 UV-I 0 W/m 2,5 C 0,5 C 15,3 km/h 100,00 %
26.01.2021 04:29 3,2 C 95 % 1010,7 hPa 0,0 l/m 11,2 km/h S-SW 200 0 min 0,000 mm 0,0 UV-I 0 W/m 2,5 C -0,8 C 19,1 km/h 100,00 %
26.01.2021 04:28 3,2 C 95 % 1010,7 hPa 0,0 l/m 12,2 km/h SW 215 0 min 0,000 mm 0,0 UV-I 0 W/m 2,5 C -1,4 C 19,1 km/h 100,00 %
26.01.2021 04:27 3,2 C 95 % 1010,8 hPa 0,0 l/m 22,9 km/h SW 233 0 min 0,000 mm 0,0 UV-I 0 W/m 2,5 C -6,6 C 32,5 km/h 100,00 %
26.01.2021 04:26 3,2 C 95 % 1010,7 hPa 0,0 l/m 11,5 km/h W-SW 240 0 min 0,000 mm 0,0 UV-I 0 W/m 2,5 C -1,0 C 19,1 km/h 100,00 %
26.01.2021 04:25 3,2 C 95 % 1010,7 hPa 0,0 l/m 14,5 km/h SW 225 0 min 0,000 mm 0,0 UV-I 0 W/m 2,5 C -2,8 C 24,9 km/h 100,00 %
26.01.2021 04:24 3,2 C 95 % 1010,8 hPa 0,0 l/m 21,5 km/h SW 214 0 min 0,000 mm 0,0 UV-I 0 W/m 2,5 C -6,1 C 36,4 km/h 100,00 %
26.01.2021 04:23 3,3 C 95 % 1010,7 hPa 0,0 l/m 8,5 km/h SW 217 0 min 0,000 mm 0,0 UV-I 0 W/m 2,6 C 1,4 C 13,4 km/h 100,00 %
26.01.2021 04:22 3,3 C 95 % 1010,7 hPa 0,0 l/m 7,9 km/h SW 217 0 min 0,000 mm 0,0 UV-I 0 W/m 2,6 C 1,9 C 11,5 km/h 100,00 %
26.01.2021 04:21 3,3 C 95 % 1010,8 hPa 0,0 l/m 13,7 km/h W-SW 241 0 min 0,000 mm 0,0 UV-I 0 W/m 2,6 C -2,3 C 21,0 km/h 100,00 %
26.01.2021 04:20 3,3 C 95 % 1010,8 hPa 0,0 l/m 12,8 km/h SW 232 0 min 0,000 mm 0,0 UV-I 0 W/m 2,6 C -1,7 C 21,0 km/h 100,00 %
26.01.2021 04:19 3,3 C 95 % 1010,8 hPa 0,0 l/m 5,9 km/h S-SW 213 0 min 0,000 mm 0,0 UV-I 0 W/m 2,6 C 3,3 C 15,3 km/h 96,00 %
26.01.2021 04:18 3,4 C 95 % 1010,8 hPa 0,0 l/m 13,9 km/h W-SW 246 0 min 0,000 mm 0,0 UV-I 0 W/m 2,7 C -2,2 C 23,0 km/h 100,00 %
26.01.2021 04:17 3,4 C 95 % 1010,7 hPa 0,0 l/m 9,0 km/h SW 217 0 min 0,000 mm 0,0 UV-I 0 W/m 2,7 C 1,1 C 15,3 km/h 100,00 %
26.01.2021 04:16 3,4 C 95 % 1010,8 hPa 0,0 l/m 12,0 km/h SW 227 0 min 0,000 mm 0,0 UV-I 0 W/m 2,7 C -1,1 C 19,1 km/h 100,00 %
26.01.2021 04:15 3,4 C 95 % 1010,8 hPa 0,0 l/m 18,4 km/h W-SW 254 0 min 0,000 mm 0,0 UV-I 0 W/m 2,7 C -4,5 C 30,6 km/h 100,00 %
26.01.2021 04:14 3,4 C 95 % 1010,7 hPa 0,0 l/m 16,4 km/h W-SW 251 0 min 0,000 mm 0,0 UV-I 0 W/m 2,7 C -3,6 C 24,9 km/h 100,00 %
26.01.2021 04:13 3,4 C 95 % 1010,7 hPa 0,0 l/m 20,6 km/h S 186 0 min 0,000 mm 0,0 UV-I 0 W/m 2,7 C -5,5 C 34,4 km/h 100,00 %
26.01.2021 04:12 3,4 C 95 % 1010,7 hPa 0,0 l/m 16,2 km/h W-SW 257 0 min 0,000 mm 0,0 UV-I 0 W/m 2,7 C -3,5 C 30,6 km/h 100,00 %
26.01.2021 04:11 3,4 C 95 % 1010,7 hPa 0,0 l/m 14,8 km/h W-SW 248 0 min 0,000 mm 0,0 UV-I 0 W/m 2,7 C -2,8 C 26,8 km/h 100,00 %
26.01.2021 04:10 3,4 C 95 % 1010,7 hPa 0,0 l/m 10,3 km/h S 182 0 min 0,000 mm 0,0 UV-I 0 W/m 2,7 C 0,1 C 17,2 km/h 100,00 %
26.01.2021 04:09 3,4 C 95 % 1010,8 hPa 0,2 l/m 14,4 km/h S-SW 211 0 min 0,000 mm 0,0 UV-I 0 W/m 2,7 C -2,5 C 23,0 km/h 100,00 %
26.01.2021 04:08 3,4 C 95 % 1010,7 hPa 0,0 l/m 11,9 km/h SW 220 0 min 0,000 mm 0,0 UV-I 0 W/m 2,7 C -1,0 C 19,1 km/h 100,00 %
26.01.2021 04:07 3,4 C 95 % 1010,7 hPa 0,0 l/m 10,8 km/h SW 233 0 min 0,000 mm 0,0 UV-I 0 W/m 2,7 C -0,3 C 17,2 km/h 100,00 %
26.01.2021 04:06 3,4 C 95 % 1010,7 hPa 0,0 l/m 8,6 km/h W-SW 250 0 min 0,000 mm 0,0 UV-I 0 W/m 2,7 C 1,4 C 17,2 km/h 100,00 %
26.01.2021 04:05 3,3 C 95 % 1010,6 hPa 0,0 l/m 15,0 km/h SW 233 0 min 0,000 mm 0,0 UV-I 0 W/m 2,6 C -3,0 C 23,0 km/h 100,00 %
26.01.2021 04:04 3,3 C 95 % 1010,7 hPa 0,0 l/m 10,0 km/h W-SW 240 0 min 0,000 mm 0,0 UV-I 0 W/m 2,6 C 0,2 C 19,1 km/h 100,00 %
26.01.2021 04:03 3,3 C 95 % 1010,6 hPa 0,0 l/m 11,7 km/h SW 214 0 min 0,000 mm 0,0 UV-I 0 W/m 2,6 C -1,0 C 21,0 km/h 100,00 %
26.01.2021 04:02 3,3 C 95 % 1010,6 hPa 0,0 l/m 17,2 km/h SW 232 0 min 0,000 mm 0,0 UV-I 0 W/m 2,6 C -4,1 C 28,7 km/h 100,00 %
26.01.2021 04:01 3,3 C 95 % 1010,6 hPa 0,0 l/m 13,4 km/h SW 228 0 min 0,000 mm 0,0 UV-I 0 W/m 2,6 C -2,1 C 19,1 km/h 100,00 %
26.01.2021 04:00 3,3 C 95 % 1010,5 hPa 0,0 l/m 12,9 km/h S-SW 213 0 min 0,000 mm 0,0 UV-I 0 W/m 2,6 C -1,8 C 23,0 km/h 100,00 %
26.01.2021 03:59 3,2 C 95 % 1010,5 hPa 0,0 l/m 9,8 km/h S-SW 199 0 min 0,000 mm 0,0 UV-I 0 W/m 2,5 C 0,2 C 17,2 km/h 100,00 %
26.01.2021 03:58 3,2 C 95 % 1010,5 hPa 0,0 l/m 15,8 km/h SW 216 0 min 0,000 mm 0,0 UV-I 0 W/m 2,5 C -3,5 C 21,0 km/h 100,00 %
26.01.2021 03:57 3,2 C 95 % 1010,5 hPa 0,0 l/m 12,1 km/h SW 235 0 min 0,000 mm 0,0 UV-I 0 W/m 2,5 C -1,4 C 17,2 km/h 96,55 %
26.01.2021 03:56 3,2 C 95 % 1010,4 hPa 0,0 l/m 14,9 km/h W-SW 250 0 min 0,000 mm 0,0 UV-I 0 W/m 2,5 C -3,0 C 23,0 km/h 100,00 %
26.01.2021 03:55 3,2 C 95 % 1010,4 hPa 0,0 l/m 13,8 km/h S-SW 207 0 min 0,000 mm 0,0 UV-I 0 W/m 2,5 C -2,4 C 23,0 km/h 100,00 %
26.01.2021 03:54 3,2 C 95 % 1010,4 hPa 0,0 l/m 10,8 km/h W 260 0 min 0,000 mm 0,0 UV-I 0 W/m 2,5 C -0,5 C 21,0 km/h 100,00 %
26.01.2021 03:53 3,2 C 95 % 1010,4 hPa 0,0 l/m 14,3 km/h SW 219 0 min 0,000 mm 0,0 UV-I 0 W/m 2,5 C -2,7 C 24,9 km/h 100,00 %
26.01.2021 03:52 3,2 C 95 % 1010,4 hPa 0,0 l/m 11,2 km/h SW 226 0 min 0,000 mm 0,0 UV-I 0 W/m 2,5 C -0,8 C 19,1 km/h 100,00 %
26.01.2021 03:51 3,2 C 95 % 1010,4 hPa 0,0 l/m 8,8 km/h S 190 0 min 0,000 mm 0,0 UV-I 0 W/m 2,5 C 1,0 C 15,3 km/h 100,00 %
26.01.2021 03:50 3,2 C 95 % 1010,4 hPa 0,0 l/m 11,9 km/h S-SW 198 0 min 0,000 mm 0,0 UV-I 0 W/m 2,5 C -1,3 C 21,0 km/h 100,00 %
26.01.2021 03:49 3,2 C 95 % 1010,4 hPa 0,0 l/m 9,5 km/h S-SO 167 0 min 0,000 mm 0,0 UV-I 0 W/m 2,5 C 0,5 C 21,0 km/h 100,00 %
26.01.2021 03:48 3,2 C 95 % 1010,4 hPa 0,0 l/m 10,5 km/h S-SW 209 0 min 0,000 mm 0,0 UV-I 0 W/m 2,5 C -0,3 C 17,2 km/h 100,00 %
26.01.2021 03:47 3,2 C 95 % 1010,4 hPa 0,0 l/m 11,3 km/h SW 233 0 min 0,000 mm 0,0 UV-I 0 W/m 2,5 C -0,8 C 17,2 km/h 100,00 %
26.01.2021 03:46 3,2 C 95 % 1010,4 hPa 0,0 l/m 5,8 km/h SW 215 0 min 0,000 mm 0,0 UV-I 0 W/m 2,5 C 3,2 C 13,4 km/h 100,00 %
26.01.2021 03:45 3,2 C 95 % 1010,3 hPa 0,0 l/m 9,6 km/h S-SW 205 0 min 0,000 mm 0,0 UV-I 0 W/m 2,5 C 0,4 C 17,2 km/h 100,00 %
26.01.2021 03:44 3,2 C 95 % 1010,4 hPa 0,0 l/m 12,6 km/h SW 216 0 min 0,000 mm 0,0 UV-I 0 W/m 2,5 C -1,7 C 19,1 km/h 100,00 %
26.01.2021 03:43 3,2 C 95 % 1010,4 hPa 0,0 l/m 14,6 km/h W-SW 240 0 min 0,000 mm 0,0 UV-I 0 W/m 2,5 C -2,9 C 23,0 km/h 100,00 %
26.01.2021 03:42 3,2 C 95 % 1010,3 hPa 0,0 l/m 10,3 km/h SW 223 0 min 0,000 mm 0,0 UV-I 0 W/m 2,5 C -0,1 C 13,4 km/h 100,00 %
26.01.2021 03:41 3,2 C 95 % 1010,2 hPa 0,0 l/m 12,3 km/h SW 228 0 min 0,000 mm 0,0 UV-I 0 W/m 2,5 C -1,5 C 21,0 km/h 96,55 %
26.01.2021 03:40 3,2 C 95 % 1010,3 hPa 0,0 l/m 11,0 km/h SW 216 0 min 0,000 mm 0,0 UV-I 0 W/m 2,5 C -0,6 C 21,0 km/h 100,00 %
26.01.2021 03:39 3,2 C 95 % 1010,3 hPa 0,0 l/m 15,5 km/h S-SW 211 0 min 0,000 mm 0,0 UV-I 0 W/m 2,5 C -3,4 C 24,9 km/h 100,00 %
26.01.2021 03:38 3,2 C 95 % 1010,3 hPa 0,0 l/m 16,6 km/h SW 219 0 min 0,000 mm 0,0 UV-I 0 W/m 2,5 C -3,9 C 24,9 km/h 100,00 %
26.01.2021 03:37 3,2 C 95 % 1010,3 hPa 0,0 l/m 15,8 km/h S-SW 211 0 min 0,000 mm 0,0 UV-I 0 W/m 2,5 C -3,5 C 24,9 km/h 100,00 %
26.01.2021 03:36 3,2 C 95 % 1010,3 hPa 0,0 l/m 9,2 km/h S-SW 213 0 min 0,000 mm 0,0 UV-I 0 W/m 2,5 C 0,7 C 15,3 km/h 100,00 %
26.01.2021 03:35 3,2 C 95 % 1010,3 hPa 0,0 l/m 11,3 km/h SW 229 0 min 0,000 mm 0,0 UV-I 0 W/m 2,5 C -0,8 C 17,2 km/h 100,00 %
26.01.2021 03:34 3,2 C 95 % 1010,3 hPa 0,0 l/m 12,8 km/h SW 227 0 min 0,000 mm 0,0 UV-I 0 W/m 2,5 C -1,8 C 19,1 km/h 96,15 %
26.01.2021 03:33 3,2 C 95 % 1010,3 hPa 0,0 l/m 10,8 km/h SW 226 0 min 0,000 mm 0,0 UV-I 0 W/m 2,5 C -0,5 C 17,2 km/h 100,00 %
26.01.2021 03:32 3,2 C 95 % 1010,4 hPa 0,0 l/m 15,1 km/h SW 223 0 min 0,000 mm 0,0 UV-I 0 W/m 2,5 C -3,2 C 21,0 km/h 100,00 %
26.01.2021 03:31 3,2 C 95 % 1010,3 hPa 0,0 l/m 18,4 km/h SW 225 0 min 0,000 mm 0,0 UV-I 0 W/m 2,5 C -4,8 C 26,8 km/h 100,00 %
26.01.2021 03:30 3,2 C 95 % 1010,4 hPa 0,0 l/m 19,8 km/h SW 226 0 min 0,000 mm 0,0 UV-I 0 W/m 2,5 C -5,4 C 28,7 km/h 100,00 %
26.01.2021 03:29 3,2 C 95 % 1010,3 hPa 0,0 l/m 11,0 km/h SW 227 0 min 0,000 mm 0,0 UV-I 0 W/m 2,5 C -0,6 C 19,1 km/h 100,00 %
26.01.2021 03:28 3,2 C 95 % 1010,2 hPa 0,0 l/m 10,8 km/h SW 217 0 min 0,000 mm 0,0 UV-I 0 W/m 2,5 C -0,5 C 19,1 km/h 100,00 %
26.01.2021 03:27 3,2 C 95 % 1010,3 hPa 0,0 l/m 10,6 km/h S-SW 196 0 min 0,000 mm 0,0 UV-I 0 W/m 2,5 C -0,4 C 15,3 km/h 100,00 %
26.01.2021 03:26 3,2 C 95 % 1010,2 hPa 0,0 l/m 15,0 km/h W-SW 242 0 min 0,000 mm 0,0 UV-I 0 W/m 2,5 C -3,1 C 21,0 km/h 100,00 %
26.01.2021 03:25 3,2 C 95 % 1010,2 hPa 0,0 l/m 9,5 km/h SW 227 0 min 0,000 mm 0,0 UV-I 0 W/m 2,5 C 0,5 C 17,2 km/h 95,83 %
26.01.2021 03:24 3,2 C 95 % 1010,2 hPa 0,0 l/m 10,6 km/h SW 221 0 min 0,000 mm 0,0 UV-I 0 W/m 2,5 C -0,4 C 21,0 km/h 100,00 %
26.01.2021 03:23 3,2 C 95 % 1010,2 hPa 0,0 l/m 8,7 km/h S-SW 205 0 min 0,000 mm 0,0 UV-I 0 W/m 2,5 C 1,1 C 15,3 km/h 100,00 %
26.01.2021 03:22 3,2 C 95 % 1010,2 hPa 0,0 l/m 7,8 km/h SW 217 0 min 0,000 mm 0,0 UV-I 0 W/m 2,5 C 1,9 C 13,4 km/h 100,00 %
26.01.2021 03:21 3,2 C 95 % 1010,2 hPa 0,0 l/m 9,7 km/h SW 217 0 min 0,000 mm 0,0 UV-I 0 W/m 2,5 C 0,3 C 17,2 km/h 100,00 %
26.01.2021 03:20 3,2 C 95 % 1010,2 hPa 0,0 l/m 9,6 km/h S-SW 211 0 min 0,000 mm 0,0 UV-I 0 W/m 2,5 C 0,4 C 17,2 km/h 100,00 %
26.01.2021 03:19 3,2 C 95 % 1010,2 hPa 0,0 l/m 8,3 km/h SW 231 0 min 0,000 mm 0,0 UV-I 0 W/m 2,5 C 1,5 C 13,4 km/h 100,00 %
26.01.2021 03:18 3,2 C 95 % 1010,3 hPa 0,0 l/m 4,2 km/h S-SW 213 0 min 0,000 mm 0,0 UV-I 0 W/m 2,5 C 3,2 C 5,7 km/h 100,00 %
26.01.2021 03:17 3,2 C 95 % 1010,3 hPa 0,0 l/m 7,8 km/h SW 218 0 min 0,000 mm 0,0 UV-I 0 W/m 2,5 C 1,9 C 13,4 km/h 97,93 %
26.01.2021 03:16 3,2 C 95 % 1010,3 hPa 0,0 l/m 13,2 km/h SW 229 0 min 0,000 mm 0,0 UV-I 0 W/m 2,5 C -2,1 C 19,1 km/h 100,00 %
26.01.2021 03:15 3,2 C 95 % 1010,3 hPa 0,0 l/m 14,0 km/h S-SW 204 0 min 0,000 mm 0,0 UV-I 0 W/m 2,5 C -2,5 C 21,0 km/h 100,00 %
26.01.2021 03:14 3,2 C 95 % 1010,2 hPa 0,0 l/m 6,9 km/h SW 224 0 min 0,000 mm 0,0 UV-I 0 W/m 2,5 C 2,7 C 17,2 km/h 95,83 %
26.01.2021 03:13 3,2 C 95 % 1010,2 hPa 0,0 l/m 13,7 km/h W-SW 240 0 min 0,000 mm 0,0 UV-I 0 W/m 2,5 C -2,4 C 23,0 km/h 100,00 %
26.01.2021 03:12 3,2 C 95 % 1010,2 hPa 0,0 l/m 10,2 km/h SW 236 0 min 0,000 mm 0,0 UV-I 0 W/m 2,5 C -0,1 C 21,0 km/h 100,00 %
26.01.2021 03:11 3,1 C 95 % 1010,2 hPa 0,0 l/m 8,2 km/h SW 223 0 min 0,000 mm 0,0 UV-I 0 W/m 2,4 C 1,4 C 13,4 km/h 100,00 %
26.01.2021 03:10 3,1 C 95 % 1010,2 hPa 0,0 l/m 10,4 km/h SW 225 0 min 0,000 mm 0,0 UV-I 0 W/m 2,4 C -0,3 C 19,1 km/h 100,00 %
26.01.2021 03:09 3,1 C 95 % 1010,2 hPa 0,0 l/m 9,5 km/h S-SW 206 0 min 0,000 mm 0,0 UV-I 0 W/m 2,4 C 0,4 C 15,3 km/h 100,00 %
26.01.2021 03:08 3,1 C 95 % 1010,2 hPa 0,0 l/m 7,0 km/h SW 216 0 min 0,000 mm 0,0 UV-I 0 W/m 2,4 C 2,5 C 11,5 km/h 100,00 %
26.01.2021 03:07 3,1 C 95 % 1010,2 hPa 0,0 l/m 12,2 km/h SW 226 0 min 0,000 mm 0,0 UV-I 0 W/m 2,4 C -1,6 C 19,1 km/h 100,00 %
26.01.2021 03:06 3,1 C 95 % 1010,2 hPa 0,0 l/m 8,9 km/h S-SW 209 0 min 0,000 mm 0,0 UV-I 0 W/m 2,4 C 0,8 C 15,3 km/h 100,00 %
26.01.2021 03:05 3,1 C 95 % 1010,2 hPa 0,0 l/m 12,2 km/h SW 214 0 min 0,000 mm 0,0 UV-I 0 W/m 2,4 C -1,6 C 24,9 km/h 100,00 %
26.01.2021 03:04 3,1 C 95 % 1010,1 hPa 0,0 l/m 10,8 km/h SW 216 0 min 0,000 mm 0,0 UV-I 0 W/m 2,4 C -0,6 C 17,2 km/h 100,00 %
26.01.2021 03:03 3,1 C 95 % 1010,1 hPa 0,0 l/m 7,0 km/h S 178 0 min 0,000 mm 0,0 UV-I 0 W/m 2,4 C 2,5 C 13,4 km/h 100,00 %
26.01.2021 03:02 3,1 C 95 % 1010,1 hPa 0,0 l/m 10,0 km/h SW 236 0 min 0,000 mm 0,0 UV-I 0 W/m 2,4 C -0,0 C 15,3 km/h 100,00 %
26.01.2021 03:01 3,1 C 95 % 1010,1 hPa 0,0 l/m 10,0 km/h SW 218 0 min 0,000 mm 0,0 UV-I 0 W/m 2,4 C -0,0 C 15,3 km/h 100,00 %
26.01.2021 03:00 3,1 C 95 % 1010,1 hPa 0,0 l/m 8,5 km/h S-SW 213 0 min 0,000 mm 0,0 UV-I 0 W/m 2,4 C 1,2 C 19,1 km/h 100,00 %
26.01.2021 02:59 3,1 C 95 % 1010,1 hPa 0,0 l/m 8,9 km/h S-SW 204 0 min 0,000 mm 0,0 UV-I 0 W/m 2,4 C 0,8 C 17,2 km/h 100,00 %
26.01.2021 02:58 3,1 C 95 % 1010,1 hPa 0,0 l/m 11,4 km/h S-SW 198 0 min 0,000 mm 0,0 UV-I 0 W/m 2,4 C -1,0 C 21,0 km/h 96,00 %
26.01.2021 02:57 3,1 C 95 % 1010,1 hPa 0,0 l/m 7,7 km/h SW 227 0 min 0,000 mm 0,0 UV-I 0 W/m 2,4 C 1,9 C 13,4 km/h 100,00 %
26.01.2021 02:56 3,1 C 95 % 1010,1 hPa 0,0 l/m 12,6 km/h SW 220 0 min 0,000 mm 0,0 UV-I 0 W/m 2,4 C -1,8 C 19,1 km/h 100,00 %
26.01.2021 02:55 3,1 C 95 % 1010,0 hPa 0,0 l/m 18,0 km/h S 188 0 min 0,000 mm 0,0 UV-I 0 W/m 2,4 C -4,7 C 24,9 km/h 96,67 %
26.01.2021 02:54 3,1 C 95 % 1010,1 hPa 0,0 l/m 8,9 km/h S-SW 198 0 min 0,000 mm 0,0 UV-I 0 W/m 2,4 C 0,8 C 13,4 km/h 100,00 %
26.01.2021 02:53 3,1 C 95 % 1010,1 hPa 0,0 l/m 10,4 km/h S-SW 211 0 min 0,000 mm 0,0 UV-I 0 W/m 2,4 C -0,3 C 21,0 km/h 100,00 %
26.01.2021 02:52 3,0 C 95 % 1010,1 hPa 0,0 l/m 8,8 km/h SW 231 0 min 0,000 mm 0,0 UV-I 0 W/m 2,3 C 0,8 C 15,3 km/h 100,00 %
26.01.2021 02:51 3,1 C 95 % 1010,1 hPa 0,0 l/m 12,2 km/h S-SW 206 0 min 0,000 mm 0,0 UV-I 0 W/m 2,4 C -1,6 C 21,0 km/h 100,00 %
26.01.2021 02:50 3,0 C 95 % 1010,1 hPa 0,0 l/m 12,4 km/h SW 215 0 min 0,000 mm 0,0 UV-I 0 W/m 2,3 C -1,8 C 19,1 km/h 100,00 %
26.01.2021 02:49 3,0 C 95 % 1010,1 hPa 0,0 l/m 12,6 km/h S 179 0 min 0,000 mm 0,0 UV-I 0 W/m 2,3 C -1,9 C 24,9 km/h 100,00 %
26.01.2021 02:48 3,0 C 95 % 1010,1 hPa 0,0 l/m 11,6 km/h SW 233 0 min 0,000 mm 0,0 UV-I 0 W/m 2,3 C -1,3 C 21,0 km/h 95,65 %
26.01.2021 02:47 3,0 C 95 % 1010,0 hPa 0,0 l/m 9,4 km/h SW 215 0 min 0,000 mm 0,0 UV-I 0 W/m 2,3 C 0,3 C 21,0 km/h 100,00 %
26.01.2021 02:46 3,0 C 95 % 1010,0 hPa 0,0 l/m 12,6 km/h S 191 0 min 0,000 mm 0,0 UV-I 0 W/m 2,3 C -1,9 C 21,0 km/h 100,00 %
26.01.2021 02:45 3,0 C 95 % 1010,0 hPa 0,0 l/m 8,8 km/h SW 217 0 min 0,000 mm 0,0 UV-I 0 W/m 2,3 C 0,8 C 15,3 km/h 100,00 %
26.01.2021 02:44 3,1 C 95 % 1009,9 hPa 0,0 l/m 12,0 km/h S 190 0 min 0,000 mm 0,0 UV-I 0 W/m 2,4 C -1,4 C 17,2 km/h 100,00 %
26.01.2021 02:43 3,0 C 95 % 1009,9 hPa 0,0 l/m 12,5 km/h SW 220 0 min 0,000 mm 0,0 UV-I 0 W/m 2,3 C -1,9 C 17,2 km/h 100,00 %
26.01.2021 02:42 3,1 C 95 % 1009,9 hPa 0,0 l/m 12,7 km/h S-SW 202 0 min 0,000 mm 0,0 UV-I 0 W/m 2,4 C -1,9 C 19,1 km/h 95,65 %
26.01.2021 02:41 3,0 C 95 % 1009,9 hPa 0,0 l/m 9,9 km/h S-SW 198 0 min 0,000 mm 0,0 UV-I 0 W/m 2,3 C -0,1 C 17,2 km/h 100,00 %
26.01.2021 02:40 3,1 C 95 % 1010,0 hPa 0,0 l/m 11,1 km/h S-SW 193 0 min 0,000 mm 0,0 UV-I 0 W/m 2,4 C -0,8 C 17,2 km/h 100,00 %
26.01.2021 02:39 3,0 C 95 % 1010,0 hPa 0,0 l/m 16,2 km/h W-SW 238 0 min 0,000 mm 0,0 UV-I 0 W/m 2,3 C -4,0 C 28,7 km/h 96,15 %
26.01.2021 02:38 3,0 C 95 % 1010,1 hPa 0,0 l/m 14,6 km/h S-SW 213 0 min 0,000 mm 0,0 UV-I 0 W/m 2,3 C -3,1 C 23,0 km/h 100,00 %
26.01.2021 02:37 3,0 C 95 % 1010,0 hPa 0,0 l/m 9,2 km/h S-SW 211 0 min 0,000 mm 0,0 UV-I 0 W/m 2,3 C 0,5 C 13,4 km/h 100,00 %
26.01.2021 02:36 3,0 C 95 % 1010,0 hPa 0,0 l/m 8,3 km/h S-SW 198 0 min 0,000 mm 0,0 UV-I 0 W/m 2,3 C 1,2 C 11,5 km/h 100,00 %
26.01.2021 02:35 3,0 C 95 % 1010,0 hPa 0,0 l/m 12,8 km/h S-SW 209 0 min 0,000 mm 0,0 UV-I 0 W/m 2,3 C -2,1 C 21,0 km/h 100,00 %
26.01.2021 02:34 3,0 C 95 % 1010,0 hPa 0,0 l/m 11,7 km/h S-SW 205 0 min 0,000 mm 0,0 UV-I 0 W/m 2,3 C -1,3 C 26,8 km/h 96,67 %
26.01.2021 02:33 3,0 C 95 % 1010,0 hPa 0,0 l/m 15,7 km/h W-SW 249 0 min 0,000 mm 0,0 UV-I 0 W/m 2,3 C -3,7 C 32,5 km/h 100,00 %
26.01.2021 02:32 3,0 C 95 % 1009,9 hPa 0,0 l/m 8,8 km/h SW 221 0 min 0,000 mm 0,0 UV-I 0 W/m 2,3 C 0,8 C 13,4 km/h 100,00 %
26.01.2021 02:31 3,0 C 95 % 1009,9 hPa 0,0 l/m 11,9 km/h SW 224 0 min 0,000 mm 0,0 UV-I 0 W/m 2,3 C -1,5 C 17,2 km/h 100,00 %
26.01.2021 02:30 3,0 C 95 % 1010,0 hPa 0,0 l/m 11,6 km/h S-SW 196 0 min 0,000 mm 0,0 UV-I 0 W/m 2,3 C -1,3 C 15,3 km/h 100,00 %
26.01.2021 02:29 3,0 C 95 % 1009,9 hPa 0,0 l/m 10,5 km/h S-SW 210 0 min 0,000 mm 0,0 UV-I 0 W/m 2,3 C -0,5 C 17,2 km/h 100,00 %
26.01.2021 02:28 3,0 C 95 % 1009,9 hPa 0,0 l/m 8,1 km/h S-SW 205 0 min 0,000 mm 0,0 UV-I 0 W/m 2,3 C 1,4 C 11,5 km/h 100,00 %
26.01.2021 02:27 2,9 C 95 % 1009,9 hPa 0,0 l/m 8,8 km/h SW 216 0 min 0,000 mm 0,0 UV-I 0 W/m 2,2 C 0,7 C 15,3 km/h 100,00 %
26.01.2021 02:26 2,9 C 95 % 1009,9 hPa 0,0 l/m 7,0 km/h S-SW 209 0 min 0,000 mm 0,0 UV-I 0 W/m 2,2 C 2,3 C 11,5 km/h 100,00 %
26.01.2021 02:25 3,0 C 95 % 1009,9 hPa 0,0 l/m 15,0 km/h S 177 0 min 0,000 mm 0,0 UV-I 0 W/m 2,3 C -3,3 C 24,9 km/h 100,00 %
26.01.2021 02:24 2,9 C 95 % 1009,9 hPa 0,0 l/m 10,6 km/h W-SW 244 0 min 0,000 mm 0,0 UV-I 0 W/m 2,2 C -0,7 C 13,4 km/h 100,00 %
26.01.2021 02:23 2,9 C 95 % 1009,8 hPa 0,0 l/m 10,8 km/h S 183 0 min 0,000 mm 0,0 UV-I 0 W/m 2,2 C -0,8 C 19,1 km/h 100,00 %
26.01.2021 02:22 2,9 C 95 % 1009,9 hPa 0,0 l/m 11,9 km/h S-SW 201 0 min 0,000 mm 0,0 UV-I 0 W/m 2,2 C -1,6 C 19,1 km/h 100,00 %
26.01.2021 02:21 2,9 C 95 % 1009,8 hPa 0,0 l/m 12,2 km/h S-SW 199 0 min 0,000 mm 0,0 UV-I 0 W/m 2,2 C -1,8 C 15,3 km/h 100,00 %
26.01.2021 02:20 2,9 C 95 % 1009,8 hPa 0,0 l/m 13,6 km/h S-SW 192 0 min 0,000 mm 0,0 UV-I 0 W/m 2,2 C -2,7 C 21,0 km/h 100,00 %
26.01.2021 02:19 2,9 C 95 % 1009,8 hPa 0,0 l/m 12,2 km/h SW 217 0 min 0,000 mm 0,0 UV-I 0 W/m 2,2 C -1,8 C 21,0 km/h 92,59 %
26.01.2021 02:18 2,9 C 95 % 1009,9 hPa 0,0 l/m 10,1 km/h W-SW 238 0 min 0,000 mm 0,0 UV-I 0 W/m 2,2 C -0,3 C 15,3 km/h 100,00 %
26.01.2021 02:17 2,9 C 95 % 1009,9 hPa 0,0 l/m 9,1 km/h S-SW 211 0 min 0,000 mm 0,0 UV-I 0 W/m 2,2 C 0,5 C 17,2 km/h 100,00 %
26.01.2021 02:16 2,9 C 95 % 1009,8 hPa 0,0 l/m 11,5 km/h SW 215 0 min 0,000 mm 0,0 UV-I 0 W/m 2,2 C -1,3 C 19,1 km/h 97,28 %
26.01.2021 02:15 2,8 C 95 % 1009,9 hPa 0,0 l/m 14,5 km/h S-SW 212 0 min 0,000 mm 0,0 UV-I 0 W/m 2,1 C -3,3 C 21,0 km/h 100,00 %
26.01.2021 02:14 2,8 C 95 % 1009,9 hPa 0,0 l/m 10,3 km/h S-SW 208 0 min 0,000 mm 0,0 UV-I 0 W/m 2,1 C -0,6 C 13,4 km/h 100,00 %
26.01.2021 02:13 2,8 C 95 % 1009,9 hPa 0,0 l/m 9,1 km/h S-SW 198 0 min 0,000 mm 0,0 UV-I 0 W/m 2,1 C 0,4 C 13,4 km/h 100,00 %
26.01.2021 02:12 2,8 C 94 % 1009,9 hPa 0,0 l/m 10,6 km/h S-SW 209 0 min 0,000 mm 0,0 UV-I 0 W/m 1,9 C -0,8 C 15,3 km/h 100,00 %
26.01.2021 02:11 2,8 C 94 % 1009,9 hPa 0,0 l/m 6,8 km/h SW 217 0 min 0,000 mm 0,0 UV-I 0 W/m 1,9 C 2,4 C 9,6 km/h 100,00 %
26.01.2021 02:10 2,7 C 94 % 1009,9 hPa 0,0 l/m 6,3 km/h S-SW 211 0 min 0,000 mm 0,0 UV-I 0 W/m 1,8 C 2,7 C 9,6 km/h 100,00 %
26.01.2021 02:09 2,7 C 94 % 1009,9 hPa 0,0 l/m 6,1 km/h S 172 0 min 0,000 mm 0,0 UV-I 0 W/m 1,8 C 2,7 C 9,6 km/h 100,00 %
26.01.2021 02:08 2,7 C 94 % 1009,9 hPa 0,0 l/m 7,6 km/h SW 219 0 min 0,000 mm 0,0 UV-I 0 W/m 1,8 C 1,6 C 11,5 km/h 100,00 %
26.01.2021 02:07 2,7 C 94 % 1009,9 hPa 0,0 l/m 7,9 km/h S-SW 213 0 min 0,000 mm 0,0 UV-I 0 W/m 1,8 C 1,3 C 15,3 km/h 100,00 %
26.01.2021 02:06 2,7 C 94 % 1009,9 hPa 0,0 l/m 4,3 km/h S-SW 198 0 min 0,000 mm 0,0 UV-I 0 W/m 1,8 C 2,7 C 7,7 km/h 100,00 %
26.01.2021 02:05 2,7 C 94 % 1009,9 hPa 0,0 l/m 8,4 km/h S-SW 193 0 min 0,000 mm 0,0 UV-I 0 W/m 1,8 C 0,8 C 13,4 km/h 100,00 %
26.01.2021 02:04 2,7 C 94 % 1009,9 hPa 0,0 l/m 7,8 km/h SW 217 0 min 0,000 mm 0,0 UV-I 0 W/m 1,8 C 1,4 C 15,3 km/h 100,00 %
26.01.2021 02:03 2,7 C 94 % 1009,9 hPa 0,0 l/m 10,6 km/h S-SW 209 0 min 0,000 mm 0,0 UV-I 0 W/m 1,8 C -0,9 C 13,4 km/h 100,00 %
26.01.2021 02:02 2,7 C 94 % 1009,9 hPa 0,0 l/m 9,4 km/h S-SW 196 0 min 0,000 mm 0,0 UV-I 0 W/m 1,8 C 0,0 C 17,2 km/h 100,00 %
26.01.2021 02:01 2,7 C 94 % 1009,9 hPa 0,0 l/m 7,2 km/h S 182 0 min 0,000 mm 0,0 UV-I 0 W/m 1,8 C 1,9 C 11,5 km/h 100,00 %
26.01.2021 02:00 2,7 C 94 % 1009,9 hPa 0,0 l/m 8,2 km/h S-SW 204 0 min 0,000 mm 0,0 UV-I 0 W/m 1,8 C 1,0 C 17,2 km/h 100,00 %
26.01.2021 01:59 2,7 C 94 % 1009,8 hPa 0,0 l/m 11,2 km/h SW 219 0 min 0,000 mm 0,0 UV-I 0 W/m 1,8 C -1,3 C 19,1 km/h 100,00 %
26.01.2021 01:58 2,7 C 94 % 1009,8 hPa 0,0 l/m 9,6 km/h SW 233 0 min 0,000 mm 0,0 UV-I 0 W/m 1,8 C -0,2 C 17,2 km/h 95,83 %
26.01.2021 01:57 2,7 C 94 % 1009,8 hPa 0,0 l/m 7,7 km/h S-SW 201 0 min 0,000 mm 0,0 UV-I 0 W/m 1,8 C 1,5 C 13,4 km/h 100,00 %
26.01.2021 01:56 2,7 C 94 % 1009,8 hPa 0,0 l/m 10,0 km/h S-SW 199 0 min 0,000 mm 0,0 UV-I 0 W/m 1,8 C -0,5 C 15,3 km/h 95,83 %
26.01.2021 01:55 2,7 C 94 % 1009,8 hPa 0,0 l/m 8,6 km/h S 189 0 min 0,000 mm 0,0 UV-I 0 W/m 1,8 C 0,7 C 15,3 km/h 93,55 %
26.01.2021 01:54 2,8 C 94 % 1009,9 hPa 0,0 l/m 7,4 km/h SW 221 0 min 0,000 mm 0,0 UV-I 0 W/m 1,9 C 1,8 C 11,5 km/h 93,33 %
26.01.2021 01:53 2,8 C 94 % 1009,9 hPa 0,0 l/m 9,2 km/h S 172 0 min 0,000 mm 0,0 UV-I 0 W/m 1,9 C 0,3 C 17,2 km/h 96,15 %
26.01.2021 01:52 2,8 C 94 % 1009,9 hPa 0,0 l/m 16,5 km/h S-SW 203 0 min 0,000 mm 0,0 UV-I 0 W/m 1,9 C -4,4 C 24,9 km/h 100,00 %
26.01.2021 01:51 2,8 C 94 % 1009,8 hPa 0,0 l/m 5,6 km/h S-SW 203 0 min 0,000 mm 0,0 UV-I 0 W/m 1,9 C 2,8 C 9,6 km/h 93,10 %
26.01.2021 01:50 2,8 C 94 % 1009,8 hPa 0,0 l/m 11,7 km/h S 179 0 min 0,000 mm 0,0 UV-I 0 W/m 1,9 C -1,6 C 21,0 km/h 100,00 %
26.01.2021 01:49 2,8 C 94 % 1009,9 hPa 0,0 l/m 12,0 km/h SW 218 0 min 0,000 mm 0,0 UV-I 0 W/m 1,9 C -1,8 C 17,2 km/h 95,65 %
26.01.2021 01:48 2,8 C 94 % 1009,9 hPa 0,0 l/m 12,8 km/h S-SW 212 0 min 0,000 mm 0,0 UV-I 0 W/m 1,9 C -2,3 C 26,8 km/h 100,00 %
26.01.2021 01:47 2,8 C 94 % 1010,0 hPa 0,0 l/m 16,3 km/h S-SW 199 0 min 0,000 mm 0,0 UV-I 0 W/m 1,9 C -4,3 C 26,8 km/h 95,83 %
26.01.2021 01:46 2,8 C 93 % 1009,9 hPa 0,0 l/m 13,7 km/h SW 222 0 min 0,000 mm 0,0 UV-I 0 W/m 1,8 C -2,8 C 23,0 km/h 100,00 %
26.01.2021 01:45 2,9 C 94 % 1010,0 hPa 0,0 l/m 17,4 km/h SW 217 0 min 0,000 mm 0,0 UV-I 0 W/m 2,0 C -4,7 C 30,6 km/h 95,74 %
26.01.2021 01:44 2,9 C 94 % 1010,1 hPa 0,0 l/m 15,5 km/h SW 229 0 min 0,000 mm 0,0 UV-I 0 W/m 2,0 C -3,7 C 34,4 km/h 96,92 %
26.01.2021 01:43 2,9 C 94 % 1010,0 hPa 0,0 l/m 13,7 km/h W-SW 246 0 min 0,000 mm 0,0 UV-I 0 W/m 2,0 C -2,7 C 21,0 km/h 92,59 %
26.01.2021 01:42 2,9 C 93 % 1010,0 hPa 0,0 l/m 14,7 km/h SW 217 0 min 0,000 mm 0,0 UV-I 0 W/m 1,9 C -3,3 C 24,9 km/h 100,00 %
26.01.2021 01:41 3,1 C 93 % 1010,0 hPa 0,0 l/m 13,7 km/h SW 221 0 min 0,000 mm 0,0 UV-I 0 W/m 2,1 C -2,5 C 23,0 km/h 95,83 %
26.01.2021 01:40 3,1 C 93 % 1010,0 hPa 0,0 l/m 17,8 km/h SW 232 0 min 0,000 mm 0,0 UV-I 0 W/m 2,1 C -4,6 C 26,8 km/h 95,83 %
26.01.2021 01:39 3,2 C 94 % 1010,0 hPa 0,0 l/m 14,1 km/h W-SW 239 0 min 0,000 mm 0,0 UV-I 0 W/m 2,3 C -2,6 C 21,0 km/h 100,00 %
26.01.2021 01:38 3,2 C 94 % 1010,0 hPa 0,2 l/m 17,0 km/h SW 221 0 min 0,000 mm 0,0 UV-I 0 W/m 2,3 C -4,1 C 28,7 km/h 96,15 %
26.01.2021 01:37 3,2 C 94 % 1010,1 hPa 0,0 l/m 18,4 km/h W-SW 246 0 min 0,000 mm 0,0 UV-I 0 W/m 2,3 C -4,8 C 32,5 km/h 100,00 %
26.01.2021 01:36 3,3 C 94 % 1010,0 hPa 0,2 l/m 16,5 km/h S-SW 201 0 min 0,000 mm 0,0 UV-I 0 W/m 2,4 C -3,8 C 24,9 km/h 92,86 %
26.01.2021 01:35 3,3 C 94 % 1009,9 hPa 0,0 l/m 11,0 km/h W-SW 246 0 min 0,000 mm 0,0 UV-I 0 W/m 2,4 C -0,5 C 19,1 km/h 100,00 %
26.01.2021 01:34 3,3 C 94 % 1009,9 hPa 0,0 l/m 14,4 km/h S-SW 209 0 min 0,000 mm 0,0 UV-I 0 W/m 2,4 C -2,7 C 23,0 km/h 92,31 %
26.01.2021 01:33 3,3 C 94 % 1009,8 hPa 0,0 l/m 13,0 km/h S-SW 206 0 min 0,000 mm 0,0 UV-I 0 W/m 2,4 C -1,8 C 28,7 km/h 93,33 %
26.01.2021 01:32 3,3 C 94 % 1009,8 hPa 0,2 l/m 12,2 km/h S-SW 200 0 min 0,000 mm 0,0 UV-I 0 W/m 2,4 C -1,3 C 17,2 km/h 100,00 %
26.01.2021 01:31 3,3 C 94 % 1009,8 hPa 0,0 l/m 9,4 km/h S-SW 195 0 min 0,000 mm 0,0 UV-I 0 W/m 2,4 C 0,7 C 11,5 km/h 96,97 %
26.01.2021 01:30 3,3 C 94 % 1009,8 hPa 0,0 l/m 8,1 km/h S-SW 202 0 min 0,000 mm 0,0 UV-I 0 W/m 2,4 C 1,7 C 9,6 km/h 100,00 %
26.01.2021 01:29 3,3 C 94 % 1009,8 hPa 0,0 l/m 12,7 km/h S-SW 203 0 min 0,000 mm 0,0 UV-I 0 W/m 2,4 C -1,6 C 19,1 km/h 95,83 %
26.01.2021 01:28 3,3 C 94 % 1009,8 hPa 0,0 l/m 9,6 km/h S-SW 209 0 min 0,000 mm 0,0 UV-I 0 W/m 2,4 C 0,5 C 15,3 km/h 100,00 %
26.01.2021 01:27 3,3 C 94 % 1009,8 hPa 0,2 l/m 8,3 km/h SW 225 0 min 0,000 mm 0,0 UV-I 0 W/m 2,4 C 1,6 C 11,5 km/h 93,33 %
26.01.2021 01:26 3,3 C 94 % 1009,8 hPa 0,0 l/m 13,1 km/h W-SW 245 0 min 0,000 mm 0,0 UV-I 0 W/m 2,4 C -1,9 C 19,1 km/h 95,65 %
26.01.2021 01:25 3,3 C 94 % 1009,8 hPa 0,0 l/m 11,2 km/h SW 217 0 min 0,000 mm 0,0 UV-I 0 W/m 2,4 C -0,7 C 17,2 km/h 95,83 %
26.01.2021 01:24 3,3 C 94 % 1009,7 hPa 0,0 l/m 9,8 km/h S-SW 209 0 min 0,000 mm 0,0 UV-I 0 W/m 2,4 C 0,3 C 15,3 km/h 95,65 %
26.01.2021 01:23 3,3 C 93 % 1009,7 hPa 0,0 l/m 12,2 km/h SW 224 0 min 0,000 mm 0,0 UV-I 0 W/m 2,3 C -1,3 C 17,2 km/h 96,30 %
26.01.2021 01:22 3,3 C 93 % 1009,7 hPa 0,0 l/m 18,1 km/h S-SW 207 0 min 0,000 mm 0,0 UV-I 0 W/m 2,3 C -4,5 C 26,8 km/h 96,55 %
26.01.2021 01:21 3,3 C 93 % 1009,7 hPa 0,0 l/m 9,8 km/h SW 216 0 min 0,000 mm 0,0 UV-I 0 W/m 2,3 C 0,3 C 17,2 km/h 100,00 %
26.01.2021 01:20 3,3 C 93 % 1009,7 hPa 0,0 l/m 11,9 km/h S-SW 209 0 min 0,000 mm 0,0 UV-I 0 W/m 2,3 C -1,1 C 21,0 km/h 95,83 %
26.01.2021 01:19 3,3 C 93 % 1009,7 hPa 0,0 l/m 8,4 km/h SW 219 0 min 0,000 mm 0,0 UV-I 0 W/m 2,3 C 1,5 C 19,1 km/h 100,00 %
26.01.2021 01:18 3,3 C 93 % 1009,7 hPa 0,0 l/m 18,4 km/h W-SW 240 0 min 0,000 mm 0,0 UV-I 0 W/m 2,3 C -4,7 C 24,9 km/h 96,30 %
26.01.2021 01:17 3,3 C 93 % 1009,7 hPa 0,0 l/m 9,5 km/h SW 224 0 min 0,000 mm 0,0 UV-I 0 W/m 2,3 C 0,6 C 17,2 km/h 96,15 %
26.01.2021 01:16 3,3 C 93 % 1009,7 hPa 0,0 l/m 11,7 km/h W-SW 240 0 min 0,000 mm 0,0 UV-I 0 W/m 2,3 C -1,0 C 15,3 km/h 95,83 %
26.01.2021 01:15 3,3 C 93 % 1009,7 hPa 0,0 l/m 10,6 km/h S-SW 210 0 min 0,000 mm 0,0 UV-I 0 W/m 2,3 C -0,2 C 17,2 km/h 100,00 %
26.01.2021 01:14 3,3 C 93 % 1009,7 hPa 0,0 l/m 12,4 km/h W-SW 237 0 min 0,000 mm 0,0 UV-I 0 W/m 2,3 C -1,5 C 17,2 km/h 95,83 %
26.01.2021 01:13 3,3 C 93 % 1009,7 hPa 0,0 l/m 13,6 km/h S-SW 211 0 min 0,000 mm 0,0 UV-I 0 W/m 2,3 C -2,2 C 21,0 km/h 95,83 %
26.01.2021 01:12 3,3 C 93 % 1009,7 hPa 0,0 l/m 7,7 km/h SW 234 0 min 0,000 mm 0,0 UV-I 0 W/m 2,3 C 2,1 C 17,2 km/h 100,00 %
26.01.2021 01:11 3,3 C 93 % 1009,7 hPa 0,0 l/m 14,8 km/h SW 225 0 min 0,000 mm 0,0 UV-I 0 W/m 2,3 C -2,9 C 26,8 km/h 96,15 %
26.01.2021 01:10 3,3 C 93 % 1009,7 hPa 0,0 l/m 12,1 km/h S-SW 212 0 min 0,000 mm 0,0 UV-I 0 W/m 2,3 C -1,3 C 24,9 km/h 96,67 %
26.01.2021 01:09 3,3 C 93 % 1009,7 hPa 0,0 l/m 14,1 km/h SW 232 0 min 0,000 mm 0,0 UV-I 0 W/m 2,3 C -2,5 C 21,0 km/h 100,00 %
26.01.2021 01:08 3,3 C 93 % 1009,8 hPa 0,0 l/m 21,5 km/h SW 219 0 min 0,000 mm 0,0 UV-I 0 W/m 2,3 C -6,0 C 32,5 km/h 95,83 %
26.01.2021 01:07 3,3 C 93 % 1009,7 hPa 0,0 l/m 11,3 km/h SW 219 0 min 0,000 mm 0,0 UV-I 0 W/m 2,3 C -0,7 C 17,2 km/h 100,00 %
26.01.2021 01:06 3,3 C 93 % 1009,7 hPa 0,0 l/m 10,7 km/h S-SW 198 0 min 0,000 mm 0,0 UV-I 0 W/m 2,3 C -0,3 C 17,2 km/h 94,44 %
26.01.2021 01:05 3,2 C 93 % 1009,8 hPa 0,0 l/m 13,9 km/h SW 219 0 min 0,000 mm 0,0 UV-I 0 W/m 2,2 C -2,5 C 23,0 km/h 100,00 %
26.01.2021 01:04 3,2 C 93 % 1009,8 hPa 0,0 l/m 10,9 km/h S-SW 211 0 min 0,000 mm 0,0 UV-I 0 W/m 2,2 C -0,6 C 17,2 km/h 96,77 %
26.01.2021 01:03 3,2 C 93 % 1009,7 hPa 0,0 l/m 11,3 km/h W-SW 254 0 min 0,000 mm 0,0 UV-I 0 W/m 2,2 C -0,8 C 15,3 km/h 100,00 %
26.01.2021 01:02 3,2 C 93 % 1009,7 hPa 0,0 l/m 9,5 km/h S-SW 193 0 min 0,000 mm 0,0 UV-I 0 W/m 2,2 C 0,5 C 13,4 km/h 96,15 %
26.01.2021 01:01 3,2 C 93 % 1009,6 hPa 0,0 l/m 8,0 km/h SW 234 0 min 0,000 mm 0,0 UV-I 0 W/m 2,2 C 1,7 C 15,3 km/h 97,56 %
26.01.2021 01:00 3,2 C 92 % 1009,5 hPa 0,0 l/m 10,8 km/h SW 218 0 min 0,000 mm 0,0 UV-I 0 W/m 2,0 C -0,5 C 21,0 km/h 100,00 %
26.01.2021 00:59 3,2 C 92 % 1009,5 hPa 0,0 l/m 7,1 km/h W-SW 237 0 min 0,000 mm 0,0 UV-I 0 W/m 2,0 C 2,5 C 11,5 km/h 95,65 %
26.01.2021 00:58 3,2 C 92 % 1009,5 hPa 0,0 l/m 10,8 km/h S 185 0 min 0,000 mm 0,0 UV-I 0 W/m 2,0 C -0,5 C 17,2 km/h 96,43 %
26.01.2021 00:57 3,2 C 92 % 1009,5 hPa 0,0 l/m 7,1 km/h SW 215 0 min 0,000 mm 0,0 UV-I 0 W/m 2,0 C 2,5 C 13,4 km/h 94,44 %
26.01.2021 00:56 3,2 C 92 % 1009,4 hPa 0,2 l/m 6,5 km/h S-SW 207 0 min 0,000 mm 0,0 UV-I 0 W/m 2,0 C 3,1 C 11,5 km/h 100,00 %
26.01.2021 00:55 3,2 C 92 % 1009,4 hPa 0,0 l/m 6,6 km/h SW 218 0 min 0,000 mm 0,0 UV-I 0 W/m 2,0 C 3,0 C 13,4 km/h 91,67 %
26.01.2021 00:54 3,2 C 92 % 1009,4 hPa 0,0 l/m 13,2 km/h SW 227 0 min 0,000 mm 0,0 UV-I 0 W/m 2,0 C -2,1 C 23,0 km/h 100,00 %
26.01.2021 00:53 3,2 C 92 % 1009,4 hPa 0,0 l/m 11,3 km/h S-SW 200 0 min 0,000 mm 0,0 UV-I 0 W/m 2,0 C -0,8 C 17,2 km/h 91,67 %
26.01.2021 00:52 3,2 C 92 % 1009,4 hPa 0,0 l/m 12,9 km/h S 188 0 min 0,000 mm 0,0 UV-I 0 W/m 2,0 C -1,9 C 21,0 km/h 100,00 %
26.01.2021 00:51 3,3 C 92 % 1009,5 hPa 0,2 l/m 15,4 km/h SW 225 0 min 0,000 mm 0,0 UV-I 0 W/m 2,1 C -3,2 C 23,0 km/h 96,67 %
26.01.2021 00:50 3,3 C 92 % 1009,6 hPa 0,0 l/m 17,0 km/h SW 218 0 min 0,000 mm 0,0 UV-I 0 W/m 2,1 C -4,0 C 21,0 km/h 100,00 %
26.01.2021 00:49 3,3 C 92 % 1009,6 hPa 0,0 l/m 18,5 km/h S-SW 198 0 min 0,000 mm 0,0 UV-I 0 W/m 2,1 C -4,7 C 28,7 km/h 95,83 %
26.01.2021 00:48 3,3 C 92 % 1009,7 hPa 0,0 l/m 17,8 km/h SW 222 0 min 0,000 mm 0,0 UV-I 0 W/m 2,1 C -4,4 C 26,8 km/h 92,31 %
26.01.2021 00:47 3,4 C 92 % 1009,6 hPa 0,2 l/m 13,0 km/h SW 225 0 min 0,000 mm 0,0 UV-I 0 W/m 2,2 C -1,7 C 19,1 km/h 100,00 %
26.01.2021 00:46 3,4 C 92 % 1009,5 hPa 0,0 l/m 11,2 km/h SW 217 0 min 0,000 mm 0,0 UV-I 0 W/m 2,2 C -0,6 C 19,1 km/h 95,65 %
26.01.2021 00:45 3,4 C 92 % 1009,5 hPa 0,0 l/m 13,8 km/h SW 236 0 min 0,000 mm 0,0 UV-I 0 W/m 2,2 C -2,2 C 19,1 km/h 100,00 %
26.01.2021 00:44 3,4 C 92 % 1009,5 hPa 0,2 l/m 15,7 km/h SW 216 0 min 0,000 mm 0,0 UV-I 0 W/m 2,2 C -3,2 C 24,9 km/h 93,33 %
26.01.2021 00:43 3,5 C 92 % 1009,5 hPa 0,0 l/m 12,0 km/h W-SW 240 0 min 0,000 mm 0,0 UV-I 0 W/m 2,3 C -1,0 C 19,1 km/h 100,00 %
26.01.2021 00:42 3,5 C 92 % 1009,5 hPa 0,0 l/m 10,8 km/h SW 217 0 min 0,000 mm 0,0 UV-I 0 W/m 2,3 C -0,2 C 17,2 km/h 95,83 %
26.01.2021 00:41 3,5 C 92 % 1009,6 hPa 0,0 l/m 15,6 km/h SW 228 0 min 0,000 mm 0,0 UV-I 0 W/m 2,3 C -3,1 C 24,9 km/h 91,30 %
26.01.2021 00:40 3,6 C 92 % 1009,5 hPa 0,2 l/m 14,0 km/h SW 221 0 min 0,000 mm 0,0 UV-I 0 W/m 2,4 C -2,1 C 23,0 km/h 100,00 %
26.01.2021 00:39 3,6 C 92 % 1009,5 hPa 0,0 l/m 11,5 km/h SW 215 0 min 0,000 mm 0,0 UV-I 0 W/m 2,4 C -0,5 C 19,1 km/h 91,30 %
26.01.2021 00:38 3,6 C 91 % 1009,5 hPa 0,0 l/m 14,5 km/h S 186 0 min 0,000 mm 0,0 UV-I 0 W/m 2,3 C -2,3 C 26,8 km/h 100,00 %
26.01.2021 00:37 3,6 C 91 % 1009,5 hPa 0,0 l/m 13,6 km/h SW 219 0 min 0,000 mm 0,0 UV-I 0 W/m 2,3 C -1,8 C 19,1 km/h 96,15 %
26.01.2021 00:36 3,6 C 91 % 1009,5 hPa 0,0 l/m 13,5 km/h SW 222 0 min 0,000 mm 0,0 UV-I 0 W/m 2,3 C -1,8 C 23,0 km/h 100,00 %
26.01.2021 00:35 3,6 C 91 % 1009,5 hPa 0,2 l/m 10,7 km/h S-SW 202 0 min 0,000 mm 0,0 UV-I 0 W/m 2,3 C 0,0 C 21,0 km/h 92,86 %
26.01.2021 00:34 3,6 C 91 % 1009,5 hPa 0,0 l/m 12,3 km/h S-SW 200 0 min 0,000 mm 0,0 UV-I 0 W/m 2,3 C -1,0 C 19,1 km/h 92,59 %
26.01.2021 00:33 3,6 C 91 % 1009,5 hPa 0,0 l/m 8,3 km/h W-SW 240 0 min 0,000 mm 0,0 UV-I 0 W/m 2,3 C 1,9 C 13,4 km/h 95,65 %
26.01.2021 00:32 3,6 C 91 % 1009,5 hPa 0,0 l/m 8,5 km/h SW 222 0 min 0,000 mm 0,0 UV-I 0 W/m 2,3 C 1,7 C 13,4 km/h 96,67 %
26.01.2021 00:31 3,6 C 91 % 1009,5 hPa 0,0 l/m 10,1 km/h S-SW 207 0 min 0,000 mm 0,0 UV-I 0 W/m 2,3 C 0,5 C 15,3 km/h 100,00 %
26.01.2021 00:30 3,6 C 91 % 1009,4 hPa 0,0 l/m 10,0 km/h S-SW 208 0 min 0,000 mm 0,0 UV-I 0 W/m 2,3 C 0,5 C 17,2 km/h 91,67 %
26.01.2021 00:29 3,5 C 91 % 1009,4 hPa 0,0 l/m 15,0 km/h S-SW 211 0 min 0,000 mm 0,0 UV-I 0 W/m 2,2 C -2,7 C 23,0 km/h 97,56 %
26.01.2021 00:28 3,5 C 91 % 1009,4 hPa 0,0 l/m 14,8 km/h SW 231 0 min 0,000 mm 0,0 UV-I 0 W/m 2,2 C -2,6 C 23,0 km/h 100,00 %
26.01.2021 00:27 3,5 C 91 % 1009,2 hPa 0,0 l/m 14,0 km/h SW 217 0 min 0,000 mm 0,0 UV-I 0 W/m 2,2 C -2,2 C 21,0 km/h 100,00 %
26.01.2021 00:26 3,5 C 91 % 1009,2 hPa 0,0 l/m 7,3 km/h S 189 0 min 0,000 mm 0,0 UV-I 0 W/m 2,2 C 2,7 C 13,4 km/h 91,67 %
26.01.2021 00:25 3,5 C 91 % 1009,3 hPa 0,0 l/m 12,9 km/h SW 227 0 min 0,000 mm 0,0 UV-I 0 W/m 2,2 C -1,5 C 21,0 km/h 100,00 %
26.01.2021 00:24 3,5 C 91 % 1009,2 hPa 0,0 l/m 10,2 km/h S-SW 195 0 min 0,000 mm 0,0 UV-I 0 W/m 2,2 C 0,3 C 17,2 km/h 95,83 %
26.01.2021 00:23 3,5 C 91 % 1009,3 hPa 0,0 l/m 8,0 km/h SW 227 0 min 0,000 mm 0,0 UV-I 0 W/m 2,2 C 2,0 C 11,5 km/h 95,65 %
26.01.2021 00:22 3,5 C 91 % 1009,3 hPa 0,0 l/m 9,4 km/h S-SW 205 0 min 0,000 mm 0,0 UV-I 0 W/m 2,2 C 0,9 C 15,3 km/h 95,83 %
26.01.2021 00:21 3,5 C 91 % 1009,3 hPa 0,0 l/m 8,2 km/h SW 234 0 min 0,000 mm 0,0 UV-I 0 W/m 2,2 C 1,9 C 13,4 km/h 96,30 %
26.01.2021 00:20 3,5 C 91 % 1009,3 hPa 0,0 l/m 11,2 km/h S-SW 209 0 min 0,000 mm 0,0 UV-I 0 W/m 2,2 C -0,4 C 26,8 km/h 100,00 %
26.01.2021 00:19 3,5 C 91 % 1009,3 hPa 0,0 l/m 7,9 km/h S 186 0 min 0,000 mm 0,0 UV-I 0 W/m 2,2 C 2,1 C 15,3 km/h 95,83 %
26.01.2021 00:18 3,4 C 91 % 1009,3 hPa 0,0 l/m 16,0 km/h S-SW 202 0 min 0,000 mm 0,0 UV-I 0 W/m 2,1 C -3,4 C 23,0 km/h 92,31 %
26.01.2021 00:17 3,5 C 91 % 1009,4 hPa 0,0 l/m 15,1 km/h S-SW 209 0 min 0,000 mm 0,0 UV-I 0 W/m 2,2 C -2,8 C 26,8 km/h 100,00 %
26.01.2021 00:16 3,4 C 91 % 1009,4 hPa 0,0 l/m 8,6 km/h S-SW 211 0 min 0,000 mm 0,0 UV-I 0 W/m 2,1 C 1,4 C 13,4 km/h 100,00 %
26.01.2021 00:15 3,4 C 91 % 1009,3 hPa 0,0 l/m 9,2 km/h SW 216 0 min 0,000 mm 0,0 UV-I 0 W/m 2,1 C 0,9 C 17,2 km/h 96,30 %
26.01.2021 00:14 3,4 C 91 % 1009,4 hPa 0,0 l/m 8,5 km/h SW 217 0 min 0,000 mm 0,0 UV-I 0 W/m 2,1 C 1,5 C 13,4 km/h 96,15 %
26.01.2021 00:13 3,4 C 91 % 1009,4 hPa 0,0 l/m 10,5 km/h SW 217 0 min 0,000 mm 0,0 UV-I 0 W/m 2,1 C -0,1 C 21,0 km/h 100,00 %
26.01.2021 00:12 3,4 C 91 % 1009,4 hPa 0,0 l/m 12,5 km/h S-SW 198 0 min 0,000 mm 0,0 UV-I 0 W/m 2,1 C -1,4 C 21,0 km/h 95,65 %
26.01.2021 00:11 3,4 C 91 % 1009,4 hPa 0,0 l/m 9,9 km/h SW 226 0 min 0,000 mm 0,0 UV-I 0 W/m 2,1 C 0,4 C 13,4 km/h 100,00 %
26.01.2021 00:10 3,4 C 91 % 1009,5 hPa 0,0 l/m 10,1 km/h SW 217 0 min 0,000 mm 0,0 UV-I 0 W/m 2,1 C 0,2 C 19,1 km/h 96,15 %
26.01.2021 00:09 3,4 C 91 % 1009,4 hPa 0,0 l/m 12,0 km/h SW 227 0 min 0,000 mm 0,0 UV-I 0 W/m 2,1 C -1,1 C 17,2 km/h 100,00 %
26.01.2021 00:08 3,4 C 91 % 1009,4 hPa 0,0 l/m 9,5 km/h S-SW 212 0 min 0,000 mm 0,0 UV-I 0 W/m 2,1 C 0,7 C 17,2 km/h 95,65 %
26.01.2021 00:07 3,4 C 91 % 1009,4 hPa 0,0 l/m 9,7 km/h SW 216 0 min 0,000 mm 0,0 UV-I 0 W/m 2,1 C 0,5 C 19,1 km/h 96,00 %
26.01.2021 00:06 3,4 C 91 % 1009,3 hPa 0,0 l/m 14,4 km/h S 171 0 min 0,000 mm 0,0 UV-I 0 W/m 2,1 C -2,5 C 23,0 km/h 100,00 %
26.01.2021 00:05 3,4 C 92 % 1009,4 hPa 0,0 l/m 13,7 km/h SW 222 0 min 0,000 mm 0,0 UV-I 0 W/m 2,2 C -2,1 C 23,0 km/h 93,33 %
26.01.2021 00:04 3,4 C 92 % 1009,3 hPa 0,0 l/m 12,5 km/h W-SW 238 0 min 0,000 mm 0,0 UV-I 0 W/m 2,2 C -1,4 C 19,1 km/h 96,30 %
26.01.2021 00:03 3,3 C 92 % 1009,3 hPa 0,0 l/m 11,8 km/h S-SW 197 0 min 0,000 mm 0,0 UV-I 0 W/m 2,1 C -1,1 C 15,3 km/h 96,15 %
26.01.2021 00:02 3,3 C 92 % 1009,3 hPa 0,0 l/m 12,8 km/h SW 214 0 min 0,000 mm 0,0 UV-I 0 W/m 2,1 C -1,7 C 19,1 km/h 100,00 %
26.01.2021 00:01 3,3 C 92 % 1009,3 hPa 0,0 l/m 13,9 km/h SW 219 0 min 0,000 mm 0,0 UV-I 0 W/m 2,1 C -2,4 C 24,9 km/h 90,00 %
26.01.2021 00:00 3,3 C 91 % 1009,3 hPa 0,0 l/m 15,3 km/h S 177 0 min 0,000 mm 0,0 UV-I 0 W/m 2,0 C -3,1 C 24,9 km/h 100,00 %
25.01.2021 23:59 3,3 C 91 % 1009,3 hPa 0,0 l/m 14,8 km/h S-SW 209 0 min 0,000 mm 0,0 UV-I 0 W/m 2,0 C -2,9 C 26,8 km/h 97,37 %
25.01.2021 23:58 3,3 C 91 % 1009,3 hPa 0,0 l/m 9,3 km/h S 190 0 min 0,000 mm 0,0 UV-I 0 W/m 2,0 C 0,7 C 17,2 km/h 83,33 %
25.01.2021 23:57 3,3 C 91 % 1009,3 hPa 0,0 l/m 10,4 km/h S-SW 211 0 min 0,000 mm 0,0 UV-I 0 W/m 2,0 C -0,1 C 19,1 km/h 100,00 %
25.01.2021 23:56 3,3 C 91 % 1009,3 hPa 0,0 l/m 11,8 km/h SW 219 0 min 0,000 mm 0,0 UV-I 0 W/m 2,0 C -1,1 C 24,9 km/h 95,83 %
25.01.2021 23:55 3,3 C 91 % 1009,3 hPa 0,0 l/m 12,4 km/h SW 230 0 min 0,000 mm 0,0 UV-I 0 W/m 2,0 C -1,5 C 21,0 km/h 100,00 %
25.01.2021 23:54 3,2 C 91 % 1009,3 hPa 0,0 l/m 10,0 km/h SW 221 0 min 0,000 mm 0,0 UV-I 0 W/m 1,9 C 0,1 C 21,0 km/h 95,83 %
25.01.2021 23:53 3,2 C 91 % 1009,3 hPa 0,0 l/m 13,9 km/h SW 225 0 min 0,000 mm 0,0 UV-I 0 W/m 1,9 C -2,5 C 21,0 km/h 100,00 %
25.01.2021 23:52 3,2 C 92 % 1009,3 hPa 0,0 l/m 12,3 km/h S 179 0 min 0,000 mm 0,0 UV-I 0 W/m 2,0 C -1,5 C 23,0 km/h 96,00 %
25.01.2021 23:51 3,2 C 92 % 1009,2 hPa 0,0 l/m 8,2 km/h S 182 0 min 0,000 mm 0,0 UV-I 0 W/m 2,0 C 1,5 C 15,3 km/h 95,65 %
25.01.2021 23:50 3,2 C 92 % 1009,3 hPa 0,0 l/m 7,4 km/h SW 229 0 min 0,000 mm 0,0 UV-I 0 W/m 2,0 C 2,3 C 11,5 km/h 92,59 %
25.01.2021 23:49 3,2 C 92 % 1009,2 hPa 0,0 l/m 6,3 km/h S-SW 192 0 min 0,000 mm 0,0 UV-I 0 W/m 2,0 C 3,2 C 11,5 km/h 92,31 %
25.01.2021 23:48 3,2 C 92 % 1009,2 hPa 0,0 l/m 11,1 km/h S-SW 201 0 min 0,000 mm 0,0 UV-I 0 W/m 2,0 C -0,7 C 19,1 km/h 100,00 %
25.01.2021 23:47 3,2 C 92 % 1009,2 hPa 0,0 l/m 10,3 km/h SW 219 0 min 0,000 mm 0,0 UV-I 0 W/m 2,0 C -0,1 C 17,2 km/h 96,15 %
25.01.2021 23:46 3,2 C 92 % 1009,3 hPa 0,0 l/m 11,5 km/h S-SW 196 0 min 0,000 mm 0,0 UV-I 0 W/m 2,0 C -1,0 C 19,1 km/h 100,00 %
25.01.2021 23:45 3,2 C 92 % 1009,3 hPa 0,0 l/m 14,9 km/h S-SW 198 0 min 0,000 mm 0,0 UV-I 0 W/m 2,0 C -3,0 C 23,0 km/h 92,31 %
25.01.2021 23:44 3,2 C 92 % 1009,3 hPa 0,0 l/m 10,3 km/h S-SW 195 0 min 0,000 mm 0,0 UV-I 0 W/m 2,0 C -0,1 C 19,1 km/h 100,00 %
25.01.2021 23:43 3,2 C 92 % 1009,3 hPa 0,0 l/m 11,2 km/h S-SW 203 0 min 0,000 mm 0,0 UV-I 0 W/m 2,0 C -0,8 C 17,2 km/h 95,65 %
25.01.2021 23:42 3,2 C 92 % 1009,3 hPa 0,0 l/m 13,3 km/h S-SW 209 0 min 0,000 mm 0,0 UV-I 0 W/m 2,0 C -2,1 C 23,0 km/h 100,00 %
25.01.2021 23:41 3,2 C 92 % 1009,3 hPa 0,0 l/m 8,6 km/h S-SW 207 0 min 0,000 mm 0,0 UV-I 0 W/m 2,0 C 1,2 C 13,4 km/h 96,30 %
25.01.2021 23:40 3,2 C 92 % 1009,3 hPa 0,0 l/m 9,2 km/h S-SW 212 0 min 0,000 mm 0,0 UV-I 0 W/m 2,0 C 0,7 C 13,4 km/h 100,00 %
25.01.2021 23:39 3,1 C 92 % 1009,3 hPa 0,0 l/m 8,5 km/h S-SW 209 0 min 0,000 mm 0,0 UV-I 0 W/m 1,9 C 1,2 C 15,3 km/h 96,30 %
25.01.2021 23:38 3,1 C 92 % 1009,3 hPa 0,0 l/m 6,9 km/h S-SW 213 0 min 0,000 mm 0,0 UV-I 0 W/m 1,9 C 2,6 C 13,4 km/h 96,15 %
25.01.2021 23:37 3,1 C 92 % 1009,3 hPa 0,0 l/m 11,9 km/h S-SO 154 0 min 0,000 mm 0,0 UV-I 0 W/m 1,9 C -1,4 C 17,2 km/h 100,00 %
25.01.2021 23:36 3,1 C 92 % 1009,3 hPa 0,0 l/m 10,8 km/h SW 227 0 min 0,000 mm 0,0 UV-I 0 W/m 1,9 C -0,6 C 17,2 km/h 95,65 %
25.01.2021 23:35 3,1 C 92 % 1009,3 hPa 0,0 l/m 10,7 km/h S-SW 193 0 min 0,000 mm 0,0 UV-I 0 W/m 1,9 C -0,5 C 17,2 km/h 100,00 %
25.01.2021 23:34 3,1 C 92 % 1009,3 hPa 0,0 l/m 8,4 km/h S-SW 209 0 min 0,000 mm 0,0 UV-I 0 W/m 1,9 C 1,3 C 11,5 km/h 97,62 %
25.01.2021 23:33 3,1 C 92 % 1009,4 hPa 0,0 l/m 12,4 km/h SW 227 0 min 0,000 mm 0,0 UV-I 0 W/m 1,9 C -1,7 C 19,1 km/h 99,03 %
25.01.2021 23:32 3,1 C 92 % 1009,3 hPa 0,0 l/m 8,0 km/h W-SW 237 0 min 0,000 mm 0,0 UV-I 0 W/m 1,9 C 1,6 C 11,5 km/h 96,15 %
25.01.2021 23:31 3,1 C 92 % 1009,4 hPa 0,0 l/m 14,2 km/h S-SW 200 0 min 0,000 mm 0,0 UV-I 0 W/m 1,9 C -2,8 C 26,8 km/h 96,30 %
25.01.2021 23:30 3,1 C 92 % 1009,3 hPa 0,0 l/m 12,3 km/h S-SW 200 0 min 0,000 mm 0,0 UV-I 0 W/m 1,9 C -1,6 C 19,1 km/h 100,00 %
25.01.2021 23:29 3,1 C 92 % 1009,3 hPa 0,0 l/m 10,3 km/h S-SW 192 0 min 0,000 mm 0,0 UV-I 0 W/m 1,9 C -0,2 C 17,2 km/h 91,67 %
25.01.2021 23:28 3,1 C 92 % 1009,3 hPa 0,0 l/m 13,5 km/h S-SW 213 0 min 0,000 mm 0,0 UV-I 0 W/m 1,9 C -2,4 C 19,1 km/h 100,00 %
25.01.2021 23:27 3,1 C 92 % 1009,3 hPa 0,0 l/m 11,7 km/h SW 218 0 min 0,000 mm 0,0 UV-I 0 W/m 1,9 C -1,2 C 19,1 km/h 96,30 %
25.01.2021 23:26 3,1 C 92 % 1009,4 hPa 0,0 l/m 8,5 km/h S-SW 211 0 min 0,000 mm 0,0 UV-I 0 W/m 1,9 C 1,2 C 13,4 km/h 100,00 %
25.01.2021 23:25 3,0 C 92 % 1009,4 hPa 0,0 l/m 15,6 km/h S-SW 205 0 min 0,000 mm 0,0 UV-I 0 W/m 1,8 C -3,7 C 24,9 km/h 100,00 %
25.01.2021 23:24 3,0 C 92 % 1009,4 hPa 0,0 l/m 10,4 km/h S-SW 208 0 min 0,000 mm 0,0 UV-I 0 W/m 1,8 C -0,4 C 17,2 km/h 95,83 %
25.01.2021 23:23 3,0 C 92 % 1009,3 hPa 0,0 l/m 7,3 km/h S-SW 200 0 min 0,000 mm 0,0 UV-I 0 W/m 1,8 C 2,1 C 9,6 km/h 100,00 %
25.01.2021 23:22 3,0 C 92 % 1009,4 hPa 0,0 l/m 9,4 km/h S-SO 160 0 min 0,000 mm 0,0 UV-I 0 W/m 1,8 C 0,3 C 17,2 km/h 100,00 %
25.01.2021 23:21 3,0 C 92 % 1009,4 hPa 0,0 l/m 9,4 km/h S 178 0 min 0,000 mm 0,0 UV-I 0 W/m 1,8 C 0,3 C 19,1 km/h 100,00 %
25.01.2021 23:20 2,9 C 92 % 1009,4 hPa 0,0 l/m 13,5 km/h S-SW 205 0 min 0,000 mm 0,0 UV-I 0 W/m 1,7 C -2,6 C 19,1 km/h 100,00 %
25.01.2021 23:19 2,9 C 92 % 1009,4 hPa 0,0 l/m 13,8 km/h SW 215 0 min 0,000 mm 0,0 UV-I 0 W/m 1,7 C -2,8 C 19,1 km/h 96,30 %
25.01.2021 23:18 2,9 C 92 % 1009,4 hPa 0,0 l/m 9,7 km/h S 190 0 min 0,000 mm 0,0 UV-I 0 W/m 1,7 C -0,0 C 19,1 km/h 100,00 %
25.01.2021 23:17 2,9 C 92 % 1009,4 hPa 0,0 l/m 6,4 km/h S-SW 199 0 min 0,000 mm 0,0 UV-I 0 W/m 1,7 C 2,9 C 9,6 km/h 100,00 %
25.01.2021 23:16 2,9 C 92 % 1009,4 hPa 0,0 l/m 12,9 km/h SW 218 0 min 0,000 mm 0,0 UV-I 0 W/m 1,7 C -2,2 C 19,1 km/h 100,00 %
25.01.2021 23:15 2,9 C 92 % 1009,5 hPa 0,0 l/m 13,3 km/h S-SW 209 0 min 0,000 mm 0,0 UV-I 0 W/m 1,7 C -2,5 C 23,0 km/h 95,65 %
25.01.2021 23:14 2,9 C 92 % 1009,5 hPa 0,0 l/m 12,8 km/h W-SW 241 0 min 0,000 mm 0,0 UV-I 0 W/m 1,7 C -2,2 C 19,1 km/h 100,00 %
25.01.2021 23:13 2,9 C 92 % 1009,5 hPa 0,0 l/m 11,0 km/h S-SW 198 0 min 0,000 mm 0,0 UV-I 0 W/m 1,7 C -1,0 C 26,8 km/h 100,00 %
25.01.2021 23:12 2,9 C 92 % 1009,4 hPa 0,0 l/m 11,2 km/h S-SW 211 0 min 0,000 mm 0,0 UV-I 0 W/m 1,7 C -1,1 C 17,2 km/h 100,00 %
25.01.2021 23:11 2,9 C 92 % 1009,5 hPa 0,0 l/m 13,8 km/h S-SW 202 0 min 0,000 mm 0,0 UV-I 0 W/m 1,7 C -2,8 C 21,0 km/h 100,00 %
25.01.2021 23:10 2,9 C 92 % 1009,5 hPa 0,0 l/m 8,6 km/h S-SW 211 0 min 0,000 mm 0,0 UV-I 0 W/m 1,7 C 0,9 C 13,4 km/h 92,00 %
25.01.2021 23:09 2,9 C 92 % 1009,5 hPa 0,0 l/m 13,2 km/h S-SW 208 0 min 0,000 mm 0,0 UV-I 0 W/m 1,7 C -2,4 C 19,1 km/h 100,00 %
25.01.2021 23:08 2,9 C 92 % 1009,5 hPa 0,0 l/m 8,3 km/h S-SW 198 0 min 0,000 mm 0,0 UV-I 0 W/m 1,7 C 1,1 C 13,4 km/h 100,00 %
25.01.2021 23:07 2,9 C 92 % 1009,5 hPa 0,0 l/m 14,5 km/h S 174 0 min 0,000 mm 0,0 UV-I 0 W/m 1,7 C -3,2 C 26,8 km/h 100,00 %
25.01.2021 23:06 2,9 C 92 % 1009,4 hPa 0,0 l/m 12,0 km/h S 187 0 min 0,000 mm 0,0 UV-I 0 W/m 1,7 C -1,7 C 19,1 km/h 91,67 %
25.01.2021 23:05 2,9 C 92 % 1009,4 hPa 0,0 l/m 9,9 km/h S 187 0 min 0,000 mm 0,0 UV-I 0 W/m 1,7 C -0,2 C 15,3 km/h 96,15 %
25.01.2021 23:04 2,9 C 92 % 1009,5 hPa 0,0 l/m 11,8 km/h SW 225 0 min 0,000 mm 0,0 UV-I 0 W/m 1,7 C -1,5 C 17,2 km/h 100,00 %
25.01.2021 23:03 2,9 C 92 % 1009,5 hPa 0,0 l/m 15,5 km/h S-SW 205 0 min 0,000 mm 0,0 UV-I 0 W/m 1,7 C -3,7 C 24,9 km/h 100,00 %
25.01.2021 23:02 2,9 C 92 % 1009,5 hPa 0,0 l/m 15,1 km/h S-SW 213 0 min 0,000 mm 0,0 UV-I 0 W/m 1,7 C -3,5 C 21,0 km/h 100,00 %
25.01.2021 23:01 2,9 C 92 % 1009,6 hPa 0,0 l/m 11,1 km/h S-SW 200 0 min 0,000 mm 0,0 UV-I 0 W/m 1,7 C -1,0 C 19,1 km/h 94,44 %
25.01.2021 23:00 2,9 C 92 % 1009,5 hPa 0,0 l/m 9,3 km/h S-SW 211 0 min 0,000 mm 0,0 UV-I 0 W/m 1,7 C 0,3 C 13,4 km/h 100,00 %
25.01.2021 22:59 2,9 C 92 % 1009,5 hPa 0,0 l/m 8,8 km/h SW 216 0 min 0,000 mm 0,0 UV-I 0 W/m 1,7 C 0,7 C 15,3 km/h 100,00 %
25.01.2021 22:58 2,9 C 92 % 1009,5 hPa 0,0 l/m 8,4 km/h SW 217 0 min 0,000 mm 0,0 UV-I 0 W/m 1,7 C 1,0 C 15,3 km/h 100,00 %
25.01.2021 22:57 2,9 C 92 % 1009,6 hPa 0,0 l/m 9,5 km/h S-SW 205 0 min 0,000 mm 0,0 UV-I 0 W/m 1,7 C 0,1 C 19,1 km/h 96,67 %
25.01.2021 22:56 2,9 C 91 % 1009,6 hPa 0,0 l/m 7,3 km/h S-SW 203 0 min 0,000 mm 0,0 UV-I 0 W/m 1,6 C 2,0 C 13,4 km/h 100,00 %
25.01.2021 22:55 2,9 C 91 % 1009,6 hPa 0,0 l/m 13,6 km/h S-SW 194 0 min 0,000 mm 0,0 UV-I 0 W/m 1,6 C -2,7 C 21,0 km/h 100,00 %
25.01.2021 22:54 2,9 C 91 % 1009,6 hPa 0,0 l/m 10,8 km/h S-SW 198 0 min 0,000 mm 0,0 UV-I 0 W/m 1,6 C -0,8 C 23,0 km/h 96,88 %
25.01.2021 22:53 2,9 C 91 % 1009,5 hPa 0,0 l/m 15,0 km/h SW 214 0 min 0,000 mm 0,0 UV-I 0 W/m 1,6 C -3,5 C 21,0 km/h 100,00 %
25.01.2021 22:52 2,9 C 91 % 1009,5 hPa 0,0 l/m 13,7 km/h SW 228 0 min 0,000 mm 0,0 UV-I 0 W/m 1,6 C -2,7 C 19,1 km/h 100,00 %
25.01.2021 22:51 2,9 C 91 % 1009,6 hPa 0,0 l/m 14,9 km/h S 184 0 min 0,000 mm 0,0 UV-I 0 W/m 1,6 C -3,4 C 21,0 km/h 100,00 %
25.01.2021 22:50 2,9 C 91 % 1009,6 hPa 0,0 l/m 10,0 km/h S-SW 207 0 min 0,000 mm 0,0 UV-I 0 W/m 1,6 C -0,2 C 21,0 km/h 100,00 %
25.01.2021 22:49 2,9 C 91 % 1009,5 hPa 0,0 l/m 8,2 km/h S-SW 201 0 min 0,000 mm 0,0 UV-I 0 W/m 1,6 C 1,2 C 13,4 km/h 100,00 %
25.01.2021 22:48 2,9 C 91 % 1009,5 hPa 0,0 l/m 7,5 km/h SW 215 0 min 0,000 mm 0,0 UV-I 0 W/m 1,6 C 1,9 C 13,4 km/h 96,15 %
25.01.2021 22:47 2,9 C 91 % 1009,5 hPa 0,0 l/m 11,9 km/h SW 231 0 min 0,000 mm 0,0 UV-I 0 W/m 1,6 C -1,6 C 19,1 km/h 100,00 %
25.01.2021 22:46 2,9 C 92 % 1009,5 hPa 0,0 l/m 15,5 km/h S 190 0 min 0,000 mm 0,0 UV-I 0 W/m 1,7 C -3,7 C 23,0 km/h 100,00 %
25.01.2021 22:45 2,9 C 92 % 1009,4 hPa 0,0 l/m 11,4 km/h S-SW 211 0 min 0,000 mm 0,0 UV-I 0 W/m 1,7 C -1,3 C 19,1 km/h 100,00 %
25.01.2021 22:44 2,9 C 92 % 1009,5 hPa 0,0 l/m 14,1 km/h S-SW 213 0 min 0,000 mm 0,0 UV-I 0 W/m 1,7 C -3,0 C 21,0 km/h 100,00 %
25.01.2021 22:43 2,9 C 92 % 1009,4 hPa 0,0 l/m 10,2 km/h S-SW 201 0 min 0,000 mm 0,0 UV-I 0 W/m 1,7 C -0,4 C 15,3 km/h 100,00 %
25.01.2021 22:42 2,9 C 92 % 1009,5 hPa 0,0 l/m 12,2 km/h S-SW 211 0 min 0,000 mm 0,0 UV-I 0 W/m 1,7 C -1,8 C 19,1 km/h 100,00 %
25.01.2021 22:41 3,0 C 92 % 1009,4 hPa 0,0 l/m 7,6 km/h SW 215 0 min 0,000 mm 0,0 UV-I 0 W/m 1,8 C 1,9 C 17,2 km/h 100,00 %
25.01.2021 22:40 3,0 C 92 % 1009,4 hPa 0,0 l/m 11,4 km/h S-SW 209 0 min 0,000 mm 0,0 UV-I 0 W/m 1,8 C -1,1 C 19,1 km/h 100,00 %
25.01.2021 22:39 3,0 C 92 % 1009,4 hPa 0,0 l/m 11,3 km/h S-SW 197 0 min 0,000 mm 0,0 UV-I 0 W/m 1,8 C -1,1 C 15,3 km/h 100,00 %
25.01.2021 22:38 3,0 C 92 % 1009,3 hPa 0,0 l/m 9,2 km/h S-SW 211 0 min 0,000 mm 0,0 UV-I 0 W/m 1,8 C 0,5 C 19,1 km/h 100,00 %
25.01.2021 22:37 3,0 C 92 % 1009,4 hPa 0,0 l/m 9,6 km/h SW 221 0 min 0,000 mm 0,0 UV-I 0 W/m 1,8 C 0,2 C 13,4 km/h 100,00 %
25.01.2021 22:36 2,9 C 92 % 1009,4 hPa 0,0 l/m 9,1 km/h S 188 0 min 0,000 mm 0,0 UV-I 0 W/m 1,7 C 0,5 C 15,3 km/h 100,00 %
25.01.2021 22:35 3,0 C 92 % 1009,4 hPa 0,0 l/m 9,1 km/h S-SW 210 0 min 0,000 mm 0,0 UV-I 0 W/m 1,8 C 0,6 C 13,4 km/h 100,00 %
25.01.2021 22:34 3,0 C 91 % 1009,4 hPa 0,0 l/m 9,9 km/h S-SW 207 0 min 0,000 mm 0,0 UV-I 0 W/m 1,7 C -0,1 C 15,3 km/h 100,00 %
25.01.2021 22:33 3,0 C 91 % 1009,4 hPa 0,0 l/m 6,9 km/h S-SW 210 0 min 0,000 mm 0,0 UV-I 0 W/m 1,7 C 2,5 C 13,4 km/h 100,00 %
25.01.2021 22:32 2,9 C 91 % 1009,4 hPa 0,0 l/m 6,3 km/h S-SW 207 0 min 0,000 mm 0,0 UV-I 0 W/m 1,6 C 2,9 C 9,6 km/h 100,00 %
25.01.2021 22:31 3,0 C 91 % 1009,4 hPa 0,0 l/m 7,1 km/h S-SW 207 0 min 0,000 mm 0,0 UV-I 0 W/m 1,7 C 2,3 C 9,6 km/h 95,83 %
25.01.2021 22:30 3,0 C 91 % 1009,4 hPa 0,0 l/m 9,8 km/h S-SW 209 0 min 0,000 mm 0,0 UV-I 0 W/m 1,7 C 0,0 C 21,0 km/h 97,56 %
25.01.2021 22:29 2,9 C 91 % 1009,4 hPa 0,0 l/m 7,7 km/h S-SW 213 0 min 0,000 mm 0,0 UV-I 0 W/m 1,6 C 1,7 C 17,2 km/h 99,04 %
25.01.2021 22:28 2,9 C 91 % 1009,4 hPa 0,0 l/m 8,4 km/h S-SW 198 0 min 0,000 mm 0,0 UV-I 0 W/m 1,6 C 1,0 C 17,2 km/h 100,00 %
25.01.2021 22:27 2,9 C 91 % 1009,3 hPa 0,0 l/m 10,3 km/h S-SW 209 0 min 0,000 mm 0,0 UV-I 0 W/m 1,6 C -0,5 C 15,3 km/h 100,00 %
25.01.2021 22:26 2,9 C 91 % 1009,3 hPa 0,0 l/m 7,4 km/h S-SW 205 0 min 0,000 mm 0,0 UV-I 0 W/m 1,6 C 1,9 C 11,5 km/h 100,00 %
25.01.2021 22:25 2,9 C 91 % 1009,4 hPa 0,0 l/m 11,2 km/h S-SW 204 0 min 0,000 mm 0,0 UV-I 0 W/m 1,6 C -1,1 C 19,1 km/h 100,00 %
25.01.2021 22:24 2,9 C 91 % 1009,3 hPa 0,0 l/m 10,8 km/h S-SW 205 0 min 0,000 mm 0,0 UV-I 0 W/m 1,6 C -0,8 C 15,3 km/h 100,00 %
25.01.2021 22:23 2,9 C 91 % 1009,3 hPa 0,0 l/m 11,1 km/h SW 230 0 min 0,000 mm 0,0 UV-I 0 W/m 1,6 C -1,0 C 19,1 km/h 100,00 %
25.01.2021 22:22 2,9 C 91 % 1009,4 hPa 0,0 l/m 10,4 km/h S-SW 200 0 min 0,000 mm 0,0 UV-I 0 W/m 1,6 C -0,5 C 15,3 km/h 100,00 %
25.01.2021 22:21 2,9 C 91 % 1009,4 hPa 0,0 l/m 10,2 km/h SW 218 0 min 0,000 mm 0,0 UV-I 0 W/m 1,6 C -0,4 C 15,3 km/h 100,00 %
25.01.2021 22:20 2,9 C 91 % 1009,4 hPa 0,0 l/m 13,5 km/h S-SW 212 0 min 0,000 mm 0,0 UV-I 0 W/m 1,6 C -2,6 C 17,2 km/h 100,00 %
25.01.2021 22:19 2,9 C 91 % 1009,3 hPa 0,0 l/m 9,5 km/h S-SW 192 0 min 0,000 mm 0,0 UV-I 0 W/m 1,6 C 0,1 C 21,0 km/h 100,00 %
25.01.2021 22:18 2,9 C 91 % 1009,4 hPa 0,0 l/m 12,4 km/h SW 223 0 min 0,000 mm 0,0 UV-I 0 W/m 1,6 C -1,9 C 23,0 km/h 100,00 %
25.01.2021 22:17 2,9 C 91 % 1009,4 hPa 0,0 l/m 12,5 km/h S 179 0 min 0,000 mm 0,0 UV-I 0 W/m 1,6 C -2,0 C 21,0 km/h 100,00 %
25.01.2021 22:16 2,9 C 91 % 1009,4 hPa 0,0 l/m 9,3 km/h S-SW 197 0 min 0,000 mm 0,0 UV-I 0 W/m 1,6 C 0,3 C 13,4 km/h 100,00 %
25.01.2021 22:15 2,9 C 91 % 1009,4 hPa 0,0 l/m 5,4 km/h SW 217 0 min 0,000 mm 0,0 UV-I 0 W/m 1,6 C 2,9 C 9,6 km/h 100,00 %
25.01.2021 22:14 2,9 C 91 % 1009,4 hPa 0,0 l/m 8,5 km/h SW 222 0 min 0,000 mm 0,0 UV-I 0 W/m 1,6 C 1,0 C 15,3 km/h 100,00 %
25.01.2021 22:13 2,9 C 91 % 1009,4 hPa 0,0 l/m 8,1 km/h S 188 0 min 0,000 mm 0,0 UV-I 0 W/m 1,6 C 1,3 C 15,3 km/h 100,00 %
25.01.2021 22:12 2,9 C 91 % 1009,4 hPa 0,0 l/m 11,4 km/h S-SW 192 0 min 0,000 mm 0,0 UV-I 0 W/m 1,6 C -1,3 C 19,1 km/h 100,00 %
25.01.2021 22:11 2,9 C 91 % 1009,4 hPa 0,0 l/m 8,1 km/h S-SW 195 0 min 0,000 mm 0,0 UV-I 0 W/m 1,6 C 1,3 C 13,4 km/h 100,00 %
25.01.2021 22:10 2,9 C 91 % 1009,4 hPa 0,0 l/m 10,6 km/h S-SO 159 0 min 0,000 mm 0,0 UV-I 0 W/m 1,6 C -0,7 C 17,2 km/h 95,65 %
25.01.2021 22:09 2,9 C 91 % 1009,4 hPa 0,0 l/m 10,8 km/h S-SW 213 0 min 0,000 mm 0,0 UV-I 0 W/m 1,6 C -0,8 C 17,2 km/h 100,00 %
25.01.2021 22:08 2,9 C 91 % 1009,4 hPa 0,0 l/m 8,6 km/h S-SW 213 0 min 0,000 mm 0,0 UV-I 0 W/m 1,6 C 0,9 C 15,3 km/h 100,00 %
25.01.2021 22:07 2,9 C 91 % 1009,4 hPa 0,0 l/m 11,1 km/h SW 230 0 min 0,000 mm 0,0 UV-I 0 W/m 1,6 C -1,0 C 15,3 km/h 100,00 %
25.01.2021 22:06 2,8 C 91 % 1009,4 hPa 0,0 l/m 6,3 km/h SW 227 0 min 0,000 mm 0,0 UV-I 0 W/m 1,5 C 2,8 C 11,5 km/h 100,00 %
25.01.2021 22:05 2,9 C 91 % 1009,5 hPa 0,0 l/m 8,4 km/h S-SW 205 0 min 0,000 mm 0,0 UV-I 0 W/m 1,6 C 1,0 C 21,0 km/h 95,83 %
25.01.2021 22:04 2,8 C 91 % 1009,4 hPa 0,0 l/m 9,4 km/h SW 214 0 min 0,000 mm 0,0 UV-I 0 W/m 1,5 C 0,1 C 13,4 km/h 100,00 %
25.01.2021 22:03 2,8 C 91 % 1009,5 hPa 0,0 l/m 7,7 km/h S-SW 211 0 min 0,000 mm 0,0 UV-I 0 W/m 1,5 C 1,6 C 13,4 km/h 100,00 %
25.01.2021 22:02 2,8 C 91 % 1009,4 hPa 0,0 l/m 8,6 km/h S-SW 197 0 min 0,000 mm 0,0 UV-I 0 W/m 1,5 C 0,8 C 13,4 km/h 100,00 %
25.01.2021 22:01 2,8 C 91 % 1009,4 hPa 0,0 l/m 8,0 km/h S-SW 210 0 min 0,000 mm 0,0 UV-I 0 W/m 1,5 C 1,3 C 15,3 km/h 100,00 %
25.01.2021 22:00 2,8 C 91 % 1009,4 hPa 0,0 l/m 10,4 km/h S-SW 205 0 min 0,000 mm 0,0 UV-I 0 W/m 1,5 C -0,7 C 17,2 km/h 100,00 %
25.01.2021 21:59 2,8 C 91 % 1009,4 hPa 0,0 l/m 7,4 km/h S-SW 197 0 min 0,000 mm 0,0 UV-I 0 W/m 1,5 C 1,8 C 13,4 km/h 100,00 %
25.01.2021 21:58 2,8 C 91 % 1009,4 hPa 0,0 l/m 12,2 km/h S-SW 206 0 min 0,000 mm 0,0 UV-I 0 W/m 1,5 C -1,9 C 24,9 km/h 100,00 %
25.01.2021 21:57 2,8 C 91 % 1009,4 hPa 0,0 l/m 7,2 km/h S-SO 157 0 min 0,000 mm 0,0 UV-I 0 W/m 1,5 C 2,0 C 13,4 km/h 95,65 %
25.01.2021 21:56 2,8 C 91 % 1009,5 hPa 0,0 l/m 5,5 km/h S-SW 192 0 min 0,000 mm 0,0 UV-I 0 W/m 1,5 C 2,8 C 11,5 km/h 100,00 %
25.01.2021 21:55 2,8 C 91 % 1009,4 hPa 0,0 l/m 8,4 km/h S-SW 194 0 min 0,000 mm 0,0 UV-I 0 W/m 1,5 C 0,9 C 13,4 km/h 100,00 %
25.01.2021 21:54 2,8 C 91 % 1009,4 hPa 0,0 l/m 6,8 km/h SW 219 0 min 0,000 mm 0,0 UV-I 0 W/m 1,5 C 2,4 C 9,6 km/h 100,00 %
25.01.2021 21:53 2,8 C 91 % 1009,4 hPa 0,0 l/m 7,1 km/h SW 221 0 min 0,000 mm 0,0 UV-I 0 W/m 1,5 C 2,1 C 9,6 km/h 100,00 %
25.01.2021 21:52 2,8 C 91 % 1009,4 hPa 0,0 l/m 11,4 km/h S 180 0 min 0,000 mm 0,0 UV-I 0 W/m 1,5 C -1,4 C 17,2 km/h 100,00 %
25.01.2021 21:51 2,8 C 91 % 1009,4 hPa 0,0 l/m 9,9 km/h S-SW 213 0 min 0,000 mm 0,0 UV-I 0 W/m 1,5 C -0,3 C 17,2 km/h 100,00 %
25.01.2021 21:50 2,8 C 91 % 1009,4 hPa 0,0 l/m 11,2 km/h S 169 0 min 0,000 mm 0,0 UV-I 0 W/m 1,5 C -1,2 C 19,1 km/h 100,00 %
25.01.2021 21:49 2,8 C 91 % 1009,4 hPa 0,0 l/m 10,4 km/h S-SW 207 0 min 0,000 mm 0,0 UV-I 0 W/m 1,5 C -0,7 C 21,0 km/h 100,00 %
25.01.2021 21:48 2,8 C 91 % 1009,4 hPa 0,0 l/m 11,9 km/h S-SW 209 0 min 0,000 mm 0,0 UV-I 0 W/m 1,5 C -1,7 C 19,1 km/h 100,00 %
25.01.2021 21:47 2,7 C 91 % 1009,4 hPa 0,0 l/m 12,0 km/h S 169 0 min 0,000 mm 0,0 UV-I 0 W/m 1,4 C -1,9 C 19,1 km/h 100,00 %
25.01.2021 21:46 2,7 C 91 % 1009,3 hPa 0,0 l/m 7,3 km/h S 175 0 min 0,000 mm 0,0 UV-I 0 W/m 1,4 C 1,8 C 13,4 km/h 92,86 %
25.01.2021 21:45 2,7 C 91 % 1009,4 hPa 0,0 l/m 8,4 km/h S 189 0 min 0,000 mm 0,0 UV-I 0 W/m 1,4 C 0,8 C 17,2 km/h 100,00 %
25.01.2021 21:44 2,7 C 91 % 1009,3 hPa 0,0 l/m 5,5 km/h S 186 0 min 0,000 mm 0,0 UV-I 0 W/m 1,4 C 2,7 C 9,6 km/h 100,00 %
25.01.2021 21:43 2,7 C 91 % 1009,4 hPa 0,0 l/m 7,0 km/h S 182 0 min 0,000 mm 0,0 UV-I 0 W/m 1,4 C 2,1 C 19,1 km/h 100,00 %
25.01.2021 21:42 2,7 C 91 % 1009,3 hPa 0,0 l/m 8,3 km/h S-SO 164 0 min 0,000 mm 0,0 UV-I 0 W/m 1,4 C 0,9 C 13,4 km/h 100,00 %
25.01.2021 21:41 2,7 C 91 % 1009,3 hPa 0,0 l/m 7,2 km/h S 189 0 min 0,000 mm 0,0 UV-I 0 W/m 1,4 C 1,9 C 13,4 km/h 100,00 %
25.01.2021 21:40 2,7 C 91 % 1009,4 hPa 0,0 l/m 9,0 km/h S 178 0 min 0,000 mm 0,0 UV-I 0 W/m 1,4 C 0,3 C 13,4 km/h 100,00 %
25.01.2021 21:39 2,7 C 91 % 1009,3 hPa 0,0 l/m 8,1 km/h S 185 0 min 0,000 mm 0,0 UV-I 0 W/m 1,4 C 1,1 C 11,5 km/h 100,00 %
25.01.2021 21:38 2,7 C 91 % 1009,3 hPa 0,0 l/m 9,4 km/h S-SW 205 0 min 0,000 mm 0,0 UV-I 0 W/m 1,4 C 0,0 C 11,5 km/h 100,00 %
25.01.2021 21:37 2,7 C 91 % 1009,3 hPa 0,0 l/m 5,5 km/h S 175 0 min 0,000 mm 0,0 UV-I 0 W/m 1,4 C 2,7 C 9,6 km/h 100,00 %
25.01.2021 21:36 2,7 C 91 % 1009,3 hPa 0,0 l/m 9,4 km/h S 169 0 min 0,000 mm 0,0 UV-I 0 W/m 1,4 C 0,0 C 13,4 km/h 96,15 %
25.01.2021 21:35 2,7 C 91 % 1009,3 hPa 0,0 l/m 12,0 km/h S-SO 163 0 min 0,000 mm 0,0 UV-I 0 W/m 1,4 C -1,9 C 19,1 km/h 100,00 %
25.01.2021 21:34 2,7 C 91 % 1009,3 hPa 0,0 l/m 8,9 km/h SW 217 0 min 0,000 mm 0,0 UV-I 0 W/m 1,4 C 0,4 C 19,1 km/h 100,00 %
25.01.2021 21:33 2,7 C 91 % 1009,3 hPa 0,0 l/m 12,2 km/h S-SW 209 0 min 0,000 mm 0,0 UV-I 0 W/m 1,4 C -2,0 C 17,2 km/h 100,00 %
25.01.2021 21:32 2,7 C 91 % 1009,4 hPa 0,0 l/m 6,6 km/h S-SW 209 0 min 0,000 mm 0,0 UV-I 0 W/m 1,4 C 2,5 C 11,5 km/h 100,00 %
25.01.2021 21:31 2,7 C 90 % 1009,4 hPa 0,0 l/m 5,8 km/h S-SW 198 0 min 0,000 mm 0,0 UV-I 0 W/m 1,2 C 2,7 C 11,5 km/h 100,00 %
25.01.2021 21:30 2,7 C 90 % 1009,3 hPa 0,0 l/m 6,1 km/h S 190 0 min 0,000 mm 0,0 UV-I 0 W/m 1,2 C 2,7 C 13,4 km/h 95,65 %
25.01.2021 21:29 2,7 C 90 % 1009,4 hPa 0,0 l/m 11,0 km/h S-SO 148 0 min 0,000 mm 0,0 UV-I 0 W/m 1,2 C -1,2 C 15,3 km/h 100,00 %
25.01.2021 21:28 2,7 C 90 % 1009,4 hPa 0,0 l/m 5,8 km/h S-SO 159 0 min 0,000 mm 0,0 UV-I 0 W/m 1,2 C 2,7 C 11,5 km/h 100,00 %
25.01.2021 21:27 2,7 C 90 % 1009,5 hPa 0,0 l/m 7,0 km/h S-SW 202 0 min 0,000 mm 0,0 UV-I 0 W/m 1,2 C 2,1 C 9,6 km/h 97,62 %
25.01.2021 21:26 2,7 C 90 % 1009,4 hPa 0,0 l/m 7,7 km/h S 180 0 min 0,000 mm 0,0 UV-I 0 W/m 1,2 C 1,5 C 13,4 km/h 99,02 %
25.01.2021 21:25 2,7 C 90 % 1009,4 hPa 0,0 l/m 7,1 km/h S-SW 204 0 min 0,000 mm 0,0 UV-I 0 W/m 1,2 C 2,0 C 17,2 km/h 96,15 %
25.01.2021 21:24 2,7 C 90 % 1009,4 hPa 0,0 l/m 4,6 km/h S 187 0 min 0,000 mm 0,0 UV-I 0 W/m 1,2 C 2,7 C 7,7 km/h 100,00 %
25.01.2021 21:23 2,7 C 90 % 1009,4 hPa 0,2 l/m 9,4 km/h SW 216 0 min 0,000 mm 0,0 UV-I 0 W/m 1,2 C 0,0 C 15,3 km/h 100,00 %
25.01.2021 21:22 2,7 C 90 % 1009,4 hPa 0,0 l/m 9,5 km/h S 181 0 min 0,000 mm 0,0 UV-I 0 W/m 1,2 C -0,1 C 13,4 km/h 96,30 %
25.01.2021 21:21 2,7 C 90 % 1009,4 hPa 0,0 l/m 9,5 km/h S-SW 203 0 min 0,000 mm 0,0 UV-I 0 W/m 1,2 C -0,1 C 17,2 km/h 100,00 %
25.01.2021 21:20 2,7 C 90 % 1009,4 hPa 0,0 l/m 10,6 km/h S 180 0 min 0,000 mm 0,0 UV-I 0 W/m 1,2 C -0,9 C 19,1 km/h 100,00 %
25.01.2021 21:19 2,7 C 90 % 1009,4 hPa 0,0 l/m 9,3 km/h S-SW 203 0 min 0,000 mm 0,0 UV-I 0 W/m 1,2 C 0,1 C 15,3 km/h 95,83 %
25.01.2021 21:18 2,7 C 90 % 1009,4 hPa 0,0 l/m 8,9 km/h S 188 0 min 0,000 mm 0,0 UV-I 0 W/m 1,2 C 0,4 C 17,2 km/h 100,00 %
25.01.2021 21:17 2,7 C 90 % 1009,4 hPa 0,0 l/m 9,6 km/h S 189 0 min 0,000 mm 0,0 UV-I 0 W/m 1,2 C -0,2 C 13,4 km/h 100,00 %
25.01.2021 21:16 2,7 C 90 % 1009,4 hPa 0,0 l/m 7,1 km/h S-SO 168 0 min 0,000 mm 0,0 UV-I 0 W/m 1,2 C 2,0 C 13,4 km/h 100,00 %
25.01.2021 21:15 2,7 C 90 % 1009,4 hPa 0,0 l/m 7,3 km/h S-SW 204 0 min 0,000 mm 0,0 UV-I 0 W/m 1,2 C 1,8 C 15,3 km/h 100,00 %
25.01.2021 21:14 2,7 C 90 % 1009,4 hPa 0,0 l/m 8,3 km/h S-SW 193 0 min 0,000 mm 0,0 UV-I 0 W/m 1,2 C 0,9 C 17,2 km/h 100,00 %
25.01.2021 21:13 2,7 C 90 % 1009,4 hPa 0,0 l/m 5,7 km/h S 188 0 min 0,000 mm 0,0 UV-I 0 W/m 1,2 C 2,7 C 9,6 km/h 100,00 %
25.01.2021 21:12 2,7 C 90 % 1009,4 hPa 0,0 l/m 10,0 km/h S 187 0 min 0,000 mm 0,0 UV-I 0 W/m 1,2 C -0,5 C 17,2 km/h 100,00 %
25.01.2021 21:11 2,7 C 90 % 1009,4 hPa 0,0 l/m 5,4 km/h S 188 0 min 0,000 mm 0,0 UV-I 0 W/m 1,2 C 2,7 C 9,6 km/h 100,00 %
25.01.2021 21:10 2,7 C 90 % 1009,5 hPa 0,0 l/m 11,2 km/h S-SW 195 0 min 0,000 mm 0,0 UV-I 0 W/m 1,2 C -1,3 C 19,1 km/h 100,00 %
25.01.2021 21:09 2,7 C 90 % 1009,4 hPa 0,0 l/m 11,1 km/h S 181 0 min 0,000 mm 0,0 UV-I 0 W/m 1,2 C -1,3 C 15,3 km/h 100,00 %
25.01.2021 21:08 2,7 C 90 % 1009,5 hPa 0,0 l/m 11,0 km/h S 180 0 min 0,000 mm 0,0 UV-I 0 W/m 1,2 C -1,2 C 19,1 km/h 100,00 %
25.01.2021 21:07 2,7 C 90 % 1009,5 hPa 0,0 l/m 5,1 km/h S 184 0 min 0,000 mm 0,0 UV-I 0 W/m 1,2 C 2,7 C 7,7 km/h 100,00 %
25.01.2021 21:06 2,7 C 90 % 1009,5 hPa 0,0 l/m 8,7 km/h S 182 0 min 0,000 mm 0,0 UV-I 0 W/m 1,2 C 0,6 C 11,5 km/h 100,00 %
25.01.2021 21:05 2,7 C 90 % 1009,5 hPa 0,0 l/m 7,5 km/h S-SW 196 0 min 0,000 mm 0,0 UV-I 0 W/m 1,2 C 1,6 C 11,5 km/h 100,00 %
25.01.2021 21:04 2,7 C 90 % 1009,5 hPa 0,0 l/m 7,7 km/h S-SW 197 0 min 0,000 mm 0,0 UV-I 0 W/m 1,2 C 1,5 C 17,2 km/h 100,00 %
25.01.2021 21:03 2,7 C 90 % 1009,4 hPa 0,0 l/m 5,7 km/h S-SW 204 0 min 0,000 mm 0,0 UV-I 0 W/m 1,2 C 2,7 C 9,6 km/h 100,00 %
25.01.2021 21:02 2,7 C 90 % 1009,5 hPa 0,0 l/m 4,9 km/h S 180 0 min 0,000 mm 0,0 UV-I 0 W/m 1,2 C 2,7 C 9,6 km/h 100,00 %
25.01.2021 21:01 2,7 C 90 % 1009,4 hPa 0,0 l/m 7,5 km/h S 184 0 min 0,000 mm 0,0 UV-I 0 W/m 1,2 C 1,6 C 13,4 km/h 95,83 %
25.01.2021 21:00 2,7 C 90 % 1009,5 hPa 0,0 l/m 9,4 km/h S-SW 201 0 min 0,000 mm 0,0 UV-I 0 W/m 1,2 C 0,0 C 15,3 km/h 95,65 %
25.01.2021 20:59 2,7 C 90 % 1009,5 hPa 0,0 l/m 8,1 km/h S 185 0 min 0,000 mm 0,0 UV-I 0 W/m 1,2 C 1,1 C 11,5 km/h 100,00 %
25.01.2021 20:58 2,7 C 90 % 1009,5 hPa 0,0 l/m 7,3 km/h S 184 0 min 0,000 mm 0,0 UV-I 0 W/m 1,2 C 1,8 C 17,2 km/h 100,00 %
25.01.2021 20:57 2,7 C 90 % 1009,5 hPa 0,0 l/m 7,1 km/h S 180 0 min 0,000 mm 0,0 UV-I 0 W/m 1,2 C 2,0 C 17,2 km/h 100,00 %
25.01.2021 20:56 2,7 C 90 % 1009,5 hPa 0,0 l/m 6,3 km/h S 177 0 min 0,000 mm 0,0 UV-I 0 W/m 1,2 C 2,7 C 9,6 km/h 100,00 %
25.01.2021 20:55 2,7 C 90 % 1009,5 hPa 0,0 l/m 7,2 km/h S 175 0 min 0,000 mm 0,0 UV-I 0 W/m 1,2 C 1,9 C 11,5 km/h 100,00 %
25.01.2021 20:54 2,7 C 90 % 1009,5 hPa 0,0 l/m 3,0 km/h S 186 0 min 0,000 mm 0,0 UV-I 0 W/m 1,2 C 2,7 C 5,7 km/h 96,55 %
25.01.2021 20:53 2,7 C 90 % 1009,5 hPa 0,0 l/m 5,4 km/h S-SW 194 0 min 0,000 mm 0,0 UV-I 0 W/m 1,2 C 2,7 C 9,6 km/h 100,00 %
25.01.2021 20:52 2,7 C 90 % 1009,5 hPa 0,0 l/m 6,3 km/h S-SW 206 0 min 0,000 mm 0,0 UV-I 0 W/m 1,2 C 2,7 C 7,7 km/h 100,00 %
25.01.2021 20:51 2,7 C 89 % 1009,5 hPa 0,0 l/m 8,4 km/h S-SW 209 0 min 0,000 mm 0,0 UV-I 0 W/m 1,1 C 0,8 C 15,3 km/h 100,00 %
25.01.2021 20:50 2,7 C 89 % 1009,4 hPa 0,0 l/m 8,3 km/h S-SW 200 0 min 0,000 mm 0,0 UV-I 0 W/m 1,1 C 0,9 C 11,5 km/h 100,00 %
25.01.2021 20:49 2,7 C 89 % 1009,5 hPa 0,0 l/m 4,7 km/h S 182 0 min 0,000 mm 0,0 UV-I 0 W/m 1,1 C 2,7 C 7,7 km/h 100,00 %
25.01.2021 20:48 2,7 C 89 % 1009,4 hPa 0,0 l/m 9,1 km/h S-SO 167 0 min 0,000 mm 0,0 UV-I 0 W/m 1,1 C 0,2 C 11,5 km/h 100,00 %
25.01.2021 20:47 2,7 C 89 % 1009,5 hPa 0,0 l/m 7,7 km/h S 190 0 min 0,000 mm 0,0 UV-I 0 W/m 1,1 C 1,5 C 15,3 km/h 100,00 %
25.01.2021 20:46 2,7 C 89 % 1009,4 hPa 0,0 l/m 5,4 km/h S 181 0 min 0,000 mm 0,0 UV-I 0 W/m 1,1 C 2,7 C 7,7 km/h 100,00 %
25.01.2021 20:45 2,7 C 89 % 1009,4 hPa 0,0 l/m 10,7 km/h S 189 0 min 0,000 mm 0,0 UV-I 0 W/m 1,1 C -1,0 C 15,3 km/h 100,00 %
25.01.2021 20:44 2,7 C 89 % 1009,4 hPa 0,0 l/m 6,2 km/h S 191 0 min 0,000 mm 0,0 UV-I 0 W/m 1,1 C 2,7 C 13,4 km/h 100,00 %
25.01.2021 20:43 2,7 C 89 % 1009,4 hPa 0,0 l/m 9,5 km/h S 184 0 min 0,000 mm 0,0 UV-I 0 W/m 1,1 C -0,1 C 15,3 km/h 100,00 %
25.01.2021 20:42 2,7 C 89 % 1009,4 hPa 0,0 l/m 7,8 km/h S-SW 210 0 min 0,000 mm 0,0 UV-I 0 W/m 1,1 C 1,4 C 13,4 km/h 100,00 %
25.01.2021 20:41 2,7 C 89 % 1009,4 hPa 0,0 l/m 9,1 km/h SW 229 0 min 0,000 mm 0,0 UV-I 0 W/m 1,1 C 0,2 C 17,2 km/h 100,00 %
25.01.2021 20:40 2,7 C 89 % 1009,4 hPa 0,0 l/m 9,3 km/h S-SO 163 0 min 0,000 mm 0,0 UV-I 0 W/m 1,1 C 0,1 C 13,4 km/h 100,00 %
25.01.2021 20:39 2,7 C 89 % 1009,4 hPa 0,0 l/m 7,2 km/h S-SW 192 0 min 0,000 mm 0,0 UV-I 0 W/m 1,1 C 1,9 C 11,5 km/h 100,00 %
25.01.2021 20:38 2,7 C 89 % 1009,4 hPa 0,0 l/m 8,6 km/h S 188 0 min 0,000 mm 0,0 UV-I 0 W/m 1,1 C 0,7 C 17,2 km/h 100,00 %
25.01.2021 20:37 2,7 C 89 % 1009,4 hPa 0,0 l/m 8,7 km/h S-SW 205 0 min 0,000 mm 0,0 UV-I 0 W/m 1,1 C 0,6 C 11,5 km/h 100,00 %
25.01.2021 20:36 2,7 C 89 % 1009,4 hPa 0,0 l/m 9,8 km/h S 189 0 min 0,000 mm 0,0 UV-I 0 W/m 1,1 C -0,3 C 15,3 km/h 100,00 %
25.01.2021 20:35 2,7 C 89 % 1009,4 hPa 0,0 l/m 8,5 km/h S 189 0 min 0,000 mm 0,0 UV-I 0 W/m 1,1 C 0,7 C 13,4 km/h 100,00 %
25.01.2021 20:34 2,7 C 89 % 1009,4 hPa 0,0 l/m 6,6 km/h S 180 0 min 0,000 mm 0,0 UV-I 0 W/m 1,1 C 2,5 C 13,4 km/h 96,30 %
25.01.2021 20:33 2,7 C 89 % 1009,4 hPa 0,0 l/m 7,4 km/h S-SW 211 0 min 0,000 mm 0,0 UV-I 0 W/m 1,1 C 1,7 C 13,4 km/h 100,00 %
25.01.2021 20:32 2,7 C 89 % 1009,4 hPa 0,0 l/m 8,1 km/h S 171 0 min 0,000 mm 0,0 UV-I 0 W/m 1,1 C 1,1 C 13,4 km/h 100,00 %
25.01.2021 20:31 2,7 C 89 % 1009,4 hPa 0,0 l/m 5,5 km/h S 178 0 min 0,000 mm 0,0 UV-I 0 W/m 1,1 C 2,7 C 9,6 km/h 100,00 %
25.01.2021 20:30 2,7 C 89 % 1009,4 hPa 0,0 l/m 10,2 km/h S-SO 167 0 min 0,000 mm 0,0 UV-I 0 W/m 1,1 C -0,6 C 17,2 km/h 100,00 %
25.01.2021 20:29 2,7 C 89 % 1009,4 hPa 0,0 l/m 7,3 km/h S-SW 196 0 min 0,000 mm 0,0 UV-I 0 W/m 1,1 C 1,8 C 15,3 km/h 95,65 %
25.01.2021 20:28 2,7 C 89 % 1009,4 hPa 0,0 l/m 7,8 km/h S 171 0 min 0,000 mm 0,0 UV-I 0 W/m 1,1 C 1,4 C 13,4 km/h 100,00 %
25.01.2021 20:27 2,7 C 89 % 1009,4 hPa 0,0 l/m 4,9 km/h S 184 0 min 0,000 mm 0,0 UV-I 0 W/m 1,1 C 2,7 C 7,7 km/h 100,00 %
25.01.2021 20:26 2,7 C 89 % 1009,3 hPa 0,0 l/m 5,7 km/h S-SW 193 0 min 0,000 mm 0,0 UV-I 0 W/m 1,1 C 2,7 C 9,6 km/h 100,00 %
25.01.2021 20:25 2,7 C 89 % 1009,4 hPa 0,0 l/m 10,5 km/h S 173 0 min 0,000 mm 0,0 UV-I 0 W/m 1,1 C -0,8 C 15,3 km/h 100,00 %
25.01.2021 20:24 2,7 C 89 % 1009,3 hPa 0,0 l/m 7,8 km/h S-SO 165 0 min 0,000 mm 0,0 UV-I 0 W/m 1,1 C 1,4 C 19,1 km/h 97,73 %
25.01.2021 20:23 2,7 C 89 % 1009,4 hPa 0,0 l/m 7,8 km/h S-SO 167 0 min 0,000 mm 0,0 UV-I 0 W/m 1,1 C 1,4 C 11,5 km/h 98,99 %
25.01.2021 20:22 2,7 C 89 % 1009,3 hPa 0,0 l/m 7,2 km/h S 182 0 min 0,000 mm 0,0 UV-I 0 W/m 1,1 C 1,9 C 11,5 km/h 100,00 %
25.01.2021 20:21 2,7 C 89 % 1009,3 hPa 0,0 l/m 6,1 km/h S 188 0 min 0,000 mm 0,0 UV-I 0 W/m 1,1 C 2,7 C 13,4 km/h 96,67 %
25.01.2021 20:20 2,7 C 89 % 1009,2 hPa 0,0 l/m 7,7 km/h S 176 0 min 0,000 mm 0,0 UV-I 0 W/m 1,1 C 1,5 C 11,5 km/h 90,91 %
25.01.2021 20:19 2,7 C 89 % 1009,3 hPa 0,0 l/m 6,6 km/h S-SW 192 0 min 0,000 mm 0,0 UV-I 0 W/m 1,1 C 2,5 C 11,5 km/h 100,00 %
25.01.2021 20:18 2,7 C 89 % 1009,3 hPa 0,0 l/m 10,2 km/h S-SW 203 0 min 0,000 mm 0,0 UV-I 0 W/m 1,1 C -0,6 C 19,1 km/h 100,00 %
25.01.2021 20:17 2,7 C 89 % 1009,3 hPa 0,0 l/m 9,9 km/h S 173 0 min 0,000 mm 0,0 UV-I 0 W/m 1,1 C -0,4 C 21,0 km/h 100,00 %
25.01.2021 20:16 2,7 C 89 % 1009,3 hPa 0,0 l/m 8,1 km/h S 177 0 min 0,000 mm 0,0 UV-I 0 W/m 1,1 C 1,1 C 13,4 km/h 100,00 %
25.01.2021 20:15 2,7 C 89 % 1009,3 hPa 0,0 l/m 8,4 km/h S-SO 153 0 min 0,000 mm 0,0 UV-I 0 W/m 1,1 C 0,8 C 13,4 km/h 100,00 %
25.01.2021 20:14 2,7 C 89 % 1009,3 hPa 0,0 l/m 8,7 km/h S 188 0 min 0,000 mm 0,0 UV-I 0 W/m 1,1 C 0,6 C 13,4 km/h 100,00 %
25.01.2021 20:13 2,7 C 89 % 1009,2 hPa 0,0 l/m 10,4 km/h S-SO 167 0 min 0,000 mm 0,0 UV-I 0 W/m 1,1 C -0,8 C 13,4 km/h 100,00 %
25.01.2021 20:12 2,7 C 89 % 1009,2 hPa 0,0 l/m 10,8 km/h S-SW 204 0 min 0,000 mm 0,0 UV-I 0 W/m 1,1 C -1,1 C 19,1 km/h 100,00 %
25.01.2021 20:11 2,7 C 89 % 1009,2 hPa 0,0 l/m 7,6 km/h S-SW 194 0 min 0,000 mm 0,0 UV-I 0 W/m 1,1 C 1,6 C 15,3 km/h 95,83 %
25.01.2021 20:10 2,7 C 89 % 1009,2 hPa 0,0 l/m 6,2 km/h S-SW 198 0 min 0,000 mm 0,0 UV-I 0 W/m 1,1 C 2,7 C 11,5 km/h 100,00 %
25.01.2021 20:09 2,7 C 89 % 1009,1 hPa 0,0 l/m 8,4 km/h S 182 0 min 0,000 mm 0,0 UV-I 0 W/m 1,1 C 0,8 C 13,4 km/h 100,00 %
25.01.2021 20:08 2,7 C 89 % 1009,2 hPa 0,0 l/m 7,0 km/h S 177 0 min 0,000 mm 0,0 UV-I 0 W/m 1,1 C 2,1 C 11,5 km/h 100,00 %
25.01.2021 20:07 2,7 C 89 % 1009,2 hPa 0,0 l/m 8,3 km/h S 178 0 min 0,000 mm 0,0 UV-I 0 W/m 1,1 C 0,9 C 17,2 km/h 100,00 %
25.01.2021 20:06 2,7 C 89 % 1009,2 hPa 0,0 l/m 5,7 km/h S 171 0 min 0,000 mm 0,0 UV-I 0 W/m 1,1 C 2,7 C 9,6 km/h 100,00 %
25.01.2021 20:05 2,7 C 89 % 1009,1 hPa 0,0 l/m 6,3 km/h S-SO 165 0 min 0,000 mm 0,0 UV-I 0 W/m 1,1 C 2,7 C 11,5 km/h 100,00 %
25.01.2021 20:04 2,7 C 89 % 1009,2 hPa 0,0 l/m 9,8 km/h S-SO 165 0 min 0,000 mm 0,0 UV-I 0 W/m 1,1 C -0,3 C 17,2 km/h 100,00 %
25.01.2021 20:03 2,7 C 89 % 1009,2 hPa 0,0 l/m 7,6 km/h S 189 0 min 0,000 mm 0,0 UV-I 0 W/m 1,1 C 1,6 C 11,5 km/h 100,00 %
25.01.2021 20:02 2,7 C 88 % 1009,2 hPa 0,0 l/m 9,6 km/h S-SW 197 0 min 0,000 mm 0,0 UV-I 0 W/m 0,9 C -0,2 C 15,3 km/h 100,00 %
25.01.2021 20:01 2,7 C 88 % 1009,1 hPa 0,0 l/m 9,4 km/h S 172 0 min 0,000 mm 0,0 UV-I 0 W/m 0,9 C 0,0 C 15,3 km/h 100,00 %
25.01.2021 20:00 2,7 C 88 % 1009,1 hPa 0,0 l/m 6,9 km/h S-SW 207 0 min 0,000 mm 0,0 UV-I 0 W/m 0,9 C 2,2 C 15,3 km/h 91,67 %
25.01.2021 19:59 2,7 C 88 % 1009,2 hPa 0,0 l/m 6,2 km/h S-SW 205 0 min 0,000 mm 0,0 UV-I 0 W/m 0,9 C 2,7 C 11,5 km/h 100,00 %
25.01.2021 19:58 2,7 C 88 % 1009,1 hPa 0,0 l/m 8,9 km/h S 188 0 min 0,000 mm 0,0 UV-I 0 W/m 0,9 C 0,4 C 13,4 km/h 95,83 %
25.01.2021 19:57 2,7 C 88 % 1009,2 hPa 0,0 l/m 8,6 km/h S 186 0 min 0,000 mm 0,0 UV-I 0 W/m 0,9 C 0,7 C 15,3 km/h 95,65 %
25.01.2021 19:56 2,7 C 88 % 1009,2 hPa 0,0 l/m 9,7 km/h S 181 0 min 0,000 mm 0,0 UV-I 0 W/m 0,9 C -0,2 C 23,0 km/h 100,00 %
25.01.2021 19:55 2,7 C 88 % 1009,1 hPa 0,0 l/m 10,4 km/h S-SO 155 0 min 0,000 mm 0,0 UV-I 0 W/m 0,9 C -0,8 C 19,1 km/h 100,00 %
25.01.2021 19:54 2,7 C 88 % 1009,2 hPa 0,0 l/m 7,8 km/h S-SO 163 0 min 0,000 mm 0,0 UV-I 0 W/m 0,9 C 1,4 C 13,4 km/h 96,30 %
25.01.2021 19:53 2,7 C 88 % 1009,2 hPa 0,0 l/m 6,0 km/h S-SW 203 0 min 0,000 mm 0,0 UV-I 0 W/m 0,9 C 2,7 C 11,5 km/h 100,00 %
25.01.2021 19:52 2,7 C 88 % 1009,2 hPa 0,0 l/m 7,9 km/h SW 219 0 min 0,000 mm 0,0 UV-I 0 W/m 0,9 C 1,3 C 11,5 km/h 100,00 %
25.01.2021 19:51 2,7 C 88 % 1009,2 hPa 0,0 l/m 8,7 km/h S-SW 193 0 min 0,000 mm 0,0 UV-I 0 W/m 0,9 C 0,6 C 13,4 km/h 95,83 %
25.01.2021 19:50 2,7 C 88 % 1009,2 hPa 0,0 l/m 8,2 km/h S-SW 200 0 min 0,000 mm 0,0 UV-I 0 W/m 0,9 C 1,0 C 15,3 km/h 100,00 %
25.01.2021 19:49 2,7 C 88 % 1009,2 hPa 0,0 l/m 9,3 km/h S 174 0 min 0,000 mm 0,0 UV-I 0 W/m 0,9 C 0,1 C 19,1 km/h 100,00 %
25.01.2021 19:48 2,8 C 88 % 1009,2 hPa 0,0 l/m 6,9 km/h S-SW 202 0 min 0,000 mm 0,0 UV-I 0 W/m 1,0 C 2,3 C 13,4 km/h 100,00 %
25.01.2021 19:47 2,8 C 88 % 1009,1 hPa 0,0 l/m 6,9 km/h S 175 0 min 0,000 mm 0,0 UV-I 0 W/m 1,0 C 2,3 C 15,3 km/h 100,00 %
25.01.2021 19:46 2,7 C 88 % 1009,2 hPa 0,0 l/m 6,1 km/h S 188 0 min 0,000 mm 0,0 UV-I 0 W/m 0,9 C 2,7 C 11,5 km/h 100,00 %
25.01.2021 19:45 2,7 C 88 % 1009,2 hPa 0,0 l/m 5,6 km/h S-SW 193 0 min 0,000 mm 0,0 UV-I 0 W/m 0,9 C 2,7 C 9,6 km/h 100,00 %
25.01.2021 19:44 2,8 C 88 % 1009,1 hPa 0,0 l/m 8,9 km/h S 180 0 min 0,000 mm 0,0 UV-I 0 W/m 1,0 C 0,5 C 11,5 km/h 96,15 %
25.01.2021 19:43 2,8 C 88 % 1009,2 hPa 0,0 l/m 9,0 km/h S 182 0 min 0,000 mm 0,0 UV-I 0 W/m 1,0 C 0,4 C 11,5 km/h 100,00 %
25.01.2021 19:42 2,8 C 88 % 1009,1 hPa 0,0 l/m 4,1 km/h S 175 0 min 0,000 mm 0,0 UV-I 0 W/m 1,0 C 2,8 C 7,7 km/h 95,65 %
25.01.2021 19:41 2,8 C 88 % 1009,1 hPa 0,0 l/m 6,4 km/h S 175 0 min 0,000 mm 0,0 UV-I 0 W/m 1,0 C 2,8 C 9,6 km/h 100,00 %
25.01.2021 19:40 2,8 C 88 % 1009,2 hPa 0,0 l/m 4,2 km/h S-SW 194 0 min 0,000 mm 0,0 UV-I 0 W/m 1,0 C 2,8 C 7,7 km/h 100,00 %
25.01.2021 19:39 2,8 C 88 % 1009,1 hPa 0,0 l/m 7,1 km/h S-SW 202 0 min 0,000 mm 0,0 UV-I 0 W/m 1,0 C 2,1 C 15,3 km/h 100,00 %
25.01.2021 19:38 2,8 C 88 % 1009,1 hPa 0,0 l/m 3,6 km/h S 178 0 min 0,000 mm 0,0 UV-I 0 W/m 1,0 C 2,8 C 5,7 km/h 96,15 %
25.01.2021 19:37 2,8 C 88 % 1009,1 hPa 0,0 l/m 6,5 km/h S 178 0 min 0,000 mm 0,0 UV-I 0 W/m 1,0 C 2,7 C 9,6 km/h 100,00 %
25.01.2021 19:36 2,8 C 88 % 1009,0 hPa 0,0 l/m 4,4 km/h S 186 0 min 0,000 mm 0,0 UV-I 0 W/m 1,0 C 2,8 C 7,7 km/h 100,00 %
25.01.2021 19:35 2,8 C 88 % 1009,1 hPa 0,0 l/m 3,7 km/h S 188 0 min 0,000 mm 0,0 UV-I 0 W/m 1,0 C 2,8 C 5,7 km/h 100,00 %
25.01.2021 19:34 2,8 C 88 % 1009,0 hPa 0,0 l/m 2,9 km/h S 188 0 min 0,000 mm 0,0 UV-I 0 W/m 1,0 C 2,8 C 7,7 km/h 100,00 %
25.01.2021 19:33 2,8 C 88 % 1009,0 hPa 0,0 l/m 6,4 km/h S 188 0 min 0,000 mm 0,0 UV-I 0 W/m 1,0 C 2,8 C 11,5 km/h 100,00 %
25.01.2021 19:32 2,8 C 88 % 1009,0 hPa 0,0 l/m 4,1 km/h S 173 0 min 0,000 mm 0,0 UV-I 0 W/m 1,0 C 2,8 C 9,6 km/h 95,65 %
25.01.2021 19:31 2,8 C 88 % 1009,0 hPa 0,0 l/m 4,2 km/h S-SW 192 0 min 0,000 mm 0,0 UV-I 0 W/m 1,0 C 2,8 C 7,7 km/h 100,00 %
25.01.2021 19:30 2,9 C 88 % 1009,0 hPa 0,0 l/m 6,5 km/h S 191 0 min 0,000 mm 0,0 UV-I 0 W/m 1,1 C 2,8 C 9,6 km/h 100,00 %
25.01.2021 19:29 2,9 C 88 % 1009,0 hPa 0,0 l/m 6,4 km/h S 178 0 min 0,000 mm 0,0 UV-I 0 W/m 1,1 C 2,9 C 11,5 km/h 100,00 %
25.01.2021 19:28 2,9 C 88 % 1009,0 hPa 0,0 l/m 8,1 km/h S-SO 167 0 min 0,000 mm 0,0 UV-I 0 W/m 1,1 C 1,3 C 13,4 km/h 100,00 %
25.01.2021 19:27 2,9 C 88 % 1009,0 hPa 0,0 l/m 8,5 km/h S-SO 160 0 min 0,000 mm 0,0 UV-I 0 W/m 1,1 C 1,0 C 13,4 km/h 100,00 %
25.01.2021 19:26 2,9 C 87 % 1009,0 hPa 0,0 l/m 7,1 km/h S 173 0 min 0,000 mm 0,0 UV-I 0 W/m 1,0 C 2,2 C 11,5 km/h 100,00 %
25.01.2021 19:25 2,9 C 87 % 1009,0 hPa 0,0 l/m 8,6 km/h S 171 0 min 0,000 mm 0,0 UV-I 0 W/m 1,0 C 0,9 C 17,2 km/h 96,30 %
25.01.2021 19:24 2,9 C 87 % 1009,0 hPa 0,0 l/m 6,5 km/h SW 217 0 min 0,000 mm 0,0 UV-I 0 W/m 1,0 C 2,8 C 15,3 km/h 100,00 %
25.01.2021 19:23 2,9 C 87 % 1009,0 hPa 0,0 l/m 5,2 km/h S-SW 202 0 min 0,000 mm 0,0 UV-I 0 W/m 1,0 C 2,9 C 13,4 km/h 100,00 %
25.01.2021 19:22 2,9 C 87 % 1009,0 hPa 0,0 l/m 6,1 km/h S 188 0 min 0,000 mm 0,0 UV-I 0 W/m 1,0 C 2,9 C 11,5 km/h 100,00 %
25.01.2021 19:21 2,9 C 87 % 1008,9 hPa 0,0 l/m 5,5 km/h S-SW 212 0 min 0,000 mm 0,0 UV-I 0 W/m 1,0 C 2,9 C 11,5 km/h 100,00 %
25.01.2021 19:20 2,9 C 87 % 1009,0 hPa 0,0 l/m 5,3 km/h S 170 0 min 0,000 mm 0,0 UV-I 0 W/m 1,0 C 2,9 C 9,6 km/h 100,00 %
25.01.2021 19:19 2,9 C 87 % 1009,0 hPa 0,0 l/m 6,5 km/h S-SO 168 0 min 0,000 mm 0,0 UV-I 0 W/m 1,0 C 2,8 C 9,6 km/h 96,15 %
25.01.2021 19:18 2,9 C 87 % 1009,0 hPa 0,0 l/m 5,8 km/h S-SO 168 0 min 0,000 mm 0,0 UV-I 0 W/m 1,0 C 2,9 C 9,6 km/h 100,00 %
25.01.2021 19:17 2,9 C 87 % 1008,9 hPa 0,0 l/m 6,9 km/h S 174 0 min 0,000 mm 0,0 UV-I 0 W/m 1,0 C 2,4 C 15,3 km/h 100,00 %
25.01.2021 19:16 2,9 C 87 % 1008,9 hPa 0,0 l/m 6,1 km/h S 174 0 min 0,000 mm 0,0 UV-I 0 W/m 1,0 C 2,9 C 11,5 km/h 100,00 %
25.01.2021 19:15 3,0 C 87 % 1008,9 hPa 0,0 l/m 3,8 km/h S 190 0 min 0,000 mm 0,0 UV-I 0 W/m 1,1 C 3,0 C 5,7 km/h 100,00 %
25.01.2021 19:14 3,0 C 87 % 1008,9 hPa 0,0 l/m 5,7 km/h S-SW 199 0 min 0,000 mm 0,0 UV-I 0 W/m 1,1 C 3,0 C 9,6 km/h 100,00 %
25.01.2021 19:13 3,0 C 87 % 1008,9 hPa 0,0 l/m 5,6 km/h S 173 0 min 0,000 mm 0,0 UV-I 0 W/m 1,1 C 3,0 C 9,6 km/h 95,65 %
25.01.2021 19:12 3,0 C 87 % 1008,9 hPa 0,0 l/m 7,5 km/h S 172 0 min 0,000 mm 0,0 UV-I 0 W/m 1,1 C 2,0 C 11,5 km/h 100,00 %
25.01.2021 19:11 3,0 C 87 % 1008,9 hPa 0,0 l/m 4,5 km/h S-SW 195 0 min 0,000 mm 0,0 UV-I 0 W/m 1,1 C 3,0 C 7,7 km/h 96,15 %
25.01.2021 19:10 3,0 C 87 % 1008,9 hPa 0,0 l/m 5,0 km/h S 174 0 min 0,000 mm 0,0 UV-I 0 W/m 1,1 C 3,0 C 11,5 km/h 91,67 %
25.01.2021 19:09 3,0 C 87 % 1008,8 hPa 0,0 l/m 3,2 km/h SW 218 0 min 0,000 mm 0,0 UV-I 0 W/m 1,1 C 3,0 C 9,6 km/h 100,00 %
25.01.2021 19:08 3,0 C 87 % 1008,9 hPa 0,0 l/m 6,9 km/h S 190 0 min 0,000 mm 0,0 UV-I 0 W/m 1,1 C 2,5 C 11,5 km/h 100,00 %
25.01.2021 19:07 3,0 C 87 % 1008,9 hPa 0,0 l/m 7,6 km/h S 190 0 min 0,000 mm 0,0 UV-I 0 W/m 1,1 C 1,9 C 11,5 km/h 95,83 %
25.01.2021 19:06 3,0 C 87 % 1008,9 hPa 0,0 l/m 3,7 km/h S-SW 200 0 min 0,000 mm 0,0 UV-I 0 W/m 1,1 C 3,0 C 5,7 km/h 100,00 %
25.01.2021 19:05 3,0 C 87 % 1008,8 hPa 0,0 l/m 5,5 km/h S 181 0 min 0,000 mm 0,0 UV-I 0 W/m 1,1 C 3,0 C 9,6 km/h 100,00 %
25.01.2021 19:04 3,0 C 86 % 1008,8 hPa 0,0 l/m 6,7 km/h S-SO 166 0 min 0,000 mm 0,0 UV-I 0 W/m 0,9 C 2,7 C 9,6 km/h 100,00 %
25.01.2021 19:03 3,0 C 86 % 1008,8 hPa 0,0 l/m 4,9 km/h S 175 0 min 0,000 mm 0,0 UV-I 0 W/m 0,9 C 3,0 C 7,7 km/h 100,00 %
25.01.2021 19:02 3,0 C 86 % 1008,8 hPa 0,0 l/m 5,7 km/h S 174 0 min 0,000 mm 0,0 UV-I 0 W/m 0,9 C 3,0 C 9,6 km/h 100,00 %
25.01.2021 19:01 3,0 C 86 % 1008,8 hPa 0,0 l/m 4,3 km/h S 171 0 min 0,000 mm 0,0 UV-I 0 W/m 0,9 C 3,0 C 9,6 km/h 100,00 %
25.01.2021 19:00 3,0 C 86 % 1008,8 hPa 0,0 l/m 3,3 km/h S 188 0 min 0,000 mm 0,0 UV-I 0 W/m 0,9 C 3,0 C 5,7 km/h 95,65 %
25.01.2021 18:59 3,0 C 86 % 1008,8 hPa 0,0 l/m 6,4 km/h S-SW 192 0 min 0,000 mm 0,0 UV-I 0 W/m 0,9 C 3,0 C 13,4 km/h 100,00 %
25.01.2021 18:58 3,0 C 86 % 1008,8 hPa 0,0 l/m 5,7 km/h S 173 0 min 0,000 mm 0,0 UV-I 0 W/m 0,9 C 3,0 C 11,5 km/h 100,00 %
25.01.2021 18:57 3,0 C 86 % 1008,8 hPa 0,0 l/m 6,1 km/h S 183 0 min 0,000 mm 0,0 UV-I 0 W/m 0,9 C 3,0 C 9,6 km/h 100,00 %
25.01.2021 18:56 3,0 C 86 % 1008,8 hPa 0,0 l/m 3,9 km/h S 186 0 min 0,000 mm 0,0 UV-I 0 W/m 0,9 C 3,0 C 7,7 km/h 100,00 %
25.01.2021 18:55 3,0 C 86 % 1008,8 hPa 0,0 l/m 4,1 km/h S-SW 193 0 min 0,000 mm 0,0 UV-I 0 W/m 0,9 C 3,0 C 7,7 km/h 100,00 %
25.01.2021 18:54 3,0 C 86 % 1008,8 hPa 0,0 l/m 4,2 km/h S 185 0 min 0,000 mm 0,0 UV-I 0 W/m 0,9 C 3,0 C 7,7 km/h 100,00 %
25.01.2021 18:53 3,0 C 86 % 1008,8 hPa 0,0 l/m 4,8 km/h S 185 0 min 0,000 mm 0,0 UV-I 0 W/m 0,9 C 3,0 C 5,7 km/h 100,00 %
25.01.2021 18:52 3,0 C 85 % 1008,8 hPa 0,0 l/m 3,6 km/h S-SW 212 0 min 0,000 mm 0,0 UV-I 0 W/m 0,7 C 3,0 C 9,6 km/h 100,00 %
25.01.2021 18:51 3,1 C 86 % 1008,8 hPa 0,0 l/m 3,9 km/h S-SW 213 0 min 0,000 mm 0,0 UV-I 0 W/m 1,0 C 3,1 C 9,6 km/h 96,30 %
25.01.2021 18:50 3,0 C 86 % 1008,8 hPa 0,0 l/m 4,8 km/h S 191 0 min 0,000 mm 0,0 UV-I 0 W/m 0,9 C 3,0 C 9,6 km/h 100,00 %
25.01.2021 18:49 3,1 C 86 % 1008,8 hPa 0,0 l/m 6,9 km/h S-SW 207 0 min 0,000 mm 0,0 UV-I 0 W/m 1,0 C 2,6 C 13,4 km/h 91,67 %
25.01.2021 18:48 3,1 C 85 % 1008,8 hPa 0,0 l/m 7,5 km/h S-SW 205 0 min 0,000 mm 0,0 UV-I 0 W/m 0,8 C 2,1 C 11,5 km/h 100,00 %
25.01.2021 18:47 3,1 C 85 % 1008,8 hPa 0,0 l/m 7,0 km/h S-SW 206 0 min 0,000 mm 0,0 UV-I 0 W/m 0,8 C 2,5 C 9,6 km/h 100,00 %
25.01.2021 18:46 3,1 C 85 % 1008,8 hPa 0,0 l/m 4,4 km/h S-SW 198 0 min 0,000 mm 0,0 UV-I 0 W/m 0,8 C 3,1 C 7,7 km/h 100,00 %
25.01.2021 18:45 3,1 C 85 % 1008,8 hPa 0,0 l/m 6,4 km/h S-SW 198 0 min 0,000 mm 0,0 UV-I 0 W/m 0,8 C 3,1 C 11,5 km/h 100,00 %
25.01.2021 18:44 3,1 C 85 % 1008,8 hPa 0,0 l/m 8,1 km/h S 180 0 min 0,000 mm 0,0 UV-I 0 W/m 0,8 C 1,5 C 11,5 km/h 100,00 %
25.01.2021 18:43 3,1 C 85 % 1008,7 hPa 0,0 l/m 6,6 km/h S-SW 211 0 min 0,000 mm 0,0 UV-I 0 W/m 0,8 C 2,9 C 9,6 km/h 96,55 %
25.01.2021 18:42 3,1 C 85 % 1008,7 hPa 0,0 l/m 2,0 km/h S-SW 209 0 min 0,000 mm 0,0 UV-I 0 W/m 0,8 C 3,1 C 3,8 km/h 100,00 %
25.01.2021 18:41 3,1 C 85 % 1008,7 hPa 0,0 l/m 6,3 km/h S-SW 209 0 min 0,000 mm 0,0 UV-I 0 W/m 0,8 C 3,1 C 9,6 km/h 100,00 %
25.01.2021 18:40 3,1 C 85 % 1008,7 hPa 0,0 l/m 4,9 km/h S 186 0 min 0,000 mm 0,0 UV-I 0 W/m 0,8 C 3,1 C 9,6 km/h 100,00 %
25.01.2021 18:39 3,1 C 85 % 1008,8 hPa 0,0 l/m 6,8 km/h S-SW 192 0 min 0,000 mm 0,0 UV-I 0 W/m 0,8 C 2,7 C 13,4 km/h 100,00 %
25.01.2021 18:38 3,1 C 85 % 1008,7 hPa 0,0 l/m 6,4 km/h S-SW 198 0 min 0,000 mm 0,0 UV-I 0 W/m 0,8 C 3,1 C 11,5 km/h 100,00 %
25.01.2021 18:37 3,1 C 85 % 1008,7 hPa 0,0 l/m 4,0 km/h S 189 0 min 0,000 mm 0,0 UV-I 0 W/m 0,8 C 3,1 C 7,7 km/h 96,15 %
25.01.2021 18:36 3,1 C 85 % 1008,7 hPa 0,0 l/m 3,6 km/h S 188 0 min 0,000 mm 0,0 UV-I 0 W/m 0,8 C 3,1 C 5,7 km/h 100,00 %
25.01.2021 18:35 3,1 C 85 % 1008,7 hPa 0,0 l/m 3,7 km/h S 188 0 min 0,000 mm 0,0 UV-I 0 W/m 0,8 C 3,1 C 5,7 km/h 96,15 %
25.01.2021 18:34 3,1 C 85 % 1008,7 hPa 0,0 l/m 3,5 km/h S 188 0 min 0,000 mm 0,0 UV-I 0 W/m 0,8 C 3,1 C 5,7 km/h 100,00 %
25.01.2021 18:33 3,2 C 84 % 1008,7 hPa 0,0 l/m 2,8 km/h S 189 0 min 0,000 mm 0,0 UV-I 0 W/m 0,8 C 3,2 C 7,7 km/h 100,00 %
25.01.2021 18:32 3,2 C 85 % 1008,7 hPa 0,0 l/m 3,2 km/h S-SW 205 0 min 0,000 mm 0,0 UV-I 0 W/m 0,9 C 3,2 C 7,7 km/h 100,00 %
25.01.2021 18:31 3,2 C 85 % 1008,7 hPa 0,0 l/m 4,4 km/h S-SW 206 0 min 0,000 mm 0,0 UV-I 0 W/m 0,9 C 3,2 C 7,7 km/h 100,00 %
25.01.2021 18:30 3,2 C 85 % 1008,7 hPa 0,0 l/m 6,5 km/h S-SW 212 0 min 0,000 mm 0,0 UV-I 0 W/m 0,9 C 3,1 C 9,6 km/h 100,00 %
25.01.2021 18:29 3,2 C 85 % 1008,6 hPa 0,0 l/m 4,4 km/h S 190 0 min 0,000 mm 0,0 UV-I 0 W/m 0,9 C 3,2 C 7,7 km/h 96,15 %
25.01.2021 18:28 3,2 C 85 % 1008,7 hPa 0,0 l/m 5,1 km/h S 190 0 min 0,000 mm 0,0 UV-I 0 W/m 0,9 C 3,2 C 9,6 km/h 100,00 %
25.01.2021 18:27 3,2 C 85 % 1008,6 hPa 0,0 l/m 4,7 km/h S 180 0 min 0,000 mm 0,0 UV-I 0 W/m 0,9 C 3,2 C 7,7 km/h 100,00 %
25.01.2021 18:26 3,2 C 85 % 1008,6 hPa 0,0 l/m 2,6 km/h S-SW 196 0 min 0,000 mm 0,0 UV-I 0 W/m 0,9 C 3,2 C 5,7 km/h 100,00 %
25.01.2021 18:25 3,2 C 84 % 1008,6 hPa 0,0 l/m 6,2 km/h S-SW 196 0 min 0,000 mm 0,0 UV-I 0 W/m 0,8 C 3,2 C 11,5 km/h 100,00 %
25.01.2021 18:24 3,2 C 84 % 1008,6 hPa 0,0 l/m 5,3 km/h S 178 0 min 0,000 mm 0,0 UV-I 0 W/m 0,8 C 3,2 C 9,6 km/h 100,00 %
25.01.2021 18:23 3,2 C 84 % 1008,6 hPa 0,0 l/m 5,7 km/h S 178 0 min 0,000 mm 0,0 UV-I 0 W/m 0,8 C 3,2 C 9,6 km/h 100,00 %
25.01.2021 18:22 3,1 C 84 % 1008,6 hPa 0,0 l/m 6,8 km/h S 173 0 min 0,000 mm 0,0 UV-I 0 W/m 0,7 C 2,7 C 9,6 km/h 100,00 %
25.01.2021 18:21 3,1 C 84 % 1008,6 hPa 0,0 l/m 8,1 km/h S 171 0 min 0,000 mm 0,0 UV-I 0 W/m 0,7 C 1,5 C 11,5 km/h 96,30 %
25.01.2021 18:20 3,1 C 84 % 1008,6 hPa 0,0 l/m 5,4 km/h S 186 0 min 0,000 mm 0,0 UV-I 0 W/m 0,7 C 3,1 C 9,6 km/h 100,00 %
25.01.2021 18:19 3,1 C 84 % 1008,5 hPa 0,0 l/m 4,4 km/h S-SW 192 0 min 0,000 mm 0,0 UV-I 0 W/m 0,7 C 3,1 C 9,6 km/h 100,00 %
25.01.2021 18:18 3,1 C 84 % 1008,6 hPa 0,0 l/m 4,2 km/h S-SW 192 0 min 0,000 mm 0,0 UV-I 0 W/m 0,7 C 3,1 C 7,7 km/h 100,00 %
25.01.2021 18:17 3,1 C 84 % 1008,6 hPa 0,0 l/m 3,5 km/h S-SW 194 0 min 0,000 mm 0,0 UV-I 0 W/m 0,7 C 3,1 C 5,7 km/h 100,00 %
25.01.2021 18:16 3,1 C 84 % 1008,6 hPa 0,0 l/m 5,7 km/h S-SW 196 0 min 0,000 mm 0,0 UV-I 0 W/m 0,7 C 3,1 C 7,7 km/h 91,67 %
25.01.2021 18:15 3,1 C 84 % 1008,6 hPa 0,0 l/m 3,0 km/h S 177 0 min 0,000 mm 0,0 UV-I 0 W/m 0,7 C 3,1 C 3,8 km/h 100,00 %
25.01.2021 18:14 3,1 C 84 % 1008,6 hPa 0,0 l/m 3,5 km/h S 177 0 min 0,000 mm 0,0 UV-I 0 W/m 0,7 C 3,1 C 7,7 km/h 100,00 %
25.01.2021 18:13 3,1 C 84 % 1008,6 hPa 0,0 l/m 2,9 km/h S 188 0 min 0,000 mm 0,0 UV-I 0 W/m 0,7 C 3,1 C 7,7 km/h 100,00 %
25.01.2021 18:12 3,1 C 84 % 1008,6 hPa 0,0 l/m 3,6 km/h S-SW 202 0 min 0,000 mm 0,0 UV-I 0 W/m 0,7 C 3,1 C 5,7 km/h 100,00 %
25.01.2021 18:11 3,1 C 84 % 1008,5 hPa 0,0 l/m 3,7 km/h S-SW 202 0 min 0,000 mm 0,0 UV-I 0 W/m 0,7 C 3,1 C 7,7 km/h 100,00 %
25.01.2021 18:10 3,1 C 84 % 1008,5 hPa 0,0 l/m 4,0 km/h S-SW 202 0 min 0,000 mm 0,0 UV-I 0 W/m 0,7 C 3,1 C 7,7 km/h 100,00 %
25.01.2021 18:09 3,1 C 84 % 1008,5 hPa 0,0 l/m 3,2 km/h S-SW 202 0 min 0,000 mm 0,0 UV-I 0 W/m 0,7 C 3,1 C 7,7 km/h 100,00 %
25.01.2021 18:08 3,1 C 84 % 1008,5 hPa 0,0 l/m 6,9 km/h S-SW 207 0 min 0,000 mm 0,0 UV-I 0 W/m 0,7 C 2,6 C 9,6 km/h 100,00 %
25.01.2021 18:07 3,1 C 84 % 1008,5 hPa 0,0 l/m 3,3 km/h S 185 0 min 0,000 mm 0,0 UV-I 0 W/m 0,7 C 3,1 C 5,7 km/h 100,00 %
25.01.2021 18:06 3,1 C 84 % 1008,4 hPa 0,0 l/m 1,2 km/h S 186 0 min 0,000 mm 0,0 UV-I 0 W/m 0,7 C 3,1 C 1,9 km/h 96,15 %
25.01.2021 18:05 3,1 C 84 % 1008,5 hPa 0,0 l/m 1,8 km/h S 186 0 min 0,000 mm 0,0 UV-I 0 W/m 0,7 C 3,1 C 3,8 km/h 100,00 %
25.01.2021 18:04 3,1 C 84 % 1008,5 hPa 0,0 l/m 3,3 km/h S 186 0 min 0,000 mm 0,0 UV-I 0 W/m 0,7 C 3,1 C 5,7 km/h 100,00 %
25.01.2021 18:03 3,1 C 84 % 1008,5 hPa 0,0 l/m 2,2 km/h S 186 0 min 0,000 mm 0,0 UV-I 0 W/m 0,7 C 3,1 C 3,8 km/h 100,00 %
25.01.2021 18:02 3,1 C 84 % 1008,5 hPa 0,0 l/m 1,1 km/h S 186 0 min 0,000 mm 0,0 UV-I 0 W/m 0,7 C 3,1 C 3,8 km/h 100,00 %
25.01.2021 18:01 3,1 C 84 % 1008,4 hPa 0,0 l/m 2,3 km/h S 186 0 min 0,000 mm 0,0 UV-I 0 W/m 0,7 C 3,1 C 3,8 km/h 93,33 %
25.01.2021 18:00 3,1 C 84 % 1008,4 hPa 0,0 l/m 3,1 km/h S 186 0 min 0,000 mm 0,0 UV-I 0 W/m 0,7 C 3,1 C 5,7 km/h 100,00 %
25.01.2021 17:59 3,1 C 84 % 1008,4 hPa 0,0 l/m 3,8 km/h S 186 0 min 0,000 mm 0,0 UV-I 0 W/m 0,7 C 3,1 C 5,7 km/h 100,00 %
25.01.2021 17:58 3,1 C 84 % 1008,4 hPa 0,0 l/m 3,4 km/h S 185 0 min 0,000 mm 0,0 UV-I 0 W/m 0,7 C 3,1 C 5,7 km/h 100,00 %
25.01.2021 17:57 3,1 C 84 % 1008,4 hPa 0,0 l/m 0,5 km/h S 185 0 min 0,000 mm 0,0 UV-I 0 W/m 0,7 C 3,1 C 3,8 km/h 100,00 %
25.01.2021 17:56 3,1 C 84 % 1008,4 hPa 0,0 l/m 2,2 km/h S 185 0 min 0,000 mm 0,0 UV-I 0 W/m 0,7 C 3,1 C 3,8 km/h 100,00 %
25.01.2021 17:55 3,1 C 84 % 1008,4 hPa 0,0 l/m 1,3 km/h S 185 0 min 0,000 mm 0,0 UV-I 0 W/m 0,7 C 3,1 C 5,7 km/h 100,00 %
25.01.2021 17:54 3,1 C 84 % 1008,3 hPa 0,0 l/m 3,8 km/h S 185 0 min 0,000 mm 0,0 UV-I 0 W/m 0,7 C 3,1 C 7,7 km/h 100,00 %
25.01.2021 17:53 3,1 C 84 % 1008,3 hPa 0,0 l/m 2,0 km/h S 186 0 min 0,000 mm 0,0 UV-I 0 W/m 0,7 C 3,1 C 5,7 km/h 100,00 %
25.01.2021 17:52 3,1 C 84 % 1008,3 hPa 0,0 l/m 1,7 km/h S 185 0 min 0,000 mm 0,0 UV-I 0 W/m 0,7 C 3,1 C 3,8 km/h 100,00 %
25.01.2021 17:51 3,1 C 84 % 1008,3 hPa 0,0 l/m 3,6 km/h S 184 0 min 0,000 mm 0,0 UV-I 0 W/m 0,7 C 3,1 C 5,7 km/h 100,00 %
25.01.2021 17:50 3,1 C 84 % 1008,2 hPa 0,0 l/m 3,5 km/h S 185 0 min 0,000 mm 0,0 UV-I 0 W/m 0,7 C 3,1 C 5,7 km/h 100,00 %
25.01.2021 17:49 3,1 C 84 % 1008,3 hPa 0,0 l/m 3,2 km/h S-SW 200 0 min 0,000 mm 0,0 UV-I 0 W/m 0,7 C 3,1 C 3,8 km/h 98,96 %
25.01.2021 17:48 3,1 C 84 % 1008,2 hPa 0,0 l/m 2,5 km/h S-SW 200 0 min 0,000 mm 0,0 UV-I 0 W/m 0,7 C 3,1 C 3,8 km/h 100,00 %
25.01.2021 17:47 3,0 C 84 % 1008,2 hPa 0,0 l/m 2,8 km/h S-SW 200 0 min 0,000 mm 0,0 UV-I 0 W/m 0,6 C 3,0 C 5,7 km/h 100,00 %
25.01.2021 17:46 3,0 C 84 % 1008,2 hPa 0,0 l/m 1,8 km/h S-SW 200 0 min 0,000 mm 0,0 UV-I 0 W/m 0,6 C 3,0 C 3,8 km/h 98,95 %
25.01.2021 17:45 3,0 C 84 % 1008,2 hPa 0,0 l/m 2,3 km/h S-SW 200 0 min 0,000 mm 0,0 UV-I 0 W/m 0,6 C 3,0 C 5,7 km/h 100,00 %
25.01.2021 17:44 3,0 C 84 % 1008,2 hPa 0,0 l/m 3,3 km/h S-SW 202 0 min 0,000 mm 0,0 UV-I 0 W/m 0,6 C 3,0 C 7,7 km/h 95,65 %
25.01.2021 17:43 3,0 C 84 % 1008,2 hPa 0,0 l/m 1,1 km/h S-SW 200 0 min 0,000 mm 0,0 UV-I 0 W/m 0,6 C 3,0 C 1,9 km/h 100,00 %
25.01.2021 17:42 2,9 C 84 % 1008,2 hPa 0,0 l/m 1,9 km/h S-SW 200 0 min 0,000 mm 0,0 UV-I 0 W/m 0,5 C 2,9 C 3,8 km/h 96,15 %
25.01.2021 17:41 2,9 C 84 % 1008,3 hPa 0,0 l/m 1,1 km/h S-SW 201 0 min 0,000 mm 0,0 UV-I 0 W/m 0,5 C 2,9 C 1,9 km/h 100,00 %
25.01.2021 17:40 2,9 C 84 % 1008,3 hPa 0,0 l/m 2,2 km/h S-SW 201 0 min 0,000 mm 0,0 UV-I 0 W/m 0,5 C 2,9 C 3,8 km/h 100,00 %
25.01.2021 17:39 2,9 C 84 % 1008,3 hPa 0,0 l/m 1,8 km/h S-SW 201 0 min 0,000 mm 0,0 UV-I 0 W/m 0,5 C 2,9 C 3,8 km/h 100,00 %
25.01.2021 17:38 2,9 C 84 % 1008,2 hPa 0,0 l/m 3,9 km/h S-SW 201 0 min 0,000 mm 0,0 UV-I 0 W/m 0,5 C 2,9 C 5,7 km/h 100,00 %
25.01.2021 17:37 2,9 C 84 % 1008,2 hPa 0,0 l/m 3,3 km/h S-SW 202 0 min 0,000 mm 0,0 UV-I 0 W/m 0,5 C 2,9 C 7,7 km/h 100,00 %
25.01.2021 17:36 2,9 C 84 % 1008,2 hPa 0,0 l/m 0,8 km/h S-SW 202 0 min 0,000 mm 0,0 UV-I 0 W/m 0,5 C 2,9 C 1,9 km/h 100,00 %
25.01.2021 17:35 2,8 C 84 % 1008,3 hPa 0,0 l/m 1,5 km/h S-SW 202 0 min 0,000 mm 0,0 UV-I 0 W/m 0,4 C 2,8 C 3,8 km/h 100,00 %
25.01.2021 17:34 2,8 C 84 % 1008,2 hPa 0,0 l/m 2,6 km/h S-SW 202 0 min 0,000 mm 0,0 UV-I 0 W/m 0,4 C 2,8 C 5,7 km/h 100,00 %
25.01.2021 17:33 2,8 C 84 % 1008,2 hPa 0,0 l/m 2,0 km/h S-SW 202 0 min 0,000 mm 0,0 UV-I 0 W/m 0,4 C 2,8 C 5,7 km/h 100,00 %
25.01.2021 17:32 2,8 C 84 % 1008,2 hPa 0,0 l/m 2,2 km/h S-SW 202 0 min 0,000 mm 0,0 UV-I 0 W/m 0,4 C 2,8 C 5,7 km/h 100,00 %
25.01.2021 17:31 2,8 C 83 % 1008,2 hPa 0,0 l/m 1,7 km/h S-SW 202 0 min 0,000 mm 0,0 UV-I 0 W/m 0,2 C 2,8 C 3,8 km/h 100,00 %
25.01.2021 17:30 2,8 C 83 % 1008,2 hPa 0,0 l/m 1,6 km/h S-SW 202 0 min 0,000 mm 0,0 UV-I 0 W/m 0,2 C 2,8 C 3,8 km/h 100,00 %
25.01.2021 17:29 2,8 C 83 % 1008,2 hPa 0,0 l/m 1,2 km/h S-SW 202 0 min 0,000 mm 0,0 UV-I 0 W/m 0,2 C 2,8 C 3,8 km/h 96,30 %
25.01.2021 17:28 2,8 C 83 % 1008,2 hPa 0,0 l/m 0,7 km/h S-SW 202 0 min 0,000 mm 0,0 UV-I 0 W/m 0,2 C 2,8 C 1,9 km/h 100,00 %
25.01.2021 17:27 2,8 C 83 % 1008,2 hPa 0,0 l/m 2,5 km/h S-SW 202 0 min 0,000 mm 0,0 UV-I 0 W/m 0,2 C 2,8 C 5,7 km/h 100,00 %
25.01.2021 17:26 2,8 C 83 % 1008,1 hPa 0,0 l/m 2,7 km/h S-SW 202 0 min 0,000 mm 0,0 UV-I 0 W/m 0,2 C 2,8 C 7,7 km/h 100,00 %
25.01.2021 17:25 2,9 C 83 % 1008,2 hPa 0,0 l/m 2,7 km/h S-SW 202 0 min 0,000 mm 0,0 UV-I 0 W/m 0,3 C 2,9 C 5,7 km/h 100,00 %
25.01.2021 17:24 2,9 C 83 % 1008,1 hPa 0,0 l/m 1,1 km/h S-SW 202 0 min 0,000 mm 0,0 UV-I 0 W/m 0,3 C 2,9 C 3,8 km/h 100,00 %
25.01.2021 17:23 2,9 C 83 % 1008,2 hPa 0,0 l/m 1,2 km/h S-SW 202 0 min 0,000 mm 0,0 UV-I 0 W/m 0,3 C 2,9 C 1,9 km/h 95,65 %
25.01.2021 17:22 2,9 C 82 % 1008,1 hPa 0,0 l/m 1,0 km/h S-SW 202 0 min 0,000 mm 0,0 UV-I 0 W/m 0,1 C 2,9 C 1,9 km/h 100,00 %
25.01.2021 17:21 2,9 C 82 % 1008,1 hPa 0,0 l/m 0,5 km/h S-SW 202 0 min 0,000 mm 0,0 UV-I 0 W/m 0,1 C 2,9 C 1,9 km/h 100,00 %
25.01.2021 17:20 2,9 C 82 % 1008,1 hPa 0,0 l/m 2,0 km/h S-SW 202 0 min 0,000 mm 0,0 UV-I 0 W/m 0,1 C 2,9 C 3,8 km/h 100,00 %
25.01.2021 17:19 3,0 C 82 % 1008,1 hPa 0,0 l/m 1,1 km/h S-SW 202 0 min 0,000 mm 0,0 UV-I 0 W/m 0,2 C 3,0 C 3,8 km/h 100,00 %
25.01.2021 17:18 3,0 C 82 % 1008,0 hPa 0,0 l/m 1,5 km/h S-SW 202 0 min 0,000 mm 0,0 UV-I 0 W/m 0,2 C 3,0 C 1,9 km/h 98,94 %
25.01.2021 17:17 3,1 C 82 % 1008,1 hPa 0,0 l/m 1,5 km/h S-SW 202 0 min 0,000 mm 0,0 UV-I 0 W/m 0,3 C 3,1 C 3,8 km/h 92,31 %
25.01.2021 17:16 3,1 C 82 % 1008,1 hPa 0,0 l/m 2,9 km/h S-SW 202 0 min 0,000 mm 0,0 UV-I 0 W/m 0,3 C 3,1 C 5,7 km/h 100,00 %
25.01.2021 17:15 3,1 C 82 % 1008,0 hPa 0,0 l/m 3,0 km/h S-SW 202 0 min 0,000 mm 0,0 UV-I 0 W/m 0,3 C 3,1 C 3,8 km/h 100,00 %
25.01.2021 17:14 3,1 C 82 % 1008,0 hPa 0,0 l/m 4,7 km/h S-SW 202 0 min 0,000 mm 0,0 UV-I 0 W/m 0,3 C 3,1 C 7,7 km/h 100,00 %
25.01.2021 17:13 3,1 C 82 % 1008,0 hPa 0,0 l/m 3,2 km/h S-SW 202 0 min 0,000 mm 0,0 UV-I 0 W/m 0,3 C 3,1 C 5,7 km/h 100,00 %
25.01.2021 17:12 3,1 C 81 % 1008,0 hPa 0,0 l/m 4,8 km/h S-SW 202 0 min 0,000 mm 0,0 UV-I 0 W/m 0,2 C 3,1 C 7,7 km/h 100,00 %
25.01.2021 17:11 3,1 C 81 % 1008,0 hPa 0,0 l/m 4,0 km/h SW 215 0 min 0,000 mm 0,0 UV-I 4 W/m 0,2 C 3,1 C 7,7 km/h 100,00 %
25.01.2021 17:10 3,2 C 81 % 1008,1 hPa 0,0 l/m 4,2 km/h SW 216 0 min 0,000 mm 0,0 UV-I 5 W/m 0,3 C 3,2 C 5,7 km/h 100,00 %
25.01.2021 17:09 3,2 C 81 % 1008,0 hPa 0,0 l/m 3,7 km/h SW 216 0 min 0,000 mm 0,0 UV-I 5 W/m 0,3 C 3,2 C 5,7 km/h 100,00 %
25.01.2021 17:08 3,2 C 81 % 1007,9 hPa 0,0 l/m 2,9 km/h SW 217 0 min 0,000 mm 0,0 UV-I 5 W/m 0,3 C 3,2 C 5,7 km/h 100,00 %
25.01.2021 17:07 3,2 C 81 % 1008,0 hPa 0,0 l/m 1,9 km/h S-SW 213 0 min 0,000 mm 0,0 UV-I 6 W/m 0,3 C 3,2 C 3,8 km/h 100,00 %
25.01.2021 17:06 3,2 C 81 % 1008,0 hPa 0,0 l/m 3,6 km/h S-SW 213 0 min 0,000 mm 0,0 UV-I 7 W/m 0,3 C 3,2 C 7,7 km/h 95,65 %
25.01.2021 17:05 3,2 C 81 % 1007,9 hPa 0,0 l/m 2,6 km/h SW 214 0 min 0,000 mm 0,0 UV-I 7 W/m 0,3 C 3,2 C 5,7 km/h 100,00 %
25.01.2021 17:04 3,3 C 80 % 1008,0 hPa 0,0 l/m 2,5 km/h SW 214 0 min 0,000 mm 0,0 UV-I 7 W/m 0,2 C 3,3 C 5,7 km/h 100,00 %
25.01.2021 17:03 3,3 C 80 % 1007,9 hPa 0,0 l/m 4,2 km/h SW 214 0 min 0,000 mm 0,0 UV-I 7 W/m 0,2 C 3,3 C 7,7 km/h 100,00 %
25.01.2021 17:02 3,3 C 80 % 1007,9 hPa 0,0 l/m 5,7 km/h SW 214 0 min 0,000 mm 0,0 UV-I 9 W/m 0,2 C 3,3 C 7,7 km/h 100,00 %
25.01.2021 17:01 3,3 C 80 % 1007,9 hPa 0,0 l/m 2,6 km/h SW 226 0 min 0,025 mm 0,0 UV-I 9 W/m 0,2 C 3,3 C 5,7 km/h 100,00 %
25.01.2021 17:00 3,4 C 80 % 1007,8 hPa 0,0 l/m 1,4 km/h SW 227 0 min 0,000 mm 0,0 UV-I 9 W/m 0,3 C 3,4 C 5,7 km/h 91,30 %
25.01.2021 16:59 3,4 C 80 % 1007,9 hPa 0,0 l/m 1,7 km/h SW 227 0 min 0,000 mm 0,0 UV-I 9 W/m 0,3 C 3,4 C 3,8 km/h 100,00 %
25.01.2021 16:58 3,4 C 80 % 1007,8 hPa 0,0 l/m 3,1 km/h SW 227 0 min 0,000 mm 0,0 UV-I 9 W/m 0,3 C 3,4 C 5,7 km/h 100,00 %
25.01.2021 16:57 3,4 C 80 % 1007,8 hPa 0,0 l/m 2,5 km/h SW 227 0 min 0,000 mm 0,0 UV-I 9 W/m 0,3 C 3,4 C 5,7 km/h 100,00 %
25.01.2021 16:56 3,4 C 80 % 1007,8 hPa 0,0 l/m 4,9 km/h SW 227 0 min 0,000 mm 0,0 UV-I 10 W/m 0,3 C 3,4 C 5,7 km/h 100,00 %
25.01.2021 16:55 3,5 C 79 % 1007,8 hPa 0,0 l/m 3,0 km/h SW 229 0 min 0,000 mm 0,0 UV-I 11 W/m 0,2 C 3,5 C 5,7 km/h 95,74 %
25.01.2021 16:53 3,6 C 79 % 1007,8 hPa 0,0 l/m 2,6 km/h SW 229 0 min 0,000 mm 0,0 UV-I 11 W/m 0,3 C 3,6 C 3,8 km/h 100,00 %
25.01.2021 16:52 3,6 C 79 % 1007,7 hPa 0,0 l/m 1,1 km/h SW 229 0 min 0,000 mm 0,0 UV-I 12 W/m 0,3 C 3,6 C 3,8 km/h 100,00 %
25.01.2021 16:51 3,6 C 79 % 1007,7 hPa 0,0 l/m 2,7 km/h SW 229 0 min 0,000 mm 0,0 UV-I 12 W/m 0,3 C 3,6 C 5,7 km/h 100,00 %
25.01.2021 16:50 3,7 C 79 % 1007,7 hPa 0,0 l/m 1,8 km/h SW 230 0 min 0,000 mm 0,0 UV-I 13 W/m 0,4 C 3,7 C 3,8 km/h 100,00 %
25.01.2021 16:49 3,7 C 79 % 1007,7 hPa 0,0 l/m 3,1 km/h SW 230 0 min 0,000 mm 0,0 UV-I 14 W/m 0,4 C 3,7 C 5,7 km/h 100,00 %
25.01.2021 16:48 3,7 C 78 % 1007,6 hPa 0,0 l/m 1,7 km/h SW 230 0 min 0,000 mm 0,0 UV-I 15 W/m 0,2 C 3,7 C 3,8 km/h 100,00 %
25.01.2021 16:47 3,7 C 79 % 1007,7 hPa 0,0 l/m 1,6 km/h SW 230 0 min 0,000 mm 0,0 UV-I 16 W/m 0,4 C 3,7 C 3,8 km/h 96,15 %
25.01.2021 16:46 3,8 C 78 % 1007,6 hPa 0,0 l/m 1,6 km/h SW 230 0 min 0,000 mm 0,0 UV-I 16 W/m 0,3 C 3,8 C 3,8 km/h 100,00 %
25.01.2021 16:45 3,8 C 78 % 1007,6 hPa 0,0 l/m 1,4 km/h SW 230 0 min 0,000 mm 0,0 UV-I 18 W/m 0,3 C 3,8 C 3,8 km/h 100,00 %
25.01.2021 16:44 3,8 C 78 % 1007,6 hPa 0,0 l/m 0,3 km/h SW 230 0 min 0,000 mm 0,0 UV-I 18 W/m 0,3 C 3,8 C 1,9 km/h 100,00 %
25.01.2021 16:43 3,8 C 78 % 1007,6 hPa 0,0 l/m 2,1 km/h SW 230 0 min 0,000 mm 0,0 UV-I 19 W/m 0,3 C 3,8 C 5,7 km/h 96,15 %
25.01.2021 16:42 3,9 C 78 % 1007,6 hPa 0,0 l/m 3,0 km/h SW 231 0 min 0,000 mm 0,0 UV-I 19 W/m 0,4 C 3,9 C 5,7 km/h 100,00 %
25.01.2021 16:41 3,9 C 78 % 1007,6 hPa 0,0 l/m 3,3 km/h SW 231 0 min 0,000 mm 0,0 UV-I 19 W/m 0,4 C 3,9 C 5,7 km/h 100,00 %
25.01.2021 16:40 3,9 C 78 % 1007,6 hPa 0,0 l/m 2,3 km/h SW 231 0 min 0,000 mm 0,0 UV-I 19 W/m 0,4 C 3,9 C 3,8 km/h 96,30 %
25.01.2021 16:39 3,9 C 78 % 1007,6 hPa 0,0 l/m 1,5 km/h SW 231 0 min 0,000 mm 0,0 UV-I 20 W/m 0,4 C 3,9 C 3,8 km/h 100,00 %
25.01.2021 16:38 3,9 C 78 % 1007,6 hPa 0,0 l/m 1,5 km/h SW 231 0 min 0,000 mm 0,0 UV-I 21 W/m 0,4 C 3,9 C 3,8 km/h 96,30 %
25.01.2021 16:37 4,0 C 78 % 1007,5 hPa 0,0 l/m 4,4 km/h SW 231 0 min 0,000 mm 0,0 UV-I 21 W/m 0,5 C 4,0 C 5,7 km/h 96,30 %
25.01.2021 16:36 4,0 C 77 % 1007,6 hPa 0,0 l/m 4,6 km/h SW 233 0 min 0,000 mm 0,0 UV-I 23 W/m 0,3 C 4,0 C 7,7 km/h 100,00 %
25.01.2021 16:35 4,1 C 77 % 1007,6 hPa 0,0 l/m 1,0 km/h W-SW 238 0 min 0,000 mm 0,0 UV-I 23 W/m 0,4 C 4,1 C 3,8 km/h 100,00 %
25.01.2021 16:34 4,1 C 77 % 1007,5 hPa 0,0 l/m 1,7 km/h W-SW 238 0 min 0,000 mm 0,0 UV-I 23 W/m 0,4 C 4,1 C 3,8 km/h 95,83 %
25.01.2021 16:33 4,1 C 77 % 1007,5 hPa 0,0 l/m 4,7 km/h W-SW 238 0 min 0,000 mm 0,0 UV-I 24 W/m 0,4 C 4,1 C 7,7 km/h 95,65 %
25.01.2021 16:32 4,2 C 77 % 1007,5 hPa 0,0 l/m 4,3 km/h W-SW 239 0 min 0,000 mm 0,0 UV-I 25 W/m 0,5 C 4,2 C 7,7 km/h 100,00 %
25.01.2021 16:31 4,2 C 77 % 1007,5 hPa 0,0 l/m 4,0 km/h W-SW 238 0 min 0,000 mm 0,0 UV-I 25 W/m 0,5 C 4,2 C 5,7 km/h 96,55 %
25.01.2021 16:30 4,2 C 77 % 1007,4 hPa 0,0 l/m 5,3 km/h W-SW 238 0 min 0,000 mm 0,0 UV-I 25 W/m 0,5 C 4,2 C 7,7 km/h 100,00 %
25.01.2021 16:29 4,3 C 76 % 1007,5 hPa 0,0 l/m 6,4 km/h SW 223 0 min 0,000 mm 0,0 UV-I 26 W/m 0,5 C 4,3 C 7,7 km/h 96,30 %
25.01.2021 16:28 4,3 C 76 % 1007,5 hPa 0,0 l/m 4,1 km/h SW 220 0 min 0,000 mm 0,0 UV-I 27 W/m 0,5 C 4,3 C 7,7 km/h 95,65 %
25.01.2021 16:27 4,3 C 76 % 1007,4 hPa 0,0 l/m 4,7 km/h SW 220 0 min 0,000 mm 0,0 UV-I 31 W/m 0,5 C 4,3 C 7,7 km/h 96,55 %
25.01.2021 16:26 4,4 C 76 % 1007,3 hPa 0,0 l/m 4,4 km/h SW 219 0 min 0,000 mm 0,0 UV-I 38 W/m 0,5 C 4,4 C 9,6 km/h 100,00 %
25.01.2021 16:25 4,4 C 76 % 1007,4 hPa 0,0 l/m 5,1 km/h SW 236 0 min 0,000 mm 0,0 UV-I 42 W/m 0,5 C 4,4 C 9,6 km/h 96,43 %
25.01.2021 16:24 4,4 C 76 % 1007,3 hPa 0,0 l/m 6,3 km/h SW 232 0 min 0,000 mm 0,0 UV-I 42 W/m 0,5 C 4,4 C 9,6 km/h 97,56 %
25.01.2021 16:23 4,5 C 76 % 1007,4 hPa 0,0 l/m 3,5 km/h SW 228 0 min 0,000 mm 0,0 UV-I 41 W/m 0,6 C 4,5 C 7,7 km/h 98,97 %
25.01.2021 16:22 4,5 C 76 % 1007,3 hPa 0,0 l/m 3,6 km/h SW 223 0 min 0,000 mm 0,0 UV-I 48 W/m 0,6 C 4,5 C 5,7 km/h 95,65 %
25.01.2021 16:21 4,6 C 76 % 1007,3 hPa 0,0 l/m 3,2 km/h SW 223 0 min 0,000 mm 0,0 UV-I 55 W/m 0,7 C 4,6 C 5,7 km/h 100,00 %
25.01.2021 16:20 4,6 C 76 % 1007,4 hPa 0,0 l/m 4,7 km/h SW 222 0 min 0,000 mm 0,0 UV-I 60 W/m 0,7 C 4,6 C 7,7 km/h 94,12 %
25.01.2021 16:19 4,6 C 76 % 1007,4 hPa 0,0 l/m 4,1 km/h SW 225 0 min 0,000 mm 0,0 UV-I 63 W/m 0,7 C 4,6 C 7,7 km/h 95,83 %
25.01.2021 16:18 4,6 C 76 % 1007,3 hPa 0,0 l/m 3,2 km/h SW 225 0 min 0,000 mm 0,0 UV-I 66 W/m 0,7 C 4,6 C 7,7 km/h 92,31 %
25.01.2021 16:17 4,6 C 76 % 1007,4 hPa 0,0 l/m 2,6 km/h SW 225 0 min 0,000 mm 0,0 UV-I 70 W/m 0,7 C 4,6 C 5,7 km/h 100,00 %
25.01.2021 16:16 4,6 C 76 % 1007,4 hPa 0,0 l/m 4,3 km/h SW 225 0 min 0,000 mm 0,0 UV-I 75 W/m 0,7 C 4,6 C 7,7 km/h 95,83 %
25.01.2021 16:15 4,6 C 76 % 1007,4 hPa 0,0 l/m 6,0 km/h SW 225 0 min 0,000 mm 0,0 UV-I 78 W/m 0,7 C 4,6 C 9,6 km/h 95,83 %
25.01.2021 16:14 4,6 C 76 % 1007,3 hPa 0,0 l/m 4,4 km/h W-SW 241 0 min 0,000 mm 0,0 UV-I 80 W/m 0,7 C 4,6 C 9,6 km/h 100,00 %
25.01.2021 16:13 4,7 C 76 % 1007,3 hPa 0,0 l/m 5,7 km/h W-SW 240 0 min 0,000 mm 0,0 UV-I 80 W/m 0,8 C 4,7 C 9,6 km/h 95,24 %
25.01.2021 16:12 4,7 C 75 % 1007,3 hPa 0,0 l/m 5,6 km/h W-SW 241 0 min 0,000 mm 0,0 UV-I 79 W/m 0,7 C 4,7 C 9,6 km/h 92,86 %
25.01.2021 16:11 4,7 C 75 % 1007,2 hPa 0,0 l/m 7,4 km/h W-SW 254 0 min 0,000 mm 0,0 UV-I 79 W/m 0,7 C 3,8 C 11,5 km/h 91,67 %
25.01.2021 16:10 4,7 C 75 % 1007,2 hPa 0,0 l/m 6,0 km/h SW 229 0 min 0,000 mm 0,0 UV-I 84 W/m 0,7 C 4,7 C 9,6 km/h 100,00 %
25.01.2021 16:09 4,7 C 75 % 1007,2 hPa 0,0 l/m 3,3 km/h SW 229 0 min 0,000 mm 0,0 UV-I 88 W/m 0,7 C 4,7 C 5,7 km/h 95,65 %
25.01.2021 16:08 4,7 C 75 % 1007,2 hPa 0,0 l/m 5,6 km/h SW 229 0 min 0,000 mm 0,0 UV-I 90 W/m 0,7 C 4,7 C 7,7 km/h 95,83 %
25.01.2021 16:07 4,7 C 75 % 1007,2 hPa 0,0 l/m 5,2 km/h SW 225 0 min 0,000 mm 0,0 UV-I 92 W/m 0,7 C 4,7 C 7,7 km/h 100,00 %
25.01.2021 16:06 4,7 C 75 % 1007,2 hPa 0,0 l/m 3,7 km/h SW 218 0 min 0,000 mm 0,0 UV-I 95 W/m 0,7 C 4,7 C 7,7 km/h 95,83 %
25.01.2021 16:05 4,7 C 74 % 1007,2 hPa 0,0 l/m 7,2 km/h SW 217 0 min 0,000 mm 0,0 UV-I 97 W/m 0,5 C 4,0 C 9,6 km/h 91,30 %
25.01.2021 16:04 4,8 C 75 % 1007,2 hPa 0,0 l/m 5,0 km/h W-SW 237 0 min 0,000 mm 0,0 UV-I 101 W/m 0,8 C 4,8 C 7,7 km/h 96,30 %
25.01.2021 16:03 4,8 C 74 % 1007,1 hPa 0,0 l/m 6,0 km/h SW 229 0 min 0,000 mm 0,0 UV-I 104 W/m 0,6 C 4,8 C 7,7 km/h 100,00 %
25.01.2021 16:02 4,8 C 74 % 1007,2 hPa 0,0 l/m 8,6 km/h SW 236 0 min 0,000 mm 0,0 UV-I 104 W/m 0,6 C 2,9 C 15,3 km/h 93,33 %
25.01.2021 16:01 4,8 C 74 % 1007,1 hPa 0,0 l/m 6,5 km/h SW 232 0 min 0,076 mm 0,0 UV-I 104 W/m 0,6 C 4,7 C 11,5 km/h 96,55 %
25.01.2021 16:00 4,8 C 74 % 1007,0 hPa 0,0 l/m 4,3 km/h SW 218 0 min 0,000 mm 0,0 UV-I 107 W/m 0,6 C 4,8 C 9,6 km/h 100,00 %
25.01.2021 15:59 4,8 C 74 % 1007,0 hPa 0,0 l/m 5,7 km/h SW 235 0 min 0,000 mm 0,0 UV-I 114 W/m 0,6 C 4,8 C 15,3 km/h 92,86 %
25.01.2021 15:58 4,8 C 74 % 1007,0 hPa 0,0 l/m 5,2 km/h SW 227 0 min 0,000 mm 0,0 UV-I 115 W/m 0,6 C 4,8 C 7,7 km/h 96,00 %
25.01.2021 15:57 4,8 C 74 % 1007,0 hPa 0,0 l/m 7,3 km/h SW 219 0 min 0,000 mm 0,0 UV-I 118 W/m 0,6 C 4,0 C 9,6 km/h 91,30 %
25.01.2021 15:56 4,9 C 74 % 1007,0 hPa 0,0 l/m 6,2 km/h W-SW 245 0 min 0,000 mm 0,0 UV-I 119 W/m 0,7 C 4,9 C 13,4 km/h 96,30 %
25.01.2021 15:55 4,9 C 74 % 1007,0 hPa 0,0 l/m 4,9 km/h SW 220 0 min 0,000 mm 0,0 UV-I 122 W/m 0,7 C 4,9 C 7,7 km/h 95,83 %
25.01.2021 15:54 4,9 C 75 % 1006,9 hPa 0,0 l/m 8,3 km/h SW 225 0 min 0,000 mm 0,0 UV-I 126 W/m 0,8 C 3,3 C 9,6 km/h 94,44 %
25.01.2021 15:53 4,9 C 75 % 1007,0 hPa 0,0 l/m 5,5 km/h SW 234 0 min 0,000 mm 0,0 UV-I 119 W/m 0,8 C 4,9 C 9,6 km/h 96,15 %
25.01.2021 15:52 4,9 C 75 % 1006,9 hPa 0,0 l/m 5,5 km/h W-SW 238 0 min 0,000 mm 0,0 UV-I 125 W/m 0,8 C 4,9 C 9,6 km/h 100,00 %
25.01.2021 15:51 4,9 C 75 % 1006,9 hPa 0,0 l/m 5,9 km/h SW 226 0 min 0,000 mm 0,0 UV-I 131 W/m 0,8 C 4,9 C 9,6 km/h 95,83 %
25.01.2021 15:50 4,9 C 75 % 1006,9 hPa 0,0 l/m 5,4 km/h SW 230 0 min 0,000 mm 0,0 UV-I 139 W/m 0,8 C 4,9 C 11,5 km/h 92,31 %
25.01.2021 15:49 4,9 C 75 % 1006,9 hPa 0,0 l/m 2,4 km/h W-SW 242 0 min 0,000 mm 0,0 UV-I 141 W/m 0,8 C 4,9 C 3,8 km/h 96,30 %
25.01.2021 15:48 4,8 C 75 % 1006,8 hPa 0,0 l/m 3,3 km/h W-SW 242 0 min 0,000 mm 0,0 UV-I 142 W/m 0,8 C 4,8 C 5,7 km/h 95,83 %
25.01.2021 15:47 4,8 C 75 % 1006,8 hPa 0,0 l/m 5,4 km/h W-SW 242 0 min 0,000 mm 0,0 UV-I 144 W/m 0,8 C 4,8 C 11,5 km/h 100,00 %
25.01.2021 15:46 4,8 C 75 % 1006,8 hPa 0,0 l/m 2,6 km/h SW 228 0 min 0,000 mm 0,0 UV-I 147 W/m 0,8 C 4,8 C 5,7 km/h 96,15 %
25.01.2021 15:45 4,8 C 75 % 1006,8 hPa 0,0 l/m 5,5 km/h SW 228 0 min 0,000 mm 0,0 UV-I 149 W/m 0,8 C 4,8 C 7,7 km/h 100,00 %
25.01.2021 15:44 4,9 C 75 % 1006,8 hPa 0,0 l/m 6,9 km/h SW 220 0 min 0,000 mm 0,0 UV-I 150 W/m 0,8 C 4,5 C 9,6 km/h 92,86 %
25.01.2021 15:43 4,9 C 75 % 1006,8 hPa 0,0 l/m 5,7 km/h SW 235 0 min 0,000 mm 0,0 UV-I 152 W/m 0,8 C 4,9 C 9,6 km/h 100,00 %
25.01.2021 15:42 4,9 C 75 % 1006,7 hPa 0,0 l/m 6,9 km/h SW 230 0 min 0,000 mm 0,0 UV-I 155 W/m 0,8 C 4,5 C 9,6 km/h 97,73 %
25.01.2021 15:41 4,9 C 75 % 1006,7 hPa 0,0 l/m 6,8 km/h SW 230 0 min 0,000 mm 0,0 UV-I 156 W/m 0,8 C 4,6 C 9,6 km/h 91,67 %
25.01.2021 15:40 4,9 C 75 % 1006,7 hPa 0,0 l/m 4,7 km/h SW 229 0 min 0,000 mm 0,0 UV-I 156 W/m 0,8 C 4,9 C 7,7 km/h 100,00 %
25.01.2021 15:39 4,9 C 75 % 1006,7 hPa 0,0 l/m 4,6 km/h SW 231 0 min 0,000 mm 0,0 UV-I 160 W/m 0,8 C 4,9 C 7,7 km/h 96,30 %
25.01.2021 15:38 4,9 C 75 % 1006,7 hPa 0,0 l/m 4,7 km/h W-SW 246 0 min 0,000 mm 0,0 UV-I 163 W/m 0,8 C 4,9 C 9,6 km/h 100,00 %
25.01.2021 15:37 4,9 C 75 % 1006,7 hPa 0,0 l/m 4,5 km/h SW 217 0 min 0,000 mm 0,0 UV-I 163 W/m 0,8 C 4,9 C 9,6 km/h 95,83 %
25.01.2021 15:36 4,9 C 74 % 1006,7 hPa 0,0 l/m 8,4 km/h W-SW 246 0 min 0,000 mm 0,0 UV-I 163 W/m 0,7 C 3,2 C 11,5 km/h 100,00 %
25.01.2021 15:35 4,9 C 74 % 1006,6 hPa 0,0 l/m 6,3 km/h SW 234 0 min 0,000 mm 0,0 UV-I 163 W/m 0,7 C 4,9 C 11,5 km/h 95,83 %
25.01.2021 15:34 4,9 C 74 % 1006,6 hPa 0,0 l/m 9,2 km/h SW 215 0 min 0,000 mm 0,0 UV-I 164 W/m 0,7 C 2,5 C 15,3 km/h 91,67 %
25.01.2021 15:33 5,0 C 74 % 1006,6 hPa 0,0 l/m 9,8 km/h SW 215 0 min 0,000 mm 0,0 UV-I 169 W/m 0,8 C 2,2 C 15,3 km/h 100,00 %
25.01.2021 15:32 5,0 C 74 % 1006,6 hPa 0,0 l/m 6,4 km/h SW 227 0 min 0,000 mm 0,0 UV-I 172 W/m 0,8 C 5,0 C 9,6 km/h 96,15 %
25.01.2021 15:31 5,1 C 75 % 1006,6 hPa 0,0 l/m 8,4 km/h SW 227 0 min 0,000 mm 0,0 UV-I 174 W/m 1,0 C 3,4 C 11,5 km/h 100,00 %
25.01.2021 15:30 5,1 C 75 % 1006,6 hPa 0,0 l/m 9,2 km/h SW 236 0 min 0,000 mm 0,0 UV-I 176 W/m 1,0 C 2,8 C 15,3 km/h 96,55 %
25.01.2021 15:29 5,1 C 75 % 1006,6 hPa 0,0 l/m 2,9 km/h SW 228 0 min 0,000 mm 0,0 UV-I 178 W/m 1,0 C 5,1 C 5,7 km/h 100,00 %
25.01.2021 15:28 5,0 C 75 % 1006,5 hPa 0,0 l/m 0,5 km/h SW 227 0 min 0,000 mm 0,0 UV-I 180 W/m 0,9 C 5,0 C 3,8 km/h 96,30 %
25.01.2021 15:27 5,0 C 75 % 1006,5 hPa 0,0 l/m 2,1 km/h SW 227 0 min 0,000 mm 0,0 UV-I 182 W/m 0,9 C 5,0 C 3,8 km/h 100,00 %
25.01.2021 15:26 5,1 C 75 % 1006,5 hPa 0,0 l/m 7,4 km/h SW 227 0 min 0,000 mm 0,0 UV-I 186 W/m 1,0 C 4,2 C 11,5 km/h 96,30 %
25.01.2021 15:25 5,1 C 75 % 1006,5 hPa 0,0 l/m 6,3 km/h SW 223 0 min 0,000 mm 0,0 UV-I 188 W/m 1,0 C 5,1 C 9,6 km/h 96,30 %
25.01.2021 15:24 5,1 C 75 % 1006,5 hPa 0,0 l/m 7,2 km/h W-SW 239 0 min 0,000 mm 0,0 UV-I 190 W/m 1,0 C 4,4 C 11,5 km/h 100,00 %
25.01.2021 15:23 5,1 C 75 % 1006,5 hPa 0,0 l/m 4,5 km/h W-SW 242 0 min 0,000 mm 0,0 UV-I 194 W/m 1,0 C 5,1 C 7,7 km/h 96,15 %
25.01.2021 15:22 5,1 C 75 % 1006,5 hPa 0,0 l/m 3,9 km/h SW 232 0 min 0,000 mm 0,0 UV-I 195 W/m 1,0 C 5,1 C 11,5 km/h 100,00 %
25.01.2021 15:21 5,1 C 75 % 1006,4 hPa 0,0 l/m 8,5 km/h SW 224 0 min 0,000 mm 0,0 UV-I 196 W/m 1,0 C 3,3 C 11,5 km/h 95,65 %
25.01.2021 15:20 5,1 C 75 % 1006,4 hPa 0,0 l/m 8,6 km/h W-SW 237 0 min 0,000 mm 0,0 UV-I 198 W/m 1,0 C 3,2 C 17,2 km/h 100,00 %
25.01.2021 15:19 5,1 C 74 % 1006,5 hPa 0,0 l/m 6,2 km/h SW 220 0 min 0,000 mm 0,0 UV-I 199 W/m 0,9 C 5,1 C 9,6 km/h 91,67 %
25.01.2021 15:18 5,1 C 74 % 1006,4 hPa 0,0 l/m 5,7 km/h W-SW 243 0 min 0,000 mm 0,0 UV-I 200 W/m 0,9 C 5,1 C 9,6 km/h 100,00 %
25.01.2021 15:17 5,1 C 74 % 1006,4 hPa 0,0 l/m 6,6 km/h SW 223 0 min 0,000 mm 0,0 UV-I 203 W/m 0,9 C 4,9 C 11,5 km/h 92,31 %
25.01.2021 15:16 5,1 C 74 % 1006,4 hPa 0,0 l/m 10,1 km/h W-SW 248 0 min 0,000 mm 0,0 UV-I 207 W/m 0,9 C 2,1 C 13,4 km/h 96,30 %
25.01.2021 15:15 5,2 C 74 % 1006,4 hPa 0,0 l/m 6,9 km/h W-SW 240 0 min 0,000 mm 0,0 UV-I 211 W/m 1,0 C 4,8 C 11,5 km/h 96,15 %
25.01.2021 15:14 5,2 C 74 % 1006,4 hPa 0,0 l/m 6,4 km/h SW 224 0 min 0,000 mm 0,0 UV-I 210 W/m 1,0 C 5,2 C 9,6 km/h 93,33 %
25.01.2021 15:13 5,2 C 74 % 1006,4 hPa 0,0 l/m 4,3 km/h SW 223 0 min 0,000 mm 0,0 UV-I 213 W/m 1,0 C 5,2 C 7,7 km/h 100,00 %
25.01.2021 15:12 5,2 C 74 % 1006,3 hPa 0,0 l/m 3,4 km/h SW 223 0 min 0,000 mm 0,0 UV-I 218 W/m 1,0 C 5,2 C 5,7 km/h 96,97 %
25.01.2021 15:11 5,2 C 74 % 1006,4 hPa 0,0 l/m 9,6 km/h SW 222 0 min 0,000 mm 0,0 UV-I 219 W/m 1,0 C 2,6 C 15,3 km/h 100,00 %
25.01.2021 15:10 5,2 C 74 % 1006,3 hPa 0,0 l/m 6,9 km/h SW 235 0 min 0,000 mm 0,0 UV-I 221 W/m 1,0 C 4,8 C 13,4 km/h 96,30 %
25.01.2021 15:09 5,2 C 74 % 1006,3 hPa 0,0 l/m 5,3 km/h S-SW 209 0 min 0,000 mm 0,0 UV-I 223 W/m 1,0 C 5,2 C 9,6 km/h 100,00 %
25.01.2021 15:08 5,3 C 74 % 1006,3 hPa 0,0 l/m 5,4 km/h SW 226 0 min 0,000 mm 0,0 UV-I 226 W/m 1,0 C 5,3 C 7,7 km/h 91,30 %
25.01.2021 15:07 5,3 C 75 % 1006,3 hPa 0,0 l/m 7,9 km/h SW 218 0 min 0,000 mm 0,0 UV-I 229 W/m 1,2 C 4,0 C 11,5 km/h 96,30 %
25.01.2021 15:06 5,3 C 75 % 1006,3 hPa 0,0 l/m 7,7 km/h SW 234 0 min 0,000 mm 0,0 UV-I 230 W/m 1,2 C 4,2 C 11,5 km/h 100,00 %
25.01.2021 15:05 5,2 C 74 % 1006,3 hPa 0,0 l/m 3,1 km/h SW 220 0 min 0,000 mm 0,0 UV-I 231 W/m 1,0 C 5,2 C 5,7 km/h 95,83 %
25.01.2021 15:04 5,2 C 74 % 1006,3 hPa 0,0 l/m 5,9 km/h SW 223 0 min 0,000 mm 0,0 UV-I 232 W/m 1,0 C 5,2 C 7,7 km/h 100,00 %
25.01.2021 15:03 5,1 C 74 % 1006,3 hPa 0,0 l/m 3,3 km/h SW 219 0 min 0,000 mm 0,0 UV-I 232 W/m 0,9 C 5,1 C 7,7 km/h 98,00 %
25.01.2021 15:01 5,1 C 74 % 1006,3 hPa 0,0 l/m 3,7 km/h S-SW 202 0 min 0,127 mm 0,0 UV-I 239 W/m 0,9 C 5,1 C 7,7 km/h 96,30 %
25.01.2021 15:00 5,1 C 74 % 1006,3 hPa 0,0 l/m 4,8 km/h SW 231 0 min 0,000 mm 0,0 UV-I 243 W/m 0,9 C 5,1 C 7,7 km/h 96,15 %
25.01.2021 14:59 5,1 C 75 % 1006,3 hPa 0,0 l/m 5,2 km/h W-NW 286 0 min 0,000 mm 0,0 UV-I 243 W/m 1,0 C 5,1 C 13,4 km/h 100,00 %
25.01.2021 14:58 5,1 C 75 % 1006,3 hPa 0,0 l/m 3,8 km/h W-SW 243 0 min 0,000 mm 0,0 UV-I 242 W/m 1,0 C 5,1 C 5,7 km/h 92,86 %
25.01.2021 14:57 5,2 C 75 % 1006,2 hPa 0,0 l/m 5,5 km/h W-SW 242 0 min 0,000 mm 0,0 UV-I 242 W/m 1,1 C 5,2 C 9,6 km/h 100,00 %
25.01.2021 14:56 5,2 C 75 % 1006,2 hPa 0,0 l/m 7,1 km/h W-SW 244 0 min 0,000 mm 0,0 UV-I 247 W/m 1,1 C 4,6 C 13,4 km/h 95,65 %
25.01.2021 14:55 5,2 C 76 % 1006,2 hPa 0,0 l/m 8,2 km/h S-SW 211 0 min 0,000 mm 0,0 UV-I 250 W/m 1,3 C 3,6 C 11,5 km/h 100,00 %
25.01.2021 14:54 5,2 C 75 % 1006,2 hPa 0,0 l/m 4,1 km/h SW 215 0 min 0,000 mm 0,0 UV-I 250 W/m 1,1 C 5,2 C 5,7 km/h 96,15 %
25.01.2021 14:53 5,2 C 75 % 1006,2 hPa 0,0 l/m 6,1 km/h SW 229 0 min 0,000 mm 0,0 UV-I 252 W/m 1,1 C 5,2 C 7,7 km/h 100,00 %
25.01.2021 14:52 5,2 C 75 % 1006,2 hPa 0,0 l/m 7,0 km/h SW 231 0 min 0,000 mm 0,0 UV-I 255 W/m 1,1 C 4,7 C 9,6 km/h 96,30 %
25.01.2021 14:51 5,2 C 75 % 1006,2 hPa 0,0 l/m 7,0 km/h SW 224 0 min 0,000 mm 0,0 UV-I 255 W/m 1,1 C 4,7 C 9,6 km/h 100,00 %
25.01.2021 14:50 5,3 C 76 % 1006,1 hPa 0,0 l/m 8,9 km/h S-SW 207 0 min 0,000 mm 0,0 UV-I 255 W/m 1,4 C 3,2 C 11,5 km/h 95,83 %
25.01.2021 14:49 5,3 C 76 % 1006,2 hPa 0,0 l/m 9,6 km/h S-SW 210 0 min 0,000 mm 0,0 UV-I 255 W/m 1,4 C 2,7 C 13,4 km/h 96,30 %
25.01.2021 14:48 5,3 C 76 % 1006,1 hPa 0,0 l/m 5,0 km/h SW 215 0 min 0,000 mm 0,0 UV-I 251 W/m 1,4 C 5,3 C 11,5 km/h 100,00 %
25.01.2021 14:47 5,3 C 76 % 1006,1 hPa 0,0 l/m 4,2 km/h SW 215 0 min 0,000 mm 0,0 UV-I 249 W/m 1,4 C 5,3 C 7,7 km/h 91,30 %
25.01.2021 14:46 5,3 C 76 % 1006,1 hPa 0,0 l/m 7,3 km/h SW 215 0 min 0,000 mm 0,0 UV-I 254 W/m 1,4 C 4,5 C 9,6 km/h 100,00 %
25.01.2021 14:45 5,2 C 76 % 1006,1 hPa 0,0 l/m 4,2 km/h SW 219 0 min 0,000 mm 0,0 UV-I 256 W/m 1,3 C 5,2 C 13,4 km/h 95,65 %
25.01.2021 14:44 5,2 C 77 % 1006,1 hPa 0,0 l/m 0,9 km/h SW 230 0 min 0,000 mm 0,0 UV-I 259 W/m 1,5 C 5,2 C 3,8 km/h 100,00 %
25.01.2021 14:43 5,2 C 77 % 1006,1 hPa 0,0 l/m 0,2 km/h SW 227 0 min 0,000 mm 0,0 UV-I 267 W/m 1,5 C 5,2 C 1,9 km/h 93,75 %
25.01.2021 14:42 5,2 C 77 % 1006,0 hPa 0,0 l/m 0,2 km/h SW 227 0 min 0,000 mm 0,0 UV-I 272 W/m 1,5 C 5,2 C 1,9 km/h 100,00 %
25.01.2021 14:41 5,1 C 77 % 1006,0 hPa 0,0 l/m 1,8 km/h SW 227 0 min 0,000 mm 0,0 UV-I 273 W/m 1,4 C 5,1 C 5,7 km/h 96,15 %
25.01.2021 14:40 5,1 C 77 % 1006,0 hPa 0,0 l/m 2,0 km/h SW 227 0 min 0,000 mm 0,0 UV-I 271 W/m 1,4 C 5,1 C 3,8 km/h 95,83 %
25.01.2021 14:39 4,9 C 77 % 1006,0 hPa 0,0 l/m 6,1 km/h SW 227 0 min 0,000 mm 0,0 UV-I 268 W/m 1,2 C 4,9 C 7,7 km/h 100,00 %
25.01.2021 14:38 4,9 C 77 % 1006,0 hPa 0,0 l/m 3,5 km/h SW 230 0 min 0,000 mm 0,0 UV-I 271 W/m 1,2 C 4,9 C 5,7 km/h 91,67 %
25.01.2021 14:37 4,8 C 77 % 1006,0 hPa 0,0 l/m 5,1 km/h SW 229 0 min 0,000 mm 0,0 UV-I 277 W/m 1,1 C 4,8 C 11,5 km/h 100,00 %
25.01.2021 14:36 4,8 C 77 % 1006,0 hPa 0,0 l/m 4,1 km/h SW 231 0 min 0,000 mm 0,0 UV-I 278 W/m 1,1 C 4,8 C 5,7 km/h 96,67 %
25.01.2021 14:35 4,7 C 77 % 1005,9 hPa 0,0 l/m 4,1 km/h W-SW 238 0 min 0,000 mm 0,0 UV-I 278 W/m 1,0 C 4,7 C 7,7 km/h 96,15 %
25.01.2021 14:34 4,7 C 77 % 1006,0 hPa 0,0 l/m 5,1 km/h W-SW 243 0 min 0,000 mm 0,0 UV-I 284 W/m 1,0 C 4,7 C 9,6 km/h 100,00 %
25.01.2021 14:33 4,7 C 77 % 1006,0 hPa 0,0 l/m 1,2 km/h W-NW 292 0 min 0,000 mm 0,0 UV-I 285 W/m 1,0 C 4,7 C 3,8 km/h 95,83 %
25.01.2021 14:32 4,7 C 77 % 1006,0 hPa 0,0 l/m 2,0 km/h W-NW 292 1 min 0,000 mm 0,0 UV-I 288 W/m 1,0 C 4,7 C 3,8 km/h 95,65 %
25.01.2021 14:31 4,7 C 77 % 1005,9 hPa 0,0 l/m 0,7 km/h W-NW 292 0 min 0,000 mm 0,0 UV-I 283 W/m 1,0 C 4,7 C 3,8 km/h 94,74 %
25.01.2021 14:30 4,7 C 77 % 1005,9 hPa 0,0 l/m 2,4 km/h W-NW 297 0 min 0,000 mm 0,0 UV-I 287 W/m 1,0 C 4,7 C 7,7 km/h 100,00 %
25.01.2021 14:29 4,8 C 77 % 1005,9 hPa 0,0 l/m 4,1 km/h W-NW 292 1 min 0,000 mm 0,0 UV-I 293 W/m 1,1 C 4,8 C 7,7 km/h 96,15 %
25.01.2021 14:28 4,7 C 78 % 1005,9 hPa 0,0 l/m 3,0 km/h W-SW 245 1 min 0,000 mm 0,0 UV-I 293 W/m 1,2 C 4,7 C 5,7 km/h 92,86 %
25.01.2021 14:27 4,7 C 78 % 1006,0 hPa 0,0 l/m 2,5 km/h W-SW 252 1 min 0,000 mm 0,0 UV-I 294 W/m 1,2 C 4,7 C 3,8 km/h 100,00 %
25.01.2021 14:26 4,7 C 78 % 1005,9 hPa 0,0 l/m 1,3 km/h W-SW 240 1 min 0,000 mm 0,0 UV-I 295 W/m 1,2 C 4,7 C 3,8 km/h 100,00 %
25.01.2021 14:25 4,6 C 78 % 1005,9 hPa 0,0 l/m 1,0 km/h W-SW 242 0 min 0,000 mm 0,0 UV-I 286 W/m 1,1 C 4,6 C 3,8 km/h 95,83 %
25.01.2021 14:24 4,5 C 78 % 1005,9 hPa 0,0 l/m 1,7 km/h W-SW 242 1 min 0,000 mm 0,0 UV-I 292 W/m 1,0 C 4,5 C 5,7 km/h 91,30 %
25.01.2021 14:23 4,4 C 78 % 1005,9 hPa 0,0 l/m 1,6 km/h W-SW 242 1 min 0,000 mm 0,0 UV-I 294 W/m 0,9 C 4,4 C 3,8 km/h 100,00 %
25.01.2021 14:22 4,4 C 78 % 1005,9 hPa 0,0 l/m 3,2 km/h W-SW 240 0 min 0,000 mm 0,0 UV-I 279 W/m 0,9 C 4,4 C 9,6 km/h 100,00 %
25.01.2021 14:21 4,3 C 77 % 1005,9 hPa 0,0 l/m 1,3 km/h SW 228 1 min 0,000 mm 0,0 UV-I 290 W/m 0,6 C 4,3 C 3,8 km/h 100,00 %
25.01.2021 14:20 4,4 C 77 % 1006,0 hPa 0,0 l/m 6,1 km/h SW 223 1 min 0,000 mm 0,0 UV-I 302 W/m 0,7 C 4,4 C 7,7 km/h 100,00 %
25.01.2021 14:19 4,4 C 77 % 1005,9 hPa 0,0 l/m 6,9 km/h W-NW 295 1 min 0,000 mm 0,0 UV-I 303 W/m 0,7 C 4,0 C 13,4 km/h 100,00 %
25.01.2021 14:18 4,4 C 77 % 1005,9 hPa 0,0 l/m 6,5 km/h W-NW 297 1 min 0,000 mm 0,0 UV-I 300 W/m 0,7 C 4,3 C 9,6 km/h 95,65 %
25.01.2021 14:17 4,5 C 77 % 1005,9 hPa 0,0 l/m 7,7 km/h W-NW 302 1 min 0,000 mm 0,0 UV-I 302 W/m 0,8 C 3,3 C 13,4 km/h 100,00 %
25.01.2021 14:16 4,6 C 77 % 1005,9 hPa 0,0 l/m 4,2 km/h W-NW 284 1 min 0,000 mm 0,0 UV-I 306 W/m 0,9 C 4,6 C 7,7 km/h 100,00 %
25.01.2021 14:15 4,6 C 77 % 1005,9 hPa 0,0 l/m 2,9 km/h W 276 1 min 0,000 mm 0,5 UV-I 308 W/m 0,9 C 4,6 C 7,7 km/h 100,00 %
25.01.2021 14:14 4,6 C 77 % 1005,9 hPa 0,0 l/m 3,1 km/h W-SW 243 1 min 0,000 mm 0,5 UV-I 309 W/m 0,9 C 4,6 C 5,7 km/h 100,00 %
25.01.2021 14:13 4,7 C 77 % 1005,9 hPa 0,0 l/m 1,0 km/h SW 234 1 min 0,000 mm 0,5 UV-I 312 W/m 1,0 C 4,7 C 3,8 km/h 100,00 %
25.01.2021 14:12 4,7 C 77 % 1005,9 hPa 0,0 l/m 4,0 km/h W-NW 287 1 min 0,000 mm 0,5 UV-I 316 W/m 1,0 C 4,7 C 7,7 km/h 100,00 %
25.01.2021 14:11 4,7 C 77 % 1005,9 hPa 0,0 l/m 4,1 km/h W 273 1 min 0,000 mm 0,5 UV-I 318 W/m 1,0 C 4,7 C 11,5 km/h 100,00 %
25.01.2021 14:10 4,7 C 77 % 1005,9 hPa 0,0 l/m 3,6 km/h W-SW 244 1 min 0,000 mm 0,5 UV-I 318 W/m 1,0 C 4,7 C 5,7 km/h 100,00 %
25.01.2021 14:09 4,7 C 78 % 1005,9 hPa 0,0 l/m 4,7 km/h SW 222 1 min 0,000 mm 0,5 UV-I 318 W/m 1,2 C 4,7 C 7,7 km/h 100,00 %
25.01.2021 14:08 4,7 C 78 % 1005,8 hPa 0,0 l/m 4,6 km/h SW 225 1 min 0,000 mm 0,5 UV-I 318 W/m 1,2 C 4,7 C 9,6 km/h 99,37 %
25.01.2021 14:07 4,7 C 78 % 1005,9 hPa 0,0 l/m 5,8 km/h SW 221 1 min 0,000 mm 0,5 UV-I 318 W/m 1,2 C 4,7 C 7,7 km/h 96,15 %
25.01.2021 14:06 4,7 C 78 % 1005,9 hPa 0,0 l/m 4,1 km/h SW 227 1 min 0,000 mm 0,5 UV-I 318 W/m 1,2 C 4,7 C 7,7 km/h 100,00 %
25.01.2021 14:05 4,7 C 78 % 1005,9 hPa 0,0 l/m 7,9 km/h SW 221 1 min 0,000 mm 0,5 UV-I 320 W/m 1,2 C 3,4 C 11,5 km/h 100,00 %
25.01.2021 14:04 4,7 C 78 % 1005,9 hPa 0,0 l/m 5,9 km/h SW 231 1 min 0,000 mm 0,5 UV-I 322 W/m 1,2 C 4,7 C 7,7 km/h 100,00 %
25.01.2021 14:03 4,6 C 78 % 1005,8 hPa 0,0 l/m 6,0 km/h SW 221 1 min 0,000 mm 0,5 UV-I 324 W/m 1,1 C 4,6 C 11,5 km/h 96,55 %
25.01.2021 14:02 4,6 C 78 % 1005,8 hPa 0,0 l/m 3,1 km/h W-SW 243 1 min 0,000 mm 0,5 UV-I 330 W/m 1,1 C 4,6 C 5,7 km/h 100,00 %
25.01.2021 14:01 4,6 C 79 % 1005,8 hPa 0,0 l/m 1,6 km/h W-SW 257 1 min 0,127 mm 0,5 UV-I 331 W/m 1,3 C 4,6 C 3,8 km/h 95,65 %
25.01.2021 14:00 4,6 C 79 % 1005,8 hPa 0,0 l/m 4,8 km/h W-SW 257 1 min 0,000 mm 0,5 UV-I 331 W/m 1,3 C 4,6 C 7,7 km/h 100,00 %
25.01.2021 13:59 4,6 C 79 % 1005,8 hPa 0,0 l/m 7,4 km/h W-NW 293 1 min 0,000 mm 0,5 UV-I 331 W/m 1,3 C 3,7 C 15,3 km/h 96,15 %
25.01.2021 13:58 4,6 C 79 % 1005,8 hPa 0,0 l/m 1,9 km/h SW 234 1 min 0,000 mm 0,5 UV-I 329 W/m 1,3 C 4,6 C 3,8 km/h 100,00 %
25.01.2021 13:57 4,5 C 79 % 1005,7 hPa 0,0 l/m 2,2 km/h SW 234 1 min 0,000 mm 0,5 UV-I 329 W/m 1,2 C 4,5 C 5,7 km/h 100,00 %
25.01.2021 13:56 4,4 C 79 % 1005,8 hPa 0,0 l/m 4,7 km/h SW 234 1 min 0,000 mm 0,5 UV-I 329 W/m 1,1 C 4,4 C 7,7 km/h 100,00 %
25.01.2021 13:55 4,4 C 80 % 1005,7 hPa 0,0 l/m 3,6 km/h W-SW 250 1 min 0,000 mm 0,5 UV-I 334 W/m 1,3 C 4,4 C 5,7 km/h 95,83 %
25.01.2021 13:54 4,4 C 79 % 1005,7 hPa 0,0 l/m 2,7 km/h S-SW 213 1 min 0,000 mm 0,5 UV-I 340 W/m 1,1 C 4,4 C 5,7 km/h 95,65 %
25.01.2021 13:53 4,3 C 80 % 1005,7 hPa 0,0 l/m 2,1 km/h W 276 1 min 0,000 mm 0,5 UV-I 342 W/m 1,2 C 4,3 C 3,8 km/h 100,00 %
25.01.2021 13:52 4,3 C 80 % 1005,7 hPa 0,0 l/m 1,8 km/h W 276 1 min 0,000 mm 0,5 UV-I 342 W/m 1,2 C 4,3 C 3,8 km/h 100,00 %
25.01.2021 13:51 4,3 C 80 % 1005,7 hPa 0,0 l/m 1,0 km/h W 275 1 min 0,000 mm 0,5 UV-I 339 W/m 1,2 C 4,3 C 3,8 km/h 100,00 %
25.01.2021 13:50 4,3 C 80 % 1005,7 hPa 0,0 l/m 4,4 km/h W 275 1 min 0,000 mm 0,5 UV-I 338 W/m 1,2 C 4,3 C 5,7 km/h 100,00 %
25.01.2021 13:49 4,3 C 80 % 1005,7 hPa 0,0 l/m 1,4 km/h W 263 1 min 0,000 mm 0,5 UV-I 338 W/m 1,2 C 4,3 C 3,8 km/h 95,83 %
25.01.2021 13:48 4,2 C 80 % 1005,7 hPa 0,0 l/m 0,4 km/h W 259 1 min 0,000 mm 0,5 UV-I 338 W/m 1,1 C 4,2 C 1,9 km/h 100,00 %
25.01.2021 13:47 4,1 C 80 % 1005,7 hPa 0,0 l/m 0,9 km/h W 259 1 min 0,000 mm 0,5 UV-I 340 W/m 1,0 C 4,1 C 1,9 km/h 100,00 %
25.01.2021 13:46 4,0 C 80 % 1005,7 hPa 0,0 l/m 3,0 km/h W 259 1 min 0,000 mm 0,5 UV-I 345 W/m 0,9 C 4,0 C 5,7 km/h 100,00 %
25.01.2021 13:45 3,9 C 80 % 1005,7 hPa 0,0 l/m 4,2 km/h W-NW 297 1 min 0,000 mm 0,5 UV-I 346 W/m 0,8 C 3,9 C 9,6 km/h 100,00 %
25.01.2021 13:44 3,9 C 80 % 1005,7 hPa 0,0 l/m 3,8 km/h W-NW 298 1 min 0,000 mm 0,5 UV-I 339 W/m 0,8 C 3,9 C 9,6 km/h 100,00 %
25.01.2021 13:43 3,9 C 80 % 1005,7 hPa 0,0 l/m 2,7 km/h W-NW 292 1 min 0,000 mm 0,5 UV-I 340 W/m 0,8 C 3,9 C 5,7 km/h 100,00 %
25.01.2021 13:42 3,9 C 80 % 1005,7 hPa 0,0 l/m 6,0 km/h W-NW 292 1 min 0,000 mm 0,5 UV-I 340 W/m 0,8 C 3,9 C 9,6 km/h 100,00 %
25.01.2021 13:41 4,0 C 81 % 1005,7 hPa 0,0 l/m 5,3 km/h W-NW 285 1 min 0,000 mm 0,5 UV-I 338 W/m 1,0 C 4,0 C 7,7 km/h 100,00 %
25.01.2021 13:40 4,1 C 81 % 1005,7 hPa 0,0 l/m 5,1 km/h W 268 1 min 0,000 mm 0,5 UV-I 340 W/m 1,1 C 4,1 C 7,7 km/h 96,15 %
25.01.2021 13:39 4,1 C 81 % 1005,6 hPa 0,0 l/m 2,9 km/h W-SW 241 1 min 0,000 mm 0,6 UV-I 349 W/m 1,1 C 4,1 C 5,7 km/h 100,00 %
25.01.2021 13:38 4,1 C 81 % 1005,7 hPa 0,0 l/m 1,6 km/h W-SW 241 1 min 0,000 mm 0,6 UV-I 352 W/m 1,1 C 4,1 C 3,8 km/h 100,00 %
25.01.2021 13:37 4,0 C 82 % 1005,7 hPa 0,0 l/m 3,2 km/h W-SW 240 1 min 0,000 mm 0,5 UV-I 348 W/m 1,2 C 4,0 C 5,7 km/h 91,67 %
25.01.2021 13:36 3,9 C 82 % 1005,7 hPa 0,0 l/m 2,2 km/h W-SW 239 1 min 0,000 mm 0,5 UV-I 346 W/m 1,1 C 3,9 C 3,8 km/h 100,00 %
25.01.2021 13:35 3,8 C 82 % 1005,7 hPa 0,0 l/m 0,6 km/h W-SW 238 1 min 0,000 mm 0,6 UV-I 345 W/m 1,0 C 3,8 C 1,9 km/h 100,00 %
25.01.2021 13:34 3,7 C 82 % 1005,6 hPa 0,0 l/m 2,3 km/h W-SW 238 1 min 0,000 mm 0,6 UV-I 352 W/m 0,9 C 3,7 C 5,7 km/h 100,00 %
25.01.2021 13:33 3,6 C 82 % 1005,7 hPa 0,0 l/m 2,3 km/h W-NW 284 1 min 0,000 mm 0,6 UV-I 353 W/m 0,8 C 3,6 C 3,8 km/h 100,00 %
25.01.2021 13:32 3,6 C 82 % 1005,7 hPa 0,0 l/m 0,6 km/h W-NW 285 1 min 0,000 mm 0,6 UV-I 354 W/m 0,8 C 3,6 C 1,9 km/h 100,00 %
25.01.2021 13:31 3,5 C 82 % 1005,6 hPa 0,0 l/m 3,7 km/h W-NW 285 1 min 0,000 mm 0,6 UV-I 357 W/m 0,7 C 3,5 C 7,7 km/h 95,65 %
25.01.2021 13:30 3,5 C 82 % 1005,6 hPa 0,0 l/m 6,9 km/h W-NW 286 1 min 0,000 mm 0,6 UV-I 357 W/m 0,7 C 3,0 C 9,6 km/h 100,00 %
25.01.2021 13:29 3,5 C 82 % 1005,7 hPa 0,0 l/m 6,4 km/h W-NW 296 1 min 0,000 mm 0,6 UV-I 356 W/m 0,7 C 3,5 C 9,6 km/h 100,00 %
25.01.2021 13:28 3,5 C 83 % 1005,7 hPa 0,0 l/m 4,3 km/h W-NW 296 1 min 0,000 mm 0,6 UV-I 357 W/m 0,9 C 3,5 C 5,7 km/h 100,00 %
25.01.2021 13:27 3,4 C 83 % 1005,6 hPa 0,0 l/m 4,8 km/h W-NW 293 1 min 0,000 mm 0,6 UV-I 357 W/m 0,8 C 3,4 C 11,5 km/h 100,00 %
25.01.2021 13:26 3,4 C 83 % 1005,7 hPa 0,0 l/m 2,9 km/h W-SW 250 1 min 0,000 mm 0,6 UV-I 360 W/m 0,8 C 3,4 C 5,7 km/h 100,00 %
25.01.2021 13:25 3,3 C 83 % 1005,7 hPa 0,0 l/m 2,7 km/h W-NW 300 1 min 0,000 mm 0,6 UV-I 359 W/m 0,7 C 3,3 C 5,7 km/h 92,86 %
25.01.2021 13:24 3,3 C 83 % 1005,6 hPa 0,0 l/m 1,6 km/h W-NW 296 1 min 0,000 mm 0,6 UV-I 360 W/m 0,7 C 3,3 C 3,8 km/h 100,00 %
25.01.2021 13:23 3,3 C 83 % 1005,6 hPa 0,0 l/m 2,7 km/h W-NW 296 1 min 0,000 mm 0,6 UV-I 360 W/m 0,7 C 3,3 C 5,7 km/h 100,00 %
25.01.2021 13:22 3,3 C 83 % 1005,6 hPa 0,0 l/m 3,3 km/h W-NW 295 1 min 0,000 mm 0,6 UV-I 362 W/m 0,7 C 3,3 C 5,7 km/h 100,00 %
25.01.2021 13:21 3,2 C 83 % 1005,6 hPa 0,0 l/m 2,5 km/h W-NW 295 1 min 0,000 mm 0,6 UV-I 362 W/m 0,6 C 3,2 C 5,7 km/h 100,00 %
25.01.2021 13:20 3,2 C 83 % 1005,6 hPa 0,0 l/m 1,8 km/h W-NW 295 1 min 0,000 mm 0,6 UV-I 339 W/m 0,6 C 3,2 C 3,8 km/h 100,00 %
25.01.2021 13:19 3,2 C 83 % 1005,6 hPa 0,0 l/m 4,9 km/h W-NW 295 1 min 0,000 mm 0,6 UV-I 358 W/m 0,6 C 3,2 C 7,7 km/h 95,83 %
25.01.2021 13:18 3,1 C 83 % 1005,6 hPa 0,0 l/m 5,3 km/h W-NW 296 1 min 0,000 mm 0,6 UV-I 365 W/m 0,5 C 3,1 C 7,7 km/h 100,00 %
25.01.2021 13:17 3,1 C 83 % 1005,6 hPa 0,0 l/m 3,8 km/h W-NW 284 1 min 0,000 mm 0,6 UV-I 375 W/m 0,5 C 3,1 C 13,4 km/h 100,00 %
25.01.2021 13:16 3,1 C 83 % 1005,6 hPa 0,0 l/m 5,5 km/h W-NW 293 1 min 0,000 mm 0,6 UV-I 374 W/m 0,5 C 3,1 C 7,7 km/h 100,00 %
25.01.2021 13:15 3,1 C 83 % 1005,6 hPa 0,0 l/m 5,7 km/h W 276 1 min 0,000 mm 0,6 UV-I 338 W/m 0,5 C 3,1 C 7,7 km/h 100,00 %
25.01.2021 13:14 3,0 C 83 % 1005,6 hPa 0,0 l/m 5,3 km/h W-NW 293 1 min 0,000 mm 0,6 UV-I 348 W/m 0,4 C 3,0 C 7,7 km/h 100,00 %
25.01.2021 13:13 3,0 C 83 % 1005,6 hPa 0,0 l/m 4,4 km/h W-NW 291 0 min 0,000 mm 0,6 UV-I 280 W/m 0,4 C 3,0 C 7,7 km/h 100,00 %
25.01.2021 13:12 2,9 C 84 % 1005,6 hPa 0,0 l/m 5,5 km/h W-NW 291 0 min 0,000 mm 0,5 UV-I 209 W/m 0,5 C 2,9 C 7,7 km/h 99,40 %
25.01.2021 13:11 2,9 C 84 % 1005,6 hPa 0,0 l/m 4,5 km/h W-NW 288 1 min 0,000 mm 0,5 UV-I 319 W/m 0,5 C 2,9 C 5,7 km/h 100,00 %
25.01.2021 13:10 2,9 C 84 % 1005,6 hPa 0,0 l/m 3,7 km/h W-NW 287 1 min 0,000 mm 0,6 UV-I 378 W/m 0,5 C 2,9 C 5,7 km/h 100,00 %
25.01.2021 13:09 2,8 C 83 % 1005,6 hPa 0,0 l/m 1,9 km/h W-NW 288 1 min 0,000 mm 0,6 UV-I 409 W/m 0,2 C 2,8 C 5,7 km/h 100,00 %
25.01.2021 13:08 2,8 C 83 % 1005,6 hPa 0,0 l/m 1,3 km/h W-NW 288 1 min 0,000 mm 0,6 UV-I 410 W/m 0,2 C 2,8 C 5,7 km/h 100,00 %
25.01.2021 13:07 2,8 C 83 % 1005,6 hPa 0,0 l/m 1,6 km/h W-NW 288 1 min 0,000 mm 0,6 UV-I 310 W/m 0,2 C 2,8 C 3,8 km/h 100,00 %
25.01.2021 13:06 2,8 C 83 % 1005,6 hPa 0,0 l/m 2,6 km/h W-NW 288 0 min 0,000 mm 0,5 UV-I 200 W/m 0,2 C 2,8 C 3,8 km/h 100,00 %
25.01.2021 13:05 2,8 C 83 % 1005,5 hPa 0,0 l/m 4,0 km/h W-NW 288 0 min 0,000 mm 0,5 UV-I 189 W/m 0,2 C 2,8 C 5,7 km/h 95,83 %
25.01.2021 13:04 2,8 C 84 % 1005,5 hPa 0,0 l/m 6,4 km/h W-NW 286 0 min 0,000 mm 0,5 UV-I 185 W/m 0,4 C 2,8 C 7,7 km/h 100,00 %
25.01.2021 13:03 2,8 C 84 % 1005,5 hPa 0,0 l/m 6,4 km/h W-NW 292 0 min 0,000 mm 0,5 UV-I 175 W/m 0,4 C 2,8 C 7,7 km/h 100,00 %
25.01.2021 13:02 2,8 C 84 % 1005,5 hPa 0,0 l/m 3,3 km/h W-NW 296 0 min 0,000 mm 0,5 UV-I 137 W/m 0,4 C 2,8 C 7,7 km/h 100,00 %
25.01.2021 13:01 2,8 C 84 % 1005,5 hPa 0,0 l/m 2,2 km/h W-NW 294 0 min 0,000 mm 0,5 UV-I 124 W/m 0,4 C 2,8 C 5,7 km/h 100,00 %
25.01.2021 13:00 2,8 C 84 % 1005,5 hPa 0,0 l/m 3,0 km/h W-NW 294 0 min 0,077 mm 0,5 UV-I 121 W/m 0,4 C 2,8 C 7,7 km/h 100,00 %
25.01.2021 12:59 2,8 C 84 % 1005,4 hPa 0,0 l/m 2,9 km/h W-NW 294 0 min 0,000 mm 0,5 UV-I 122 W/m 0,4 C 2,8 C 5,7 km/h 100,00 %
25.01.2021 12:58 2,8 C 84 % 1005,5 hPa 0,0 l/m 2,3 km/h W-NW 294 0 min 0,000 mm 0,5 UV-I 123 W/m 0,4 C 2,8 C 3,8 km/h 100,00 %
25.01.2021 12:57 2,8 C 84 % 1005,4 hPa 0,0 l/m 3,4 km/h W-NW 294 0 min 0,000 mm 0,5 UV-I 125 W/m 0,4 C 2,8 C 5,7 km/h 95,65 %
25.01.2021 12:56 2,8 C 84 % 1005,4 hPa 0,0 l/m 5,0 km/h W-NW 296 0 min 0,000 mm 0,5 UV-I 127 W/m 0,4 C 2,8 C 7,7 km/h 100,00 %
25.01.2021 12:55 2,8 C 84 % 1005,5 hPa 0,0 l/m 2,4 km/h W-NW 295 0 min 0,000 mm 0,5 UV-I 129 W/m 0,4 C 2,8 C 3,8 km/h 96,30 %
25.01.2021 12:54 2,9 C 84 % 1005,5 hPa 0,0 l/m 3,4 km/h W-NW 295 0 min 0,000 mm 0,5 UV-I 133 W/m 0,5 C 2,9 C 7,7 km/h 100,00 %
25.01.2021 12:53 2,9 C 84 % 1005,4 hPa 0,0 l/m 3,7 km/h W-NW 295 0 min 0,000 mm 0,5 UV-I 137 W/m 0,5 C 2,9 C 5,7 km/h 100,00 %
25.01.2021 12:52 2,9 C 84 % 1005,4 hPa 0,0 l/m 4,1 km/h W-NW 295 0 min 0,000 mm 0,5 UV-I 141 W/m 0,5 C 2,9 C 5,7 km/h 100,00 %
25.01.2021 12:51 2,9 C 84 % 1005,4 hPa 0,0 l/m 5,7 km/h W-NW 296 0 min 0,000 mm 0,5 UV-I 147 W/m 0,5 C 2,9 C 7,7 km/h 100,00 %
25.01.2021 12:50 2,9 C 84 % 1005,4 hPa 0,0 l/m 4,8 km/h W-NW 294 0 min 0,000 mm 0,5 UV-I 153 W/m 0,5 C 2,9 C 7,7 km/h 100,00 %
25.01.2021 12:49 2,9 C 84 % 1005,4 hPa 0,0 l/m 3,9 km/h W-NW 295 0 min 0,000 mm 0,5 UV-I 158 W/m 0,5 C 2,9 C 7,7 km/h 100,00 %
25.01.2021 12:48 2,9 C 84 % 1005,4 hPa 0,0 l/m 3,5 km/h W-NW 294 0 min 0,000 mm 0,5 UV-I 162 W/m 0,5 C 2,9 C 7,7 km/h 100,00 %
25.01.2021 12:47 2,9 C 84 % 1005,4 hPa 0,0 l/m 3,7 km/h W-NW 295 0 min 0,000 mm 0,5 UV-I 166 W/m 0,5 C 2,9 C 5,7 km/h 100,00 %
25.01.2021 12:46 2,9 C 84 % 1005,4 hPa 0,0 l/m 3,9 km/h W-NW 294 0 min 0,000 mm 0,5 UV-I 171 W/m 0,5 C 2,9 C 5,7 km/h 100,00 %
25.01.2021 12:45 2,9 C 84 % 1005,4 hPa 0,0 l/m 2,5 km/h W-NW 294 0 min 0,000 mm 0,5 UV-I 173 W/m 0,5 C 2,9 C 5,7 km/h 95,65 %
25.01.2021 12:44 2,9 C 84 % 1005,3 hPa 0,0 l/m 1,8 km/h W-NW 294 0 min 0,000 mm 0,5 UV-I 175 W/m 0,5 C 2,9 C 3,8 km/h 95,83 %
25.01.2021 12:43 2,9 C 84 % 1005,4 hPa 0,0 l/m 1,7 km/h W-NW 294 0 min 0,000 mm 0,5 UV-I 177 W/m 0,5 C 2,9 C 3,8 km/h 96,15 %
25.01.2021 12:42 2,9 C 84 % 1005,4 hPa 0,0 l/m 1,5 km/h W-NW 294 0 min 0,000 mm 0,5 UV-I 178 W/m 0,5 C 2,9 C 3,8 km/h 100,00 %
25.01.2021 12:41 2,9 C 84 % 1005,3 hPa 0,0 l/m 3,2 km/h W-NW 294 0 min 0,000 mm 0,5 UV-I 179 W/m 0,5 C 2,9 C 5,7 km/h 100,00 %
25.01.2021 12:40 2,9 C 84 % 1005,3 hPa 0,0 l/m 4,8 km/h W-NW 294 0 min 0,000 mm 0,5 UV-I 179 W/m 0,5 C 2,9 C 5,7 km/h 100,00 %
25.01.2021 12:39 2,9 C 84 % 1005,2 hPa 0,0 l/m 6,8 km/h W-NW 294 0 min 0,000 mm 0,5 UV-I 180 W/m 0,5 C 2,5 C 9,6 km/h 100,00 %
25.01.2021 12:38 2,9 C 84 % 1005,2 hPa 0,0 l/m 5,7 km/h W-NW 290 0 min 0,000 mm 0,5 UV-I 182 W/m 0,5 C 2,9 C 7,7 km/h 100,00 %
25.01.2021 12:37 2,9 C 84 % 1005,2 hPa 0,0 l/m 5,5 km/h W-NW 297 0 min 0,000 mm 0,5 UV-I 184 W/m 0,5 C 2,9 C 7,7 km/h 100,00 %
25.01.2021 12:36 2,9 C 85 % 1005,2 hPa 0,0 l/m 4,4 km/h W-NW 295 0 min 0,000 mm 0,5 UV-I 186 W/m 0,6 C 2,9 C 7,7 km/h 100,00 %
25.01.2021 12:35 2,9 C 85 % 1005,2 hPa 0,0 l/m 4,1 km/h W-NW 296 0 min 0,000 mm 0,5 UV-I 188 W/m 0,6 C 2,9 C 9,6 km/h 100,00 %
25.01.2021 12:34 2,9 C 85 % 1005,2 hPa 0,0 l/m 4,8 km/h W-NW 296 0 min 0,000 mm 0,5 UV-I 190 W/m 0,6 C 2,9 C 7,7 km/h 100,00 %
25.01.2021 12:33 2,9 C 85 % 1005,2 hPa 0,0 l/m 3,6 km/h W-NW 301 0 min 0,000 mm 0,5 UV-I 192 W/m 0,6 C 2,9 C 7,7 km/h 100,00 %
25.01.2021 12:32 2,9 C 85 % 1005,1 hPa 0,0 l/m 3,5 km/h W-NW 300 0 min 0,000 mm 0,5 UV-I 192 W/m 0,6 C 2,9 C 5,7 km/h 100,00 %
25.01.2021 12:31 2,9 C 85 % 1005,1 hPa 0,0 l/m 5,4 km/h W-NW 300 0 min 0,000 mm 0,5 UV-I 195 W/m 0,6 C 2,9 C 9,6 km/h 100,00 %
25.01.2021 12:30 2,9 C 85 % 1005,2 hPa 0,0 l/m 3,9 km/h NW 313 0 min 0,000 mm 0,5 UV-I 199 W/m 0,6 C 2,9 C 7,7 km/h 95,65 %
25.01.2021 12:29 2,9 C 85 % 1005,1 hPa 0,0 l/m 4,1 km/h NW 312 0 min 0,000 mm 0,5 UV-I 208 W/m 0,6 C 2,9 C 5,7 km/h 100,00 %
25.01.2021 12:28 2,9 C 85 % 1005,1 hPa 0,0 l/m 8,2 km/h NW 317 0 min 0,000 mm 0,5 UV-I 210 W/m 0,6 C 1,2 C 15,3 km/h 100,00 %
25.01.2021 12:27 2,9 C 85 % 1005,1 hPa 0,0 l/m 8,2 km/h W-NW 285 0 min 0,000 mm 0,5 UV-I 201 W/m 0,6 C 1,2 C 13,4 km/h 100,00 %
25.01.2021 12:26 2,9 C 86 % 1005,1 hPa 0,0 l/m 8,1 km/h W 280 0 min 0,000 mm 0,5 UV-I 198 W/m 0,8 C 1,3 C 15,3 km/h 100,00 %
25.01.2021 12:25 2,9 C 86 % 1005,1 hPa 0,0 l/m 3,8 km/h NW 307 0 min 0,000 mm 0,5 UV-I 197 W/m 0,8 C 2,9 C 5,7 km/h 100,00 %
25.01.2021 12:24 2,9 C 86 % 1005,1 hPa 0,0 l/m 4,7 km/h NW 307 0 min 0,000 mm 0,5 UV-I 197 W/m 0,8 C 2,9 C 7,7 km/h 100,00 %
25.01.2021 12:23 2,9 C 86 % 1005,1 hPa 0,0 l/m 3,2 km/h NW 311 0 min 0,000 mm 0,5 UV-I 199 W/m 0,8 C 2,9 C 5,7 km/h 100,00 %
25.01.2021 12:22 2,9 C 86 % 1005,0 hPa 0,0 l/m 3,6 km/h NW 311 0 min 0,000 mm 0,5 UV-I 202 W/m 0,8 C 2,9 C 5,7 km/h 100,00 %
25.01.2021 12:21 2,9 C 86 % 1005,0 hPa 0,0 l/m 2,6 km/h W-NW 303 0 min 0,000 mm 0,5 UV-I 209 W/m 0,8 C 2,9 C 5,7 km/h 100,00 %
25.01.2021 12:20 2,9 C 86 % 1005,0 hPa 0,0 l/m 4,9 km/h NW 304 0 min 0,000 mm 0,5 UV-I 218 W/m 0,8 C 2,9 C 9,6 km/h 100,00 %
25.01.2021 12:19 2,8 C 86 % 1005,0 hPa 0,0 l/m 3,3 km/h NW 313 0 min 0,000 mm 0,5 UV-I 223 W/m 0,7 C 2,8 C 5,7 km/h 100,00 %
25.01.2021 12:18 2,8 C 86 % 1005,0 hPa 0,0 l/m 1,6 km/h NW 313 0 min 0,000 mm 0,5 UV-I 236 W/m 0,7 C 2,8 C 3,8 km/h 100,00 %
25.01.2021 12:17 2,8 C 86 % 1005,0 hPa 0,0 l/m 3,3 km/h NW 311 0 min 0,000 mm 0,5 UV-I 237 W/m 0,7 C 2,8 C 5,7 km/h 95,65 %
25.01.2021 12:16 2,8 C 87 % 1005,0 hPa 0,0 l/m 6,1 km/h NW 311 0 min 0,000 mm 0,5 UV-I 242 W/m 0,9 C 2,8 C 7,7 km/h 100,00 %
25.01.2021 12:15 2,8 C 87 % 1005,0 hPa 0,0 l/m 4,7 km/h NW 323 0 min 0,000 mm 0,5 UV-I 252 W/m 0,9 C 2,8 C 7,7 km/h 100,00 %
25.01.2021 12:14 2,8 C 87 % 1005,0 hPa 0,0 l/m 5,8 km/h NW 319 0 min 0,000 mm 0,5 UV-I 263 W/m 0,9 C 2,8 C 9,6 km/h 100,00 %
25.01.2021 12:13 2,8 C 87 % 1005,0 hPa 0,0 l/m 4,2 km/h W-NW 296 0 min 0,000 mm 0,5 UV-I 263 W/m 0,9 C 2,8 C 5,7 km/h 93,33 %
25.01.2021 12:12 2,8 C 87 % 1004,9 hPa 0,0 l/m 4,5 km/h W-NW 296 0 min 0,000 mm 0,5 UV-I 264 W/m 0,9 C 2,8 C 7,7 km/h 100,00 %
25.01.2021 12:11 2,8 C 87 % 1005,0 hPa 0,0 l/m 6,7 km/h W-NW 286 0 min 0,000 mm 0,5 UV-I 262 W/m 0,9 C 2,5 C 9,6 km/h 100,00 %
25.01.2021 12:10 2,8 C 87 % 1005,0 hPa 0,0 l/m 6,0 km/h NW 313 0 min 0,000 mm 0,5 UV-I 260 W/m 0,9 C 2,8 C 9,6 km/h 100,00 %
25.01.2021 12:09 2,7 C 88 % 1004,9 hPa 0,0 l/m 6,3 km/h NW 310 0 min 0,000 mm 0,5 UV-I 261 W/m 0,9 C 2,7 C 9,6 km/h 100,00 %
25.01.2021 12:08 2,7 C 88 % 1005,0 hPa 0,0 l/m 8,7 km/h W-NW 287 0 min 0,000 mm 0,5 UV-I 263 W/m 0,9 C 0,6 C 13,4 km/h 100,00 %
25.01.2021 12:07 2,7 C 88 % 1004,9 hPa 0,0 l/m 5,1 km/h NW 304 0 min 0,000 mm 0,5 UV-I 274 W/m 0,9 C 2,7 C 7,7 km/h 100,00 %
25.01.2021 12:06 2,6 C 88 % 1004,9 hPa 0,0 l/m 3,2 km/h W-NW 290 1 min 0,000 mm 0,5 UV-I 297 W/m 0,8 C 2,6 C 7,7 km/h 100,00 %
25.01.2021 12:05 2,6 C 88 % 1005,0 hPa 0,0 l/m 2,3 km/h W-NW 289 1 min 0,000 mm 0,5 UV-I 323 W/m 0,8 C 2,6 C 5,7 km/h 100,00 %
25.01.2021 12:04 2,6 C 88 % 1004,9 hPa 0,0 l/m 2,2 km/h W-NW 290 1 min 0,000 mm 0,5 UV-I 330 W/m 0,8 C 2,6 C 3,8 km/h 100,00 %
25.01.2021 12:03 2,5 C 88 % 1004,9 hPa 0,0 l/m 4,3 km/h W-NW 290 1 min 0,000 mm 0,5 UV-I 292 W/m 0,7 C 2,5 C 7,7 km/h 99,40 %
25.01.2021 12:02 2,4 C 88 % 1004,9 hPa 0,0 l/m 4,9 km/h W-NW 290 1 min 0,000 mm 0,5 UV-I 288 W/m 0,6 C 2,4 C 9,6 km/h 95,83 %
25.01.2021 12:01 2,4 C 88 % 1004,9 hPa 0,0 l/m 5,8 km/h W-NW 292 1 min 0,076 mm 0,5 UV-I 290 W/m 0,6 C 2,4 C 11,5 km/h 96,15 %
25.01.2021 12:00 2,4 C 88 % 1004,9 hPa 0,0 l/m 7,0 km/h W-NW 282 0 min 0,000 mm 0,5 UV-I 277 W/m 0,6 C 1,8 C 11,5 km/h 100,00 %
25.01.2021 11:59 2,4 C 89 % 1004,9 hPa 0,0 l/m 5,2 km/h NW 305 0 min 0,000 mm 0,5 UV-I 270 W/m 0,8 C 2,4 C 7,7 km/h 100,00 %
25.01.2021 11:58 2,3 C 88 % 1004,9 hPa 0,0 l/m 6,2 km/h NW 326 0 min 0,000 mm 0,5 UV-I 261 W/m 0,5 C 2,3 C 9,6 km/h 100,00 %
25.01.2021 11:57 2,3 C 89 % 1004,9 hPa 0,0 l/m 7,0 km/h W-NW 294 0 min 0,000 mm 0,5 UV-I 225 W/m 0,7 C 1,7 C 9,6 km/h 94,44 %
25.01.2021 11:56 2,3 C 89 % 1004,8 hPa 0,0 l/m 7,7 km/h NW 306 0 min 0,000 mm 0,5 UV-I 208 W/m 0,7 C 1,0 C 13,4 km/h 100,00 %
25.01.2021 11:55 2,3 C 89 % 1004,8 hPa 0,0 l/m 7,7 km/h NW 309 0 min 0,000 mm 0,5 UV-I 200 W/m 0,7 C 1,0 C 13,4 km/h 100,00 %
25.01.2021 11:54 2,3 C 89 % 1004,8 hPa 0,0 l/m 11,7 km/h W-NW 291 0 min 0,000 mm 0,5 UV-I 203 W/m 0,7 C -2,1 C 17,2 km/h 100,00 %
25.01.2021 11:53 2,3 C 89 % 1004,8 hPa 0,0 l/m 8,2 km/h W-NW 296 0 min 0,000 mm 0,5 UV-I 226 W/m 0,7 C 0,6 C 13,4 km/h 100,00 %
25.01.2021 11:52 2,3 C 89 % 1004,8 hPa 0,0 l/m 8,4 km/h NW 323 0 min 0,000 mm 0,5 UV-I 282 W/m 0,7 C 0,4 C 17,2 km/h 100,00 %
25.01.2021 11:51 2,3 C 89 % 1004,8 hPa 0,0 l/m 10,3 km/h W-NW 295 1 min 0,000 mm 0,5 UV-I 354 W/m 0,7 C -1,1 C 15,3 km/h 100,00 %
25.01.2021 11:50 2,3 C 90 % 1004,7 hPa 0,0 l/m 9,7 km/h W-NW 299 1 min 0,000 mm 0,5 UV-I 351 W/m 0,8 C -0,7 C 13,4 km/h 100,00 %
25.01.2021 11:49 2,3 C 90 % 1004,8 hPa 0,0 l/m 10,9 km/h NW 311 1 min 0,000 mm 0,5 UV-I 309 W/m 0,8 C -1,6 C 17,2 km/h 92,59 %
25.01.2021 11:48 2,3 C 90 % 1004,7 hPa 0,0 l/m 6,4 km/h W-NW 296 0 min 0,000 mm 0,5 UV-I 260 W/m 0,8 C 2,3 C 15,3 km/h 100,00 %
25.01.2021 11:47 2,3 C 90 % 1004,7 hPa 0,0 l/m 3,7 km/h W-NW 302 0 min 0,000 mm 0,5 UV-I 244 W/m 0,8 C 2,3 C 7,7 km/h 100,00 %
25.01.2021 11:46 2,3 C 90 % 1004,7 hPa 0,0 l/m 5,9 km/h W-NW 302 0 min 0,000 mm 0,5 UV-I 229 W/m 0,8 C 2,3 C 7,7 km/h 100,00 %
25.01.2021 11:45 2,3 C 90 % 1004,7 hPa 0,0 l/m 8,1 km/h W-NW 294 0 min 0,000 mm 0,5 UV-I 215 W/m 0,8 C 0,7 C 13,4 km/h 100,00 %
25.01.2021 11:44 2,3 C 90 % 1004,7 hPa 0,0 l/m 7,9 km/h NW 304 0 min 0,000 mm 0,5 UV-I 210 W/m 0,8 C 0,9 C 13,4 km/h 100,00 %
25.01.2021 11:43 2,3 C 91 % 1004,6 hPa 0,0 l/m 5,3 km/h W-NW 290 0 min 0,000 mm 0,5 UV-I 195 W/m 1,0 C 2,3 C 9,6 km/h 100,00 %
25.01.2021 11:42 2,3 C 91 % 1004,6 hPa 0,0 l/m 6,5 km/h W 271 0 min 0,000 mm 0,4 UV-I 182 W/m 1,0 C 2,2 C 11,5 km/h 100,00 %
25.01.2021 11:41 2,3 C 91 % 1004,6 hPa 0,0 l/m 5,9 km/h W-NW 294 0 min 0,000 mm 0,2 UV-I 205 W/m 1,0 C 2,3 C 11,5 km/h 100,00 %
25.01.2021 11:40 2,3 C 91 % 1004,6 hPa 0,0 l/m 3,1 km/h W-NW 292 1 min 0,000 mm 0,5 UV-I 305 W/m 1,0 C 2,3 C 7,7 km/h 100,00 %
25.01.2021 11:39 2,3 C 91 % 1004,5 hPa 0,0 l/m 2,7 km/h W-NW 293 1 min 0,000 mm 0,5 UV-I 327 W/m 1,0 C 2,3 C 5,7 km/h 100,00 %
25.01.2021 11:38 2,3 C 91 % 1004,5 hPa 0,0 l/m 5,5 km/h W-NW 293 0 min 0,000 mm 0,5 UV-I 251 W/m 1,0 C 2,3 C 9,6 km/h 100,00 %
25.01.2021 11:37 2,3 C 91 % 1004,5 hPa 0,0 l/m 8,2 km/h W-NW 294 0 min 0,000 mm 0,0 UV-I 175 W/m 1,0 C 0,6 C 15,3 km/h 100,00 %
25.01.2021 11:36 2,3 C 91 % 1004,4 hPa 0,0 l/m 5,4 km/h W-NW 294 0 min 0,000 mm 0,0 UV-I 150 W/m 1,0 C 2,3 C 7,7 km/h 100,00 %
25.01.2021 11:35 2,3 C 91 % 1004,4 hPa 0,0 l/m 5,6 km/h NW 304 0 min 0,000 mm 0,2 UV-I 198 W/m 1,0 C 2,3 C 7,7 km/h 100,00 %
25.01.2021 11:34 2,3 C 92 % 1004,4 hPa 0,0 l/m 5,6 km/h NW 305 0 min 0,000 mm 0,3 UV-I 211 W/m 1,1 C 2,3 C 9,6 km/h 96,30 %
25.01.2021 11:33 2,3 C 91 % 1004,4 hPa 0,0 l/m 1,0 km/h N-NW 348 0 min 0,000 mm 0,0 UV-I 198 W/m 1,0 C 2,3 C 3,8 km/h 100,00 %
25.01.2021 11:32 2,3 C 91 % 1004,3 hPa 0,0 l/m 0,3 km/h N-NW 348 0 min 0,000 mm 0,0 UV-I 197 W/m 1,0 C 2,3 C 1,9 km/h 100,00 %
25.01.2021 11:31 2,2 C 91 % 1004,3 hPa 0,0 l/m 1,4 km/h N-NW 348 0 min 0,000 mm 0,0 UV-I 213 W/m 0,9 C 2,2 C 3,8 km/h 92,86 %
25.01.2021 11:30 2,2 C 92 % 1004,3 hPa 0,0 l/m 4,2 km/h N 349 0 min 0,000 mm 0,0 UV-I 185 W/m 1,0 C 2,2 C 5,7 km/h 100,00 %
25.01.2021 11:29 2,2 C 92 % 1004,3 hPa 0,0 l/m 1,2 km/h N 350 0 min 0,000 mm 0,0 UV-I 147 W/m 1,0 C 2,2 C 3,8 km/h 100,00 %
25.01.2021 11:28 2,2 C 92 % 1004,3 hPa 0,0 l/m 0,6 km/h N 350 0 min 0,000 mm 0,0 UV-I 147 W/m 1,0 C 2,2 C 1,9 km/h 100,00 %
25.01.2021 11:27 2,2 C 92 % 1004,3 hPa 0,0 l/m 0,6 km/h N 350 0 min 0,000 mm 0,0 UV-I 171 W/m 1,0 C 2,2 C 1,9 km/h 100,00 %
25.01.2021 11:26 2,1 C 92 % 1004,2 hPa 0,0 l/m 0,6 km/h N 350 0 min 0,000 mm 0,0 UV-I 214 W/m 0,9 C 2,1 C 1,9 km/h 100,00 %
25.01.2021 11:25 2,1 C 92 % 1004,2 hPa 0,0 l/m 2,7 km/h N 350 0 min 0,000 mm 0,0 UV-I 273 W/m 0,9 C 2,1 C 3,8 km/h 100,00 %
25.01.2021 11:24 2,0 C 92 % 1004,2 hPa 0,0 l/m 4,5 km/h N 350 1 min 0,000 mm 0,0 UV-I 308 W/m 0,8 C 2,0 C 5,7 km/h 100,00 %
25.01.2021 11:23 2,0 C 92 % 1004,2 hPa 0,0 l/m 0,9 km/h N 355 1 min 0,000 mm 0,0 UV-I 324 W/m 0,8 C 2,0 C 3,8 km/h 100,00 %
25.01.2021 11:22 1,9 C 92 % 1004,2 hPa 0,0 l/m 3,4 km/h N 355 1 min 0,000 mm 0,0 UV-I 332 W/m 0,7 C 1,9 C 3,8 km/h 100,00 %
25.01.2021 11:21 1,9 C 92 % 1004,2 hPa 0,0 l/m 1,9 km/h N 355 1 min 0,000 mm 0,0 UV-I 337 W/m 0,7 C 1,9 C 3,8 km/h 100,00 %
25.01.2021 11:20 1,9 C 92 % 1004,2 hPa 0,0 l/m 2,5 km/h N 355 1 min 0,000 mm 0,0 UV-I 332 W/m 0,7 C 1,9 C 5,7 km/h 100,00 %
25.01.2021 11:19 1,8 C 92 % 1004,1 hPa 0,0 l/m 3,3 km/h N 355 1 min 0,000 mm 0,0 UV-I 329 W/m 0,6 C 1,8 C 5,7 km/h 95,83 %
25.01.2021 11:18 1,8 C 92 % 1004,1 hPa 0,0 l/m 2,3 km/h N 355 1 min 0,000 mm 0,0 UV-I 325 W/m 0,6 C 1,8 C 5,7 km/h 100,00 %
25.01.2021 11:17 1,8 C 92 % 1004,1 hPa 0,0 l/m 2,3 km/h N 355 1 min 0,000 mm 0,0 UV-I 328 W/m 0,6 C 1,8 C 3,8 km/h 100,00 %
25.01.2021 11:16 1,8 C 92 % 1004,1 hPa 0,0 l/m 2,4 km/h N 355 1 min 0,000 mm 0,0 UV-I 330 W/m 0,6 C 1,8 C 5,7 km/h 100,00 %
25.01.2021 11:15 1,7 C 92 % 1004,1 hPa 0,0 l/m 2,6 km/h N 355 1 min 0,000 mm 0,0 UV-I 329 W/m 0,5 C 1,7 C 5,7 km/h 100,00 %
25.01.2021 11:14 1,7 C 92 % 1004,0 hPa 0,0 l/m 1,4 km/h N 355 1 min 0,000 mm 0,0 UV-I 329 W/m 0,5 C 1,7 C 1,9 km/h 100,00 %
25.01.2021 11:13 1,7 C 92 % 1004,0 hPa 0,0 l/m 0,2 km/h N 355 1 min 0,000 mm 0,0 UV-I 291 W/m 0,5 C 1,7 C 1,9 km/h 96,00 %
25.01.2021 11:12 1,7 C 92 % 1004,0 hPa 0,0 l/m 0,4 km/h N 355 0 min 0,000 mm 0,0 UV-I 156 W/m 0,5 C 1,7 C 1,9 km/h 95,65 %
25.01.2021 11:11 1,7 C 92 % 1004,0 hPa 0,0 l/m 1,8 km/h N 355 0 min 0,000 mm 0,0 UV-I 155 W/m 0,5 C 1,7 C 3,8 km/h 100,00 %
25.01.2021 11:10 1,7 C 92 % 1004,0 hPa 0,0 l/m 2,5 km/h N 355 0 min 0,000 mm 0,0 UV-I 154 W/m 0,5 C 1,7 C 5,7 km/h 100,00 %
25.01.2021 11:09 1,7 C 92 % 1004,0 hPa 0,0 l/m 2,8 km/h N 355 0 min 0,000 mm 0,0 UV-I 161 W/m 0,5 C 1,7 C 3,8 km/h 100,00 %
25.01.2021 11:08 1,8 C 92 % 1003,9 hPa 0,0 l/m 1,9 km/h N 355 0 min 0,000 mm 0,0 UV-I 169 W/m 0,6 C 1,8 C 3,8 km/h 100,00 %
25.01.2021 11:07 1,8 C 92 % 1003,9 hPa 0,0 l/m 0,6 km/h N 355 0 min 0,000 mm 0,0 UV-I 143 W/m 0,6 C 1,8 C 3,8 km/h 100,00 %
25.01.2021 11:06 1,8 C 92 % 1003,9 hPa 0,0 l/m 3,1 km/h N 355 0 min 0,000 mm 0,0 UV-I 121 W/m 0,6 C 1,8 C 3,8 km/h 91,30 %
25.01.2021 11:05 1,8 C 92 % 1003,9 hPa 0,0 l/m 1,9 km/h N 355 0 min 0,000 mm 0,0 UV-I 120 W/m 0,6 C 1,8 C 3,8 km/h 100,00 %
25.01.2021 11:04 1,8 C 92 % 1003,8 hPa 0,0 l/m 2,3 km/h N 355 0 min 0,000 mm 0,0 UV-I 119 W/m 0,6 C 1,8 C 3,8 km/h 100,00 %
25.01.2021 11:03 1,8 C 92 % 1003,8 hPa 0,0 l/m 0,8 km/h N 355 0 min 0,000 mm 0,0 UV-I 117 W/m 0,6 C 1,8 C 1,9 km/h 100,00 %
25.01.2021 11:02 1,8 C 92 % 1003,8 hPa 0,0 l/m 0,8 km/h N 355 0 min 0,000 mm 0,0 UV-I 112 W/m 0,6 C 1,8 C 1,9 km/h 100,00 %
25.01.2021 11:01 1,8 C 92 % 1003,8 hPa 0,0 l/m 0,2 km/h N 355 0 min 0,000 mm 0,0 UV-I 111 W/m 0,6 C 1,8 C 1,9 km/h 100,00 %
25.01.2021 11:00 1,8 C 92 % 1003,7 hPa 0,0 l/m 0,3 km/h N 355 0 min 0,051 mm 0,0 UV-I 115 W/m 0,6 C 1,8 C 1,9 km/h 95,65 %
25.01.2021 10:59 1,8 C 92 % 1003,7 hPa 0,0 l/m 0,0 km/h N 355 0 min 0,000 mm 0,0 UV-I 124 W/m 0,6 C 1,8 C 0,0 km/h 100,00 %
25.01.2021 10:58 1,8 C 92 % 1003,7 hPa 0,0 l/m 0,0 km/h N 355 0 min 0,000 mm 0,0 UV-I 140 W/m 0,6 C 1,8 C 0,0 km/h 100,00 %
25.01.2021 10:57 1,7 C 92 % 1003,7 hPa 0,0 l/m 0,1 km/h N 355 0 min 0,000 mm 0,0 UV-I 154 W/m 0,5 C 1,7 C 1,9 km/h 100,00 %
25.01.2021 10:56 1,7 C 92 % 1003,7 hPa 0,0 l/m 0,3 km/h N 355 0 min 0,000 mm 0,0 UV-I 171 W/m 0,5 C 1,7 C 1,9 km/h 100,00 %
25.01.2021 10:55 1,7 C 92 % 1003,7 hPa 0,0 l/m 0,2 km/h N 355 0 min 0,000 mm 0,0 UV-I 180 W/m 0,5 C 1,7 C 1,9 km/h 100,00 %
25.01.2021 10:54 1,7 C 92 % 1003,7 hPa 0,0 l/m 0,0 km/h N 355 0 min 0,000 mm 0,0 UV-I 173 W/m 0,5 C 1,7 C 0,0 km/h 100,00 %
25.01.2021 10:53 1,6 C 92 % 1003,7 hPa 0,0 l/m 0,0 km/h N 355 0 min 0,000 mm 0,0 UV-I 172 W/m 0,4 C 1,6 C 0,0 km/h 95,65 %
25.01.2021 10:52 1,6 C 92 % 1003,6 hPa 0,0 l/m 0,4 km/h N 355 0 min 0,000 mm 0,0 UV-I 182 W/m 0,4 C 1,6 C 1,9 km/h 100,00 %
25.01.2021 10:51 1,6 C 92 % 1003,6 hPa 0,0 l/m 0,4 km/h N 355 0 min 0,000 mm 0,0 UV-I 185 W/m 0,4 C 1,6 C 1,9 km/h 100,00 %
25.01.2021 10:50 1,6 C 92 % 1003,6 hPa 0,0 l/m 1,5 km/h N 355 0 min 0,000 mm 0,0 UV-I 183 W/m 0,4 C 1,6 C 3,8 km/h 100,00 %
25.01.2021 10:49 1,5 C 92 % 1003,6 hPa 0,0 l/m 1,1 km/h N 355 0 min 0,000 mm 0,0 UV-I 188 W/m 0,3 C 1,5 C 3,8 km/h 96,15 %
25.01.2021 10:48 1,5 C 92 % 1003,6 hPa 0,0 l/m 0,0 km/h N 355 0 min 0,000 mm 0,0 UV-I 180 W/m 0,3 C 1,5 C 0,0 km/h 100,00 %
25.01.2021 10:47 1,5 C 92 % 1003,6 hPa 0,0 l/m 2,7 km/h N 355 0 min 0,000 mm 0,0 UV-I 174 W/m 0,3 C 1,5 C 3,8 km/h 96,15 %
25.01.2021 10:46 1,5 C 92 % 1003,5 hPa 0,0 l/m 1,5 km/h N 355 0 min 0,000 mm 0,0 UV-I 168 W/m 0,3 C 1,5 C 3,8 km/h 100,00 %
25.01.2021 10:45 1,4 C 92 % 1003,5 hPa 0,0 l/m 0,0 km/h N 355 0 min 0,000 mm 0,0 UV-I 170 W/m 0,2 C 1,4 C 0,0 km/h 100,00 %
25.01.2021 10:44 1,4 C 92 % 1003,5 hPa 0,0 l/m 0,0 km/h N 355 0 min 0,000 mm 0,0 UV-I 171 W/m 0,2 C 1,4 C 0,0 km/h 100,00 %
25.01.2021 10:43 1,4 C 92 % 1003,5 hPa 0,0 l/m 0,0 km/h N 355 0 min 0,000 mm 0,0 UV-I 169 W/m 0,2 C 1,4 C 0,0 km/h 100,00 %
25.01.2021 10:42 1,4 C 92 % 1003,4 hPa 0,0 l/m 0,0 km/h N 355 0 min 0,000 mm 0,0 UV-I 168 W/m 0,2 C 1,4 C 0,0 km/h 100,00 %
25.01.2021 10:41 1,4 C 92 % 1003,4 hPa 0,0 l/m 0,0 km/h N 355 0 min 0,000 mm 0,0 UV-I 171 W/m 0,2 C 1,4 C 0,0 km/h 100,00 %
25.01.2021 10:40 1,4 C 92 % 1003,4 hPa 0,0 l/m 0,0 km/h N 355 0 min 0,000 mm 0,0 UV-I 174 W/m 0,2 C 1,4 C 0,0 km/h 100,00 %
25.01.2021 10:39 1,4 C 93 % 1003,4 hPa 0,0 l/m 0,0 km/h N 355 0 min 0,000 mm 0,0 UV-I 177 W/m 0,4 C 1,4 C 0,0 km/h 100,00 %
25.01.2021 10:38 1,4 C 93 % 1003,4 hPa 0,0 l/m 0,0 km/h N 355 0 min 0,000 mm 0,0 UV-I 185 W/m 0,4 C 1,4 C 0,0 km/h 100,00 %
25.01.2021 10:37 1,4 C 93 % 1003,4 hPa 0,0 l/m 0,0 km/h N 355 0 min 0,000 mm 0,0 UV-I 181 W/m 0,4 C 1,4 C 0,0 km/h 100,00 %
25.01.2021 10:36 1,4 C 93 % 1003,3 hPa 0,0 l/m 0,4 km/h N 355 0 min 0,000 mm 0,0 UV-I 209 W/m 0,4 C 1,4 C 1,9 km/h 100,00 %
25.01.2021 10:35 1,3 C 93 % 1003,3 hPa 0,0 l/m 0,1 km/h N 355 0 min 0,000 mm 0,0 UV-I 225 W/m 0,3 C 1,3 C 1,9 km/h 100,00 %
25.01.2021 10:34 1,2 C 93 % 1003,3 hPa 0,0 l/m 0,0 km/h N 355 0 min 0,000 mm 0,0 UV-I 241 W/m 0,2 C 1,2 C 0,0 km/h 100,00 %
25.01.2021 10:33 1,2 C 92 % 1003,3 hPa 0,0 l/m 0,4 km/h N 355 0 min 0,000 mm 0,0 UV-I 260 W/m 0,0 C 1,2 C 1,9 km/h 100,00 %
25.01.2021 10:32 1,1 C 92 % 1003,3 hPa 0,0 l/m 0,7 km/h N 355 0 min 0,000 mm 0,0 UV-I 250 W/m -0,1 C 1,1 C 3,8 km/h 100,00 %
25.01.2021 10:31 1,1 C 92 % 1003,3 hPa 0,0 l/m 1,2 km/h N 355 0 min 0,000 mm 0,0 UV-I 227 W/m -0,1 C 1,1 C 1,9 km/h 100,00 %
25.01.2021 10:30 1,1 C 92 % 1003,3 hPa 0,0 l/m 1,6 km/h N 355 0 min 0,000 mm 0,0 UV-I 162 W/m -0,1 C 1,1 C 3,8 km/h 100,00 %
25.01.2021 10:29 1,1 C 92 % 1003,3 hPa 0,0 l/m 1,3 km/h N 355 0 min 0,000 mm 0,0 UV-I 133 W/m -0,1 C 1,1 C 1,9 km/h 100,00 %
25.01.2021 10:28 1,1 C 92 % 1003,3 hPa 0,0 l/m 0,0 km/h N 355 0 min 0,000 mm 0,0 UV-I 118 W/m -0,1 C 1,1 C 0,0 km/h 100,00 %
25.01.2021 10:27 1,0 C 92 % 1003,3 hPa 0,0 l/m 0,0 km/h N 355 0 min 0,000 mm 0,0 UV-I 110 W/m -0,2 C 1,0 C 0,0 km/h 100,00 %
25.01.2021 10:26 1,0 C 92 % 1003,2 hPa 0,0 l/m 0,0 km/h N 355 0 min 0,000 mm 0,0 UV-I 102 W/m -0,2 C 1,0 C 0,0 km/h 100,00 %
25.01.2021 10:25 1,0 C 92 % 1003,2 hPa 0,0 l/m 0,0 km/h N 355 0 min 0,000 mm 0,0 UV-I 97 W/m -0,2 C 1,0 C 0,0 km/h 100,00 %
25.01.2021 10:24 1,0 C 92 % 1003,2 hPa 0,0 l/m 0,0 km/h N 355 0 min 0,000 mm 0,0 UV-I 94 W/m -0,2 C 1,0 C 0,0 km/h 100,00 %
25.01.2021 10:23 1,0 C 92 % 1003,1 hPa 0,0 l/m 0,0 km/h N 355 0 min 0,000 mm 0,0 UV-I 93 W/m -0,2 C 1,0 C 0,0 km/h 100,00 %
25.01.2021 10:22 1,0 C 92 % 1003,2 hPa 0,0 l/m 0,0 km/h N 355 0 min 0,000 mm 0,0 UV-I 93 W/m -0,2 C 1,0 C 0,0 km/h 91,30 %
25.01.2021 10:21 1,0 C 92 % 1003,1 hPa 0,0 l/m 0,0 km/h N 355 0 min 0,000 mm 0,0 UV-I 93 W/m -0,2 C 1,0 C 0,0 km/h 100,00 %
25.01.2021 10:20 1,0 C 92 % 1003,1 hPa 0,0 l/m 0,0 km/h N 355 0 min 0,000 mm 0,0 UV-I 91 W/m -0,2 C 1,0 C 0,0 km/h 100,00 %
25.01.2021 10:19 1,0 C 92 % 1003,1 hPa 0,0 l/m 0,0 km/h N 355 0 min 0,000 mm 0,0 UV-I 91 W/m -0,2 C 1,0 C 0,0 km/h 100,00 %
25.01.2021 10:18 1,0 C 93 % 1003,1 hPa 0,0 l/m 0,0 km/h N 355 0 min 0,000 mm 0,0 UV-I 93 W/m -0,0 C 1,0 C 0,0 km/h 100,00 %
25.01.2021 10:17 1,0 C 93 % 1003,1 hPa 0,0 l/m 0,0 km/h N 355 0 min 0,000 mm 0,0 UV-I 94 W/m -0,0 C 1,0 C 0,0 km/h 100,00 %
25.01.2021 10:16 1,0 C 93 % 1003,1 hPa 0,0 l/m 0,0 km/h N 355 0 min 0,000 mm 0,0 UV-I 97 W/m -0,0 C 1,0 C 0,0 km/h 100,00 %
25.01.2021 10:15 1,0 C 93 % 1003,1 hPa 0,0 l/m 0,0 km/h N 355 0 min 0,000 mm 0,0 UV-I 100 W/m -0,0 C 1,0 C 0,0 km/h 100,00 %
25.01.2021 10:14 1,0 C 93 % 1003,1 hPa 0,0 l/m 0,0 km/h N 355 0 min 0,000 mm 0,0 UV-I 102 W/m -0,0 C 1,0 C 0,0 km/h 95,83 %
25.01.2021 10:13 1,0 C 93 % 1003,1 hPa 0,0 l/m 0,0 km/h N 355 0 min 0,000 mm 0,0 UV-I 115 W/m -0,0 C 1,0 C 0,0 km/h 100,00 %
25.01.2021 10:12 1,0 C 93 % 1003,0 hPa 0,0 l/m 0,7 km/h N 355 0 min 0,000 mm 0,0 UV-I 148 W/m -0,0 C 1,0 C 1,9 km/h 100,00 %
25.01.2021 10:11 0,9 C 93 % 1003,0 hPa 0,0 l/m 0,6 km/h N 355 0 min 0,000 mm 0,0 UV-I 175 W/m -0,1 C 0,9 C 1,9 km/h 100,00 %
25.01.2021 10:10 0,9 C 93 % 1003,1 hPa 0,0 l/m 2,5 km/h N 355 0 min 0,000 mm 0,0 UV-I 171 W/m -0,1 C 0,9 C 3,8 km/h 100,00 %
25.01.2021 10:09 0,9 C 93 % 1003,1 hPa 0,0 l/m 1,4 km/h N 355 0 min 0,000 mm 0,0 UV-I 151 W/m -0,1 C 0,9 C 3,8 km/h 100,00 %
25.01.2021 10:08 0,9 C 93 % 1003,1 hPa 0,0 l/m 0,3 km/h N 355 0 min 0,000 mm 0,0 UV-I 138 W/m -0,1 C 0,9 C 1,9 km/h 100,00 %
25.01.2021 10:07 0,9 C 92 % 1003,0 hPa 0,0 l/m 1,4 km/h N 355 0 min 0,000 mm 0,0 UV-I 144 W/m -0,2 C 0,9 C 3,8 km/h 100,00 %
25.01.2021 10:06 0,9 C 93 % 1003,1 hPa 0,0 l/m 3,4 km/h N 355 0 min 0,000 mm 0,0 UV-I 162 W/m -0,1 C 0,9 C 5,7 km/h 100,00 %
25.01.2021 10:05 0,8 C 93 % 1003,1 hPa 0,0 l/m 2,6 km/h N 355 0 min 0,000 mm 0,0 UV-I 154 W/m -0,2 C 0,8 C 3,8 km/h 100,00 %
25.01.2021 10:04 0,8 C 93 % 1003,0 hPa 0,0 l/m 1,1 km/h N 355 0 min 0,000 mm 0,0 UV-I 136 W/m -0,2 C 0,8 C 1,9 km/h 100,00 %
25.01.2021 10:03 0,8 C 93 % 1003,0 hPa 0,0 l/m 0,6 km/h N 355 0 min 0,000 mm 0,0 UV-I 149 W/m -0,2 C 0,8 C 3,8 km/h 100,00 %
25.01.2021 10:02 0,8 C 93 % 1003,0 hPa 0,0 l/m 0,1 km/h N 355 0 min 0,000 mm 0,0 UV-I 123 W/m -0,2 C 0,8 C 1,9 km/h 100,00 %
25.01.2021 10:01 0,8 C 93 % 1003,0 hPa 0,0 l/m 0,3 km/h N 355 0 min 0,000 mm 0,0 UV-I 132 W/m -0,2 C 0,8 C 1,9 km/h 96,55 %
25.01.2021 10:00 0,8 C 92 % 1002,9 hPa 0,0 l/m 0,2 km/h N 355 0 min 0,025 mm 0,0 UV-I 140 W/m -0,3 C 0,8 C 1,9 km/h 100,00 %
25.01.2021 09:59 0,7 C 92 % 1002,9 hPa 0,0 l/m 0,8 km/h N 355 0 min 0,000 mm 0,0 UV-I 123 W/m -0,4 C 0,7 C 1,9 km/h 100,00 %
25.01.2021 09:58 0,7 C 92 % 1002,9 hPa 0,0 l/m 1,5 km/h N 355 0 min 0,000 mm 0,0 UV-I 113 W/m -0,4 C 0,7 C 1,9 km/h 99,43 %
25.01.2021 09:57 0,7 C 93 % 1002,9 hPa 0,0 l/m 0,7 km/h N 355 0 min 0,000 mm 0,0 UV-I 106 W/m -0,3 C 0,7 C 1,9 km/h 100,00 %
25.01.2021 09:56 0,7 C 93 % 1002,8 hPa 0,0 l/m 1,3 km/h N 355 0 min 0,000 mm 0,0 UV-I 101 W/m -0,3 C 0,7 C 1,9 km/h 100,00 %
25.01.2021 09:55 0,7 C 93 % 1002,9 hPa 0,0 l/m 1,7 km/h N 355 0 min 0,000 mm 0,0 UV-I 95 W/m -0,3 C 0,7 C 1,9 km/h 100,00 %
25.01.2021 09:54 0,7 C 93 % 1002,8 hPa 0,0 l/m 1,1 km/h N 355 0 min 0,000 mm 0,0 UV-I 89 W/m -0,3 C 0,7 C 1,9 km/h 100,00 %
25.01.2021 09:53 0,7 C 93 % 1002,8 hPa 0,0 l/m 0,3 km/h N 355 0 min 0,000 mm 0,0 UV-I 84 W/m -0,3 C 0,7 C 1,9 km/h 100,00 %
25.01.2021 09:52 0,7 C 93 % 1002,8 hPa 0,0 l/m 0,3 km/h N 355 0 min 0,000 mm 0,0 UV-I 79 W/m -0,3 C 0,7 C 1,9 km/h 100,00 %
25.01.2021 09:51 0,7 C 93 % 1002,7 hPa 0,0 l/m 1,0 km/h N 355 0 min 0,000 mm 0,0 UV-I 74 W/m -0,3 C 0,7 C 1,9 km/h 100,00 %
25.01.2021 09:50 0,7 C 93 % 1002,7 hPa 0,0 l/m 1,8 km/h N 355 0 min 0,000 mm 0,0 UV-I 72 W/m -0,3 C 0,7 C 3,8 km/h 100,00 %
25.01.2021 09:49 0,7 C 93 % 1002,7 hPa 0,0 l/m 0,2 km/h N 355 0 min 0,000 mm 0,0 UV-I 70 W/m -0,3 C 0,7 C 1,9 km/h 100,00 %
25.01.2021 09:48 0,6 C 93 % 1002,7 hPa 0,0 l/m 0,0 km/h N 355 0 min 0,000 mm 0,0 UV-I 68 W/m -0,4 C 0,6 C 0,0 km/h 100,00 %
25.01.2021 09:47 0,6 C 93 % 1002,7 hPa 0,0 l/m 0,4 km/h N 355 0 min 0,000 mm 0,0 UV-I 67 W/m -0,4 C 0,6 C 1,9 km/h 100,00 %
25.01.2021 09:46 0,6 C 93 % 1002,7 hPa 0,0 l/m 0,9 km/h N 355 0 min 0,000 mm 0,0 UV-I 67 W/m -0,4 C 0,6 C 1,9 km/h 100,00 %
25.01.2021 09:45 0,6 C 93 % 1002,6 hPa 0,0 l/m 0,0 km/h N 355 0 min 0,000 mm 0,0 UV-I 65 W/m -0,4 C 0,6 C 0,0 km/h 100,00 %
25.01.2021 09:44 0,6 C 93 % 1002,6 hPa 0,0 l/m 0,2 km/h N 355 0 min 0,000 mm 0,0 UV-I 65 W/m -0,4 C 0,6 C 1,9 km/h 100,00 %
25.01.2021 09:43 0,6 C 93 % 1002,7 hPa 0,0 l/m 1,8 km/h N 355 0 min 0,000 mm 0,0 UV-I 64 W/m -0,4 C 0,6 C 3,8 km/h 100,00 %
25.01.2021 09:42 0,6 C 93 % 1002,6 hPa 0,0 l/m 1,2 km/h N 355 0 min 0,000 mm 0,0 UV-I 64 W/m -0,4 C 0,6 C 3,8 km/h 100,00 %
25.01.2021 09:41 0,5 C 92 % 1002,6 hPa 0,0 l/m 0,0 km/h N 355 0 min 0,000 mm 0,0 UV-I 62 W/m -0,6 C 0,5 C 0,0 km/h 100,00 %
25.01.2021 09:40 0,5 C 92 % 1002,6 hPa 0,0 l/m 0,0 km/h N 355 0 min 0,000 mm 0,0 UV-I 67 W/m -0,6 C 0,5 C 0,0 km/h 100,00 %
25.01.2021 09:39 0,5 C 92 % 1002,6 hPa 0,0 l/m 1,5 km/h N 355 0 min 0,000 mm 0,0 UV-I 73 W/m -0,6 C 0,5 C 3,8 km/h 100,00 %
25.01.2021 09:38 0,5 C 92 % 1002,6 hPa 0,0 l/m 2,0 km/h N 355 0 min 0,000 mm 0,0 UV-I 64 W/m -0,6 C 0,5 C 3,8 km/h 100,00 %
25.01.2021 09:37 0,4 C 92 % 1002,5 hPa 0,0 l/m 0,8 km/h N 355 0 min 0,000 mm 0,0 UV-I 63 W/m -0,7 C 0,4 C 1,9 km/h 100,00 %
25.01.2021 09:36 0,4 C 92 % 1002,5 hPa 0,0 l/m 1,5 km/h N 355 0 min 0,000 mm 0,0 UV-I 75 W/m -0,7 C 0,4 C 3,8 km/h 100,00 %
25.01.2021 09:35 0,4 C 92 % 1002,5 hPa 0,0 l/m 2,1 km/h N 355 0 min 0,000 mm 0,0 UV-I 82 W/m -0,7 C 0,4 C 3,8 km/h 100,00 %
25.01.2021 09:34 0,4 C 92 % 1002,5 hPa 0,0 l/m 1,3 km/h N 355 0 min 0,000 mm 0,0 UV-I 73 W/m -0,7 C 0,4 C 3,8 km/h 100,00 %
25.01.2021 09:33 0,4 C 92 % 1002,4 hPa 0,0 l/m 1,0 km/h N 355 0 min 0,000 mm 0,0 UV-I 63 W/m -0,7 C 0,4 C 1,9 km/h 100,00 %
25.01.2021 09:32 0,4 C 92 % 1002,4 hPa 0,0 l/m 0,1 km/h N 355 0 min 0,000 mm 0,0 UV-I 59 W/m -0,7 C 0,4 C 1,9 km/h 100,00 %
25.01.2021 09:31 0,4 C 92 % 1002,4 hPa 0,0 l/m 0,0 km/h N 355 0 min 0,000 mm 0,0 UV-I 46 W/m -0,7 C 0,4 C 0,0 km/h 95,65 %
25.01.2021 09:30 0,3 C 92 % 1002,4 hPa 0,0 l/m 0,3 km/h N 355 0 min 0,000 mm 0,0 UV-I 46 W/m -0,8 C 0,3 C 1,9 km/h 100,00 %
25.01.2021 09:29 0,3 C 92 % 1002,3 hPa 0,0 l/m 0,5 km/h N 355 0 min 0,000 mm 0,0 UV-I 45 W/m -0,8 C 0,3 C 1,9 km/h 99,39 %
25.01.2021 09:28 0,3 C 92 % 1002,4 hPa 0,0 l/m 0,2 km/h N 355 0 min 0,000 mm 0,0 UV-I 41 W/m -0,8 C 0,3 C 1,9 km/h 95,83 %
25.01.2021 09:27 0,3 C 92 % 1002,4 hPa 0,0 l/m 0,7 km/h N 355 0 min 0,000 mm 0,0 UV-I 37 W/m -0,8 C 0,3 C 1,9 km/h 100,00 %
25.01.2021 09:26 0,3 C 92 % 1002,4 hPa 0,0 l/m 0,9 km/h N 355 0 min 0,000 mm 0,0 UV-I 34 W/m -0,8 C 0,3 C 1,9 km/h 95,24 %
25.01.2021 09:25 0,3 C 92 % 1002,3 hPa 0,0 l/m 1,9 km/h N 355 0 min 0,000 mm 0,0 UV-I 33 W/m -0,8 C 0,3 C 3,8 km/h 99,42 %
25.01.2021 09:24 0,3 C 92 % 1002,3 hPa 0,0 l/m 1,2 km/h N 355 0 min 0,000 mm 0,0 UV-I 32 W/m -0,8 C 0,3 C 3,8 km/h 100,00 %
25.01.2021 09:23 0,3 C 92 % 1002,3 hPa 0,0 l/m 1,2 km/h N 355 0 min 0,000 mm 0,0 UV-I 31 W/m -0,8 C 0,3 C 1,9 km/h 100,00 %
25.01.2021 09:22 0,3 C 92 % 1002,3 hPa 0,0 l/m 1,4 km/h N 355 0 min 0,000 mm 0,0 UV-I 28 W/m -0,8 C 0,3 C 3,8 km/h 95,83 %
25.01.2021 09:21 0,3 C 92 % 1002,3 hPa 0,0 l/m 1,3 km/h N 355 0 min 0,000 mm 0,0 UV-I 28 W/m -0,8 C 0,3 C 3,8 km/h 100,00 %
25.01.2021 09:20 0,3 C 92 % 1002,3 hPa 0,0 l/m 1,8 km/h N 355 0 min 0,000 mm 0,0 UV-I 28 W/m -0,8 C 0,3 C 3,8 km/h 100,00 %
25.01.2021 09:19 0,3 C 92 % 1002,3 hPa 0,0 l/m 3,0 km/h N 355 0 min 0,000 mm 0,0 UV-I 26 W/m -0,8 C 0,3 C 5,7 km/h 95,83 %
25.01.2021 09:18 0,3 C 92 % 1002,3 hPa 0,0 l/m 3,1 km/h N 355 0 min 0,000 mm 0,0 UV-I 26 W/m -0,8 C 0,3 C 5,7 km/h 100,00 %
25.01.2021 09:17 0,3 C 92 % 1002,3 hPa 0,0 l/m 1,0 km/h N 355 0 min 0,000 mm 0,0 UV-I 26 W/m -0,8 C 0,3 C 1,9 km/h 100,00 %
25.01.2021 09:16 0,3 C 92 % 1002,3 hPa 0,0 l/m 0,2 km/h N 355 0 min 0,000 mm 0,0 UV-I 26 W/m -0,8 C 0,3 C 1,9 km/h 100,00 %
25.01.2021 09:15 0,3 C 92 % 1002,2 hPa 0,0 l/m 1,6 km/h N 355 0 min 0,000 mm 0,0 UV-I 25 W/m -0,8 C 0,3 C 3,8 km/h 100,00 %
25.01.2021 09:14 0,3 C 92 % 1002,2 hPa 0,0 l/m 1,5 km/h N 355 0 min 0,000 mm 0,0 UV-I 25 W/m -0,8 C 0,3 C 5,7 km/h 100,00 %
25.01.2021 09:13 0,3 C 92 % 1002,2 hPa 0,0 l/m 1,4 km/h N 360 0 min 0,000 mm 0,0 UV-I 25 W/m -0,8 C 0,3 C 3,8 km/h 91,67 %
25.01.2021 09:12 0,3 C 92 % 1002,1 hPa 0,0 l/m 1,8 km/h N 360 0 min 0,000 mm 0,0 UV-I 24 W/m -0,8 C 0,3 C 3,8 km/h 95,65 %
25.01.2021 09:11 0,3 C 92 % 1002,1 hPa 0,0 l/m 3,7 km/h N 360 0 min 0,000 mm 0,0 UV-I 23 W/m -0,8 C 0,3 C 5,7 km/h 100,00 %
25.01.2021 09:10 0,3 C 92 % 1002,1 hPa 0,0 l/m 3,8 km/h N 360 0 min 0,000 mm 0,0 UV-I 21 W/m -0,8 C 0,3 C 5,7 km/h 100,00 %
25.01.2021 09:09 0,3 C 92 % 1002,1 hPa 0,0 l/m 2,5 km/h N 360 0 min 0,000 mm 0,0 UV-I 21 W/m -0,8 C 0,3 C 5,7 km/h 100,00 %
25.01.2021 09:08 0,3 C 92 % 1002,1 hPa 0,0 l/m 4,0 km/h N 360 0 min 0,000 mm 0,0 UV-I 19 W/m -0,8 C 0,3 C 5,7 km/h 100,00 %
25.01.2021 09:07 0,3 C 92 % 1002,1 hPa 0,0 l/m 3,3 km/h N 360 0 min 0,000 mm 0,0 UV-I 19 W/m -0,8 C 0,3 C 3,8 km/h 100,00 %
25.01.2021 09:06 0,3 C 92 % 1002,0 hPa 0,0 l/m 4,2 km/h N 360 0 min 0,000 mm 0,0 UV-I 18 W/m -0,8 C 0,3 C 5,7 km/h 100,00 %
25.01.2021 09:05 0,3 C 92 % 1002,0 hPa 0,0 l/m 3,3 km/h N 360 0 min 0,000 mm 0,0 UV-I 17 W/m -0,8 C 0,3 C 5,7 km/h 100,00 %
25.01.2021 09:04 0,3 C 92 % 1002,0 hPa 0,0 l/m 4,9 km/h N 360 0 min 0,000 mm 0,0 UV-I 16 W/m -0,8 C 0,3 C 7,7 km/h 100,00 %
25.01.2021 09:03 0,3 C 92 % 1001,9 hPa 0,0 l/m 3,3 km/h N 360 0 min 0,000 mm 0,0 UV-I 16 W/m -0,8 C 0,3 C 5,7 km/h 100,00 %
25.01.2021 09:02 0,3 C 92 % 1002,0 hPa 0,0 l/m 3,8 km/h N 360 0 min 0,000 mm 0,0 UV-I 14 W/m -0,8 C 0,3 C 7,7 km/h 100,00 %
25.01.2021 09:01 0,3 C 92 % 1001,9 hPa 0,0 l/m 5,6 km/h N 360 0 min 0,000 mm 0,0 UV-I 14 W/m -0,8 C 0,3 C 7,7 km/h 100,00 %
25.01.2021 09:00 0,3 C 92 % 1002,0 hPa 0,0 l/m 4,2 km/h N 360 0 min 0,000 mm 0,0 UV-I 14 W/m -0,8 C 0,3 C 5,7 km/h 100,00 %
_ Min-Zeit 09:00 15:00 09:01 - 09:31 - - - - - - 09:00 04:27 09:31 23:58
Minimum _ 0,3 C 74 % 1001,9 hPa - 0,0 km/h - - - - - - -0,8 C -6,6 C 0,0 km/h 83,33 %
_ Max-Zeit 14:46 02:13 08:48 21:23 04:27 - - 11:13 14:01 13:07 13:08 07:24 14:47 04:24 09:00
Maximum _ 5,3 C 95 % 1014,1 hPa 0,2 l/m 22,9 km/h
SW
- - 1 min 0,127 mm 0,6 UV-I 410 W/m 3,0 C 5,3 C 36,4 km/h
W-SW
100,00 %
Durchschnitt _ 2,9 C 89 % 1008,0 hPa #2,4 l/m 7,4 km/h SW - #0 min. #0,000 mm 0,0 UV-I 7 W/m 1,2 C 1,0 C 12,4 km/h 98,87 %